Time,TemperatureF,DewpointF,PressureIn,WindDirection,WindDirectionDegrees,WindSpeedMPH,WindSpeedGustMPH,Humidity,HourlyPrecipIn,Conditions,Clouds,dailyrainin,SoftwareType,DateUTC
2013-09-26 00:00:00,51.6,47.6,29.99,NNE,12,5.0,8.0,86,0.00,,---,0.00,VWS V14.01,2013-09-26 04:00:00,
2013-09-26 00:01:00,51.6,47.6,29.99,North,8,4.0,7.0,86,0.00,,---,0.00,VWS V14.01,2013-09-26 04:01:00,
2013-09-26 00:02:00,51.6,47.6,29.99,North,11,10.0,10.0,86,0.00,,---,0.00,VWS V14.01,2013-09-26 04:02:00,
2013-09-26 00:03:00,51.6,47.6,29.99,NNE,15,6.0,10.0,86,0.00,,---,0.00,VWS V14.01,2013-09-26 04:03:00,
2013-09-26 00:04:00,51.6,47.6,29.99,ENE,67,4.0,10.0,86,0.00,,---,0.00,VWS V14.01,2013-09-26 04:04:00,
2013-09-26 00:05:00,51.6,47.6,29.99,ENE,61,3.0,10.0,86,0.00,,---,0.00,VWS V14.01,2013-09-26 04:05:00,
2013-09-26 00:06:00,51.6,47.6,29.99,North,352,5.0,10.0,86,0.00,,---,0.00,VWS V14.01,2013-09-26 04:06:00,
2013-09-26 00:07:00,51.6,47.6,29.99,NNE,15,4.0,10.0,86,0.00,,---,0.00,VWS V14.01,2013-09-26 04:07:00,
2013-09-26 00:08:00,51.5,47.5,29.99,NNE,26,4.0,9.0,86,0.00,,---,0.00,VWS V14.01,2013-09-26 04:08:00,
2013-09-26 00:09:00,51.5,47.5,29.99,NNE,23,6.0,9.0,86,0.00,,---,0.00,VWS V14.01,2013-09-26 04:09:00,
2013-09-26 00:10:00,51.5,47.5,29.99,North,11,2.0,9.0,86,0.00,,---,0.00,VWS V14.01,2013-09-26 04:10:00,
2013-09-26 00:11:00,51.5,47.5,29.99,North,6,5.0,9.0,86,0.00,,---,0.00,VWS V14.01,2013-09-26 04:11:00,
2013-09-26 00:12:00,51.5,47.5,29.99,NNW,338,2.0,9.0,86,0.00,,---,0.00,VWS V14.01,2013-09-26 04:12:00,
2013-09-26 00:13:00,50.8,47.1,30.00,ENE,61,7.0,8.0,87,0.00,,---,0.00,VWS V14.01,2013-09-26 04:13:00,
2013-09-26 00:14:00,51.4,47.4,29.99,NNE,32,4.0,10.0,86,0.00,,---,0.00,VWS V14.01,2013-09-26 04:14:00,
2013-09-26 00:15:00,51.4,47.4,29.99,East,94,3.0,10.0,86,0.00,,---,0.00,VWS V14.01,2013-09-26 04:15:00,
2013-09-26 00:16:00,50.7,47.0,30.00,East,79,0.0,8.0,87,0.00,,---,0.00,VWS V14.01,2013-09-26 04:16:00,
2013-09-26 00:17:00,51.4,47.7,29.99,NE,39,4.0,10.0,87,0.00,,---,0.00,VWS V14.01,2013-09-26 04:17:00,
2013-09-26 00:18:00,51.4,47.7,29.99,North,8,4.0,10.0,87,0.00,,---,0.00,VWS V14.01,2013-09-26 04:18:00,
2013-09-26 00:19:00,51.4,47.7,29.99,NE,44,1.0,8.0,87,0.00,,---,0.00,VWS V14.01,2013-09-26 04:19:00,
2013-09-26 00:20:00,51.3,47.6,29.99,ENE,59,5.0,8.0,87,0.00,,---,0.00,VWS V14.01,2013-09-26 04:20:00,
2013-09-26 00:21:00,50.6,47.2,30.00,NE,34,4.0,9.0,88,0.00,,---,0.00,VWS V14.01,2013-09-26 04:21:00,
2013-09-26 00:22:00,51.3,47.6,29.99,ENE,73,4.0,8.0,87,0.00,,---,0.00,VWS V14.01,2013-09-26 04:22:00,
2013-09-26 00:23:00,51.3,47.6,29.99,NE,51,4.0,8.0,87,0.00,,---,0.00,VWS V14.01,2013-09-26 04:23:00,
2013-09-26 00:24:00,51.3,47.6,29.99,NE,48,3.0,8.0,87,0.00,,---,0.00,VWS V14.01,2013-09-26 04:24:00,
2013-09-26 00:25:00,51.3,47.6,29.99,North,7,6.0,8.0,87,0.00,,---,0.00,VWS V14.01,2013-09-26 04:25:00,
2013-09-26 00:26:00,50.4,47.0,29.99,NE,39,3.0,8.0,88,0.00,,---,0.00,VWS V14.01,2013-09-26 04:26:00,
2013-09-26 00:27:00,50.4,47.0,29.99,North,356,2.0,8.0,88,0.00,,---,0.00,VWS V14.01,2013-09-26 04:27:00,
2013-09-26 00:28:00,51.3,47.3,29.99,NE,34,2.0,8.0,86,0.00,,---,0.00,VWS V14.01,2013-09-26 04:28:00,
2013-09-26 00:29:00,51.4,47.4,29.99,NE,37,4.0,8.0,86,0.00,,---,0.00,VWS V14.01,2013-09-26 04:29:00,
2013-09-26 00:30:00,51.4,47.4,29.99,NNE,26,4.0,8.0,86,0.00,,---,0.00,VWS V14.01,2013-09-26 04:30:00,
2013-09-26 00:31:00,50.3,46.9,29.99,NE,51,3.0,7.0,88,0.00,,---,0.00,VWS V14.01,2013-09-26 04:31:00,
2013-09-26 00:32:00,51.3,47.3,29.99,ENE,61,6.0,8.0,86,0.00,,---,0.00,VWS V14.01,2013-09-26 04:32:00,
2013-09-26 00:33:00,51.3,47.3,29.99,ENE,62,2.0,8.0,86,0.00,,---,0.00,VWS V14.01,2013-09-26 04:33:00,
2013-09-26 00:34:00,51.3,47.3,29.99,NE,56,4.0,8.0,86,0.00,,---,0.00,VWS V14.01,2013-09-26 04:34:00,
2013-09-26 00:35:00,51.3,47.3,29.99,ENE,70,9.0,9.0,86,0.00,,---,0.00,VWS V14.01,2013-09-26 04:35:00,
2013-09-26 00:36:00,50.1,46.7,29.99,NE,43,4.0,8.0,88,0.00,,---,0.00,VWS V14.01,2013-09-26 04:36:00,
2013-09-26 00:37:00,51.3,47.3,29.99,NE,47,6.0,9.0,86,0.00,,---,0.00,VWS V14.01,2013-09-26 04:37:00,
2013-09-26 00:38:00,51.3,47.3,29.99,ENE,63,7.0,9.0,86,0.00,,---,0.00,VWS V14.01,2013-09-26 04:38:00,
2013-09-26 00:39:00,51.3,47.3,29.99,NNE,30,4.0,9.0,86,0.00,,---,0.00,VWS V14.01,2013-09-26 04:39:00,
2013-09-26 00:40:00,50.1,47.0,30.00,ENE,74,3.0,9.0,89,0.00,,---,0.00,VWS V14.01,2013-09-26 04:40:00,
2013-09-26 00:41:00,50.0,46.9,29.99,ENE,63,3.0,9.0,89,0.00,,---,0.00,VWS V14.01,2013-09-26 04:41:00,
2013-09-26 00:42:00,51.3,47.3,29.99,NE,51,6.0,8.0,86,0.00,,---,0.00,VWS V14.01,2013-09-26 04:42:00,
2013-09-26 00:43:00,51.3,47.3,30.00,ENE,71,8.0,8.0,86,0.00,,---,0.00,VWS V14.01,2013-09-26 04:43:00,
2013-09-26 00:44:00,50.0,46.9,29.99,NE,51,1.0,8.0,89,0.00,,---,0.00,VWS V14.01,2013-09-26 04:44:00,
2013-09-26 00:45:00,51.4,47.4,30.00,NE,56,3.0,8.0,86,0.00,,---,0.00,VWS V14.01,2013-09-26 04:45:00,
2013-09-26 00:46:00,51.4,47.4,29.99,East,99,4.0,8.0,86,0.00,,---,0.00,VWS V14.01,2013-09-26 04:46:00,
2013-09-26 00:47:00,51.4,47.4,30.00,NE,53,4.0,8.0,86,0.00,,---,0.00,VWS V14.01,2013-09-26 04:47:00,
2013-09-26 00:48:00,51.4,47.4,29.99,NNE,18,4.0,8.0,86,0.00,,---,0.00,VWS V14.01,2013-09-26 04:48:00,
2013-09-26 00:49:00,51.4,47.4,30.00,ENE,68,5.0,6.0,86,0.00,,---,0.00,VWS V14.01,2013-09-26 04:49:00,
2013-09-26 00:50:00,51.4,47.4,29.99,NE,53,8.0,8.0,86,0.00,,---,0.00,VWS V14.01,2013-09-26 04:50:00,
2013-09-26 00:51:00,51.4,47.4,30.00,NE,51,8.0,10.0,86,0.00,,---,0.00,VWS V14.01,2013-09-26 04:51:00,
2013-09-26 00:52:00,49.9,46.8,29.99,East,82,6.0,10.0,89,0.00,,---,0.00,VWS V14.01,2013-09-26 04:52:00,
2013-09-26 00:53:00,51.4,47.4,29.99,ESE,113,3.0,10.0,86,0.00,,---,0.00,VWS V14.01,2013-09-26 04:53:00,
2013-09-26 00:54:00,51.4,47.4,29.99,ENE,68,4.0,10.0,86,0.00,,---,0.00,VWS V14.01,2013-09-26 04:54:00,
2013-09-26 00:55:00,51.3,47.3,29.99,ENE,59,6.0,10.0,86,0.00,,---,0.00,VWS V14.01,2013-09-26 04:55:00,
2013-09-26 00:56:00,51.3,47.3,29.99,North,360,5.0,10.0,86,0.00,,---,0.00,VWS V14.01,2013-09-26 04:56:00,
2013-09-26 00:57:00,51.3,47.3,29.99,NE,39,5.0,10.0,86,0.00,,---,0.00,VWS V14.01,2013-09-26 04:57:00,
2013-09-26 00:58:00,51.2,47.2,30.00,ENE,65,9.0,10.0,86,0.00,,---,0.00,VWS V14.01,2013-09-26 04:58:00,
2013-09-26 00:59:00,49.7,46.6,29.99,NE,56,8.0,12.0,89,0.00,,---,0.00,VWS V14.01,2013-09-26 04:59:00,
2013-09-26 01:00:00,51.2,47.2,30.00,NE,35,5.0,10.0,86,0.00,,---,0.00,VWS V14.01,2013-09-26 05:00:00,
2013-09-26 01:01:00,51.1,47.4,29.99,NE,48,5.0,10.0,87,0.00,,---,0.00,VWS V14.01,2013-09-26 05:01:00,
2013-09-26 01:02:00,51.1,47.4,30.00,NNE,29,2.0,10.0,87,0.00,,---,0.00,VWS V14.01,2013-09-26 05:02:00,
2013-09-26 01:03:00,51.1,47.4,30.00,NNE,25,1.0,9.0,87,0.00,,---,0.00,VWS V14.01,2013-09-26 05:03:00,
2013-09-26 01:04:00,49.6,46.8,30.00,ENE,76,2.0,9.0,90,0.00,,---,0.00,VWS V14.01,2013-09-26 05:04:00,
2013-09-26 01:05:00,49.6,46.8,30.00,NNW,333,3.0,9.0,90,0.00,,---,0.00,VWS V14.01,2013-09-26 05:05:00,
2013-09-26 01:06:00,51.0,47.3,29.99,NE,50,3.0,8.0,87,0.00,,---,0.00,VWS V14.01,2013-09-26 05:06:00,
2013-09-26 01:07:00,51.0,47.3,29.99,NE,36,7.0,8.0,87,0.00,,---,0.00,VWS V14.01,2013-09-26 05:07:00,
2013-09-26 01:08:00,51.0,47.3,30.00,ENE,65,3.0,8.0,87,0.00,,---,0.00,VWS V14.01,2013-09-26 05:08:00,
2013-09-26 01:09:00,50.9,47.2,30.00,ENE,61,5.0,8.0,87,0.00,,---,0.00,VWS V14.01,2013-09-26 05:09:00,
2013-09-26 01:10:00,50.9,47.2,30.00,NNW,348,5.0,8.0,87,0.00,,---,0.00,VWS V14.01,2013-09-26 05:10:00,
2013-09-26 01:11:00,50.9,47.2,30.00,NNE,22,2.0,8.0,87,0.00,,---,0.00,VWS V14.01,2013-09-26 05:11:00,
2013-09-26 01:12:00,50.8,47.1,30.00,North,8,1.0,7.0,87,0.00,,---,0.00,VWS V14.01,2013-09-26 05:12:00,
2013-09-26 01:13:00,50.8,47.1,30.00,ENE,61,7.0,8.0,87,0.00,,---,0.00,VWS V14.01,2013-09-26 05:13:00,
2013-09-26 01:14:00,50.8,47.1,30.00,NE,45,4.0,8.0,87,0.00,,---,0.00,VWS V14.01,2013-09-26 05:14:00,
2013-09-26 01:15:00,50.8,47.1,29.99,ENE,62,6.0,8.0,87,0.00,,---,0.00,VWS V14.01,2013-09-26 05:15:00,
2013-09-26 01:16:00,50.7,47.0,30.00,East,79,0.0,8.0,87,0.00,,---,0.00,VWS V14.01,2013-09-26 05:16:00,
2013-09-26 01:17:00,50.6,47.2,30.00,NE,53,2.0,8.0,88,0.00,,---,0.00,VWS V14.01,2013-09-26 05:17:00,
2013-09-26 01:18:00,50.6,47.2,30.00,ENE,68,4.0,8.0,88,0.00,,---,0.00,VWS V14.01,2013-09-26 05:18:00,
2013-09-26 01:19:00,50.6,47.2,29.99,NE,35,8.0,9.0,88,0.00,,---,0.00,VWS V14.01,2013-09-26 05:19:00,
2013-09-26 01:20:00,51.3,47.3,29.99,NNE,30,4.0,9.0,86,0.00,,---,0.00,VWS V14.01,2013-09-26 05:20:00,
2013-09-26 01:21:00,50.6,47.2,30.00,NE,34,4.0,9.0,88,0.00,,---,0.00,VWS V14.01,2013-09-26 05:21:00,
2013-09-26 01:22:00,50.5,47.1,30.00,East,79,3.0,9.0,88,0.00,,---,0.00,VWS V14.01,2013-09-26 05:22:00,
2013-09-26 01:23:00,50.5,47.1,30.00,NNE,25,7.0,9.0,88,0.00,,---,0.00,VWS V14.01,2013-09-26 05:23:00,
2013-09-26 01:24:00,50.4,47.0,30.00,NE,39,5.0,8.0,88,0.00,,---,0.00,VWS V14.01,2013-09-26 05:24:00,
2013-09-26 01:25:00,50.4,47.0,29.99,NE,39,5.0,8.0,88,0.00,,---,0.00,VWS V14.01,2013-09-26 05:25:00,
2013-09-26 01:26:00,49.0,46.5,30.00,NNE,13,1.0,6.0,91,0.00,,---,0.00,VWS V14.01,2013-09-26 05:26:00,
2013-09-26 01:27:00,50.4,47.0,29.99,North,356,2.0,8.0,88,0.00,,---,0.00,VWS V14.01,2013-09-26 05:27:00,
2013-09-26 01:28:00,50.3,46.9,29.99,NE,47,5.0,8.0,88,0.00,,---,0.00,VWS V14.01,2013-09-26 05:28:00,
2013-09-26 01:29:00,51.4,47.4,29.99,NNE,18,4.0,8.0,86,0.00,,---,0.00,VWS V14.01,2013-09-26 05:29:00,
2013-09-26 01:30:00,50.3,46.9,29.99,NE,44,2.0,8.0,88,0.00,,---,0.00,VWS V14.01,2013-09-26 05:30:00,
2013-09-26 01:31:00,50.3,46.9,29.99,NE,51,3.0,7.0,88,0.00,,---,0.00,VWS V14.01,2013-09-26 05:31:00,
2013-09-26 01:32:00,50.2,46.8,29.99,NE,53,2.0,7.0,88,0.00,,---,0.00,VWS V14.01,2013-09-26 05:32:00,
2013-09-26 01:33:00,50.2,46.8,30.00,NE,41,4.0,7.0,88,0.00,,---,0.00,VWS V14.01,2013-09-26 05:33:00,
2013-09-26 01:34:00,48.7,46.5,30.00,NE,36,4.0,5.0,92,0.00,,---,0.00,VWS V14.01,2013-09-26 05:34:00,
2013-09-26 01:35:00,51.4,47.4,29.99,ENE,68,4.0,10.0,86,0.00,,---,0.00,VWS V14.01,2013-09-26 05:35:00,
2013-09-26 01:36:00,50.1,46.7,29.99,NE,43,4.0,8.0,88,0.00,,---,0.00,VWS V14.01,2013-09-26 05:36:00,
2013-09-26 01:37:00,50.1,46.7,30.00,NE,53,3.0,9.0,88,0.00,,---,0.00,VWS V14.01,2013-09-26 05:37:00,
2013-09-26 01:38:00,50.1,47.0,30.00,ENE,60,6.0,9.0,89,0.00,,---,0.00,VWS V14.01,2013-09-26 05:38:00,
2013-09-26 01:39:00,50.1,47.0,30.00,NE,39,3.0,9.0,89,0.00,,---,0.00,VWS V14.01,2013-09-26 05:39:00,
2013-09-26 01:40:00,51.2,47.2,30.00,NNE,19,4.0,10.0,86,0.00,,---,0.00,VWS V14.01,2013-09-26 05:40:00,
2013-09-26 01:41:00,50.0,46.9,29.99,ENE,63,3.0,9.0,89,0.00,,---,0.00,VWS V14.01,2013-09-26 05:41:00,
2013-09-26 01:42:00,50.0,46.9,30.00,NNE,32,4.0,8.0,89,0.00,,---,0.00,VWS V14.01,2013-09-26 05:42:00,
2013-09-26 01:43:00,50.0,46.9,30.00,NNW,330,1.0,8.0,89,0.00,,---,0.00,VWS V14.01,2013-09-26 05:43:00,
2013-09-26 01:44:00,50.0,46.9,29.99,NE,51,1.0,8.0,89,0.00,,---,0.00,VWS V14.01,2013-09-26 05:44:00,
2013-09-26 01:45:00,50.0,46.9,29.99,NE,48,5.0,8.0,89,0.00,,---,0.00,VWS V14.01,2013-09-26 05:45:00,
2013-09-26 01:46:00,51.0,47.3,29.99,NE,39,4.0,8.0,87,0.00,,---,0.00,VWS V14.01,2013-09-26 05:46:00,
2013-09-26 01:47:00,49.9,46.8,29.99,East,79,3.0,9.0,89,0.00,,---,0.00,VWS V14.01,2013-09-26 05:47:00,
2013-09-26 01:48:00,49.9,46.8,29.99,NNE,13,2.0,10.0,89,0.00,,---,0.00,VWS V14.01,2013-09-26 05:48:00,
2013-09-26 01:49:00,49.9,46.8,29.99,NE,46,3.0,10.0,89,0.00,,---,0.00,VWS V14.01,2013-09-26 05:49:00,
2013-09-26 01:50:00,49.9,46.8,29.99,ENE,58,2.0,10.0,89,0.00,,---,0.00,VWS V14.01,2013-09-26 05:50:00,
2013-09-26 01:51:00,49.9,46.8,29.99,ENE,77,5.0,10.0,89,0.00,,---,0.00,VWS V14.01,2013-09-26 05:51:00,
2013-09-26 01:52:00,50.9,47.2,30.00,NNE,22,2.0,8.0,87,0.00,,---,0.00,VWS V14.01,2013-09-26 05:52:00,
2013-09-26 01:53:00,49.9,46.8,29.99,NNE,19,3.0,9.0,89,0.00,,---,0.00,VWS V14.01,2013-09-26 05:53:00,
2013-09-26 01:54:00,49.8,46.7,29.99,ENE,62,8.0,9.0,89,0.00,,---,0.00,VWS V14.01,2013-09-26 05:54:00,
2013-09-26 01:55:00,49.8,46.7,29.99,ENE,74,6.0,9.0,89,0.00,,---,0.00,VWS V14.01,2013-09-26 05:55:00,
2013-09-26 01:56:00,49.8,46.7,29.99,NNE,29,3.0,9.0,89,0.00,,---,0.00,VWS V14.01,2013-09-26 05:56:00,
2013-09-26 01:57:00,49.8,46.7,29.99,ENE,61,7.0,10.0,89,0.00,,---,0.00,VWS V14.01,2013-09-26 05:57:00,
2013-09-26 01:58:00,50.6,47.2,30.00,NE,53,2.0,8.0,88,0.00,,---,0.00,VWS V14.01,2013-09-26 05:58:00,
2013-09-26 01:59:00,49.7,46.6,29.99,NE,56,8.0,12.0,89,0.00,,---,0.00,VWS V14.01,2013-09-26 05:59:00,
2013-09-26 02:00:00,49.7,46.6,29.99,NE,43,3.0,12.0,89,0.00,,---,0.00,VWS V14.01,2013-09-26 06:00:00,
2013-09-26 02:01:00,49.7,46.6,29.99,NE,47,3.0,12.0,89,0.00,,---,0.00,VWS V14.01,2013-09-26 06:01:00,
2013-09-26 02:02:00,49.7,46.6,30.00,ENE,62,7.0,12.0,89,0.00,,---,0.00,VWS V14.01,2013-09-26 06:02:00,
2013-09-26 02:03:00,50.5,47.1,30.00,East,79,3.0,9.0,88,0.00,,---,0.00,VWS V14.01,2013-09-26 06:03:00,
2013-09-26 02:04:00,49.6,46.8,30.00,ENE,76,2.0,9.0,90,0.00,,---,0.00,VWS V14.01,2013-09-26 06:04:00,
2013-09-26 02:05:00,49.6,46.8,30.00,NNW,333,3.0,9.0,90,0.00,,---,0.00,VWS V14.01,2013-09-26 06:05:00,
2013-09-26 02:06:00,49.6,46.8,30.00,ENE,58,0.0,9.0,90,0.00,,---,0.00,VWS V14.01,2013-09-26 06:06:00,
2013-09-26 02:07:00,49.6,46.8,30.00,East,94,1.0,9.0,90,0.00,,---,0.00,VWS V14.01,2013-09-26 06:07:00,
2013-09-26 02:08:00,49.5,46.7,30.00,North,6,1.0,6.0,90,0.00,,---,0.00,VWS V14.01,2013-09-26 06:08:00,
2013-09-26 02:09:00,50.3,46.9,29.99,NE,47,5.0,8.0,88,0.00,,---,0.00,VWS V14.01,2013-09-26 06:09:00,
2013-09-26 02:10:00,49.5,46.7,30.00,East,88,1.0,6.0,90,0.00,,---,0.00,VWS V14.01,2013-09-26 06:10:00,
2013-09-26 02:11:00,49.4,46.6,30.00,East,87,1.0,6.0,90,0.00,,---,0.00,VWS V14.01,2013-09-26 06:11:00,
2013-09-26 02:12:00,49.4,46.6,30.00,NE,39,2.0,6.0,90,0.00,,---,0.00,VWS V14.01,2013-09-26 06:12:00,
2013-09-26 02:13:00,49.4,46.6,30.00,NE,48,4.0,6.0,90,0.00,,---,0.00,VWS V14.01,2013-09-26 06:13:00,
2013-09-26 02:14:00,50.2,46.8,30.00,NE,41,4.0,7.0,88,0.00,,---,0.00,VWS V14.01,2013-09-26 06:14:00,
2013-09-26 02:15:00,49.3,46.5,30.00,ENE,61,4.0,7.0,90,0.00,,---,0.00,VWS V14.01,2013-09-26 06:15:00,
2013-09-26 02:16:00,49.3,46.5,30.00,NNE,33,1.0,7.0,90,0.00,,---,0.00,VWS V14.01,2013-09-26 06:16:00,
2013-09-26 02:17:00,49.3,46.5,30.00,ENE,71,2.0,7.0,90,0.00,,---,0.00,VWS V14.01,2013-09-26 06:17:00,
2013-09-26 02:18:00,49.2,46.4,30.00,ENE,71,4.0,7.0,90,0.00,,---,0.00,VWS V14.01,2013-09-26 06:18:00,
2013-09-26 02:19:00,50.1,47.0,30.00,ENE,60,6.0,9.0,89,0.00,,---,0.00,VWS V14.01,2013-09-26 06:19:00,
2013-09-26 02:20:00,49.2,46.7,30.00,NE,39,5.0,7.0,91,0.00,,---,0.00,VWS V14.01,2013-09-26 06:20:00,
2013-09-26 02:21:00,49.1,46.6,30.00,ENE,67,4.0,9.0,91,0.00,,---,0.00,VWS V14.01,2013-09-26 06:21:00,
2013-09-26 02:22:00,49.1,46.6,30.00,ENE,57,3.0,9.0,91,0.00,,---,0.00,VWS V14.01,2013-09-26 06:22:00,
2013-09-26 02:23:00,49.1,46.6,30.00,NNE,32,4.0,9.0,91,0.00,,---,0.00,VWS V14.01,2013-09-26 06:23:00,
2013-09-26 02:24:00,49.1,46.6,30.00,NE,34,1.0,9.0,91,0.00,,---,0.00,VWS V14.01,2013-09-26 06:24:00,
2013-09-26 02:25:00,49.0,46.5,30.00,ENE,72,1.0,9.0,91,0.00,,---,0.00,VWS V14.01,2013-09-26 06:25:00,
2013-09-26 02:26:00,50.0,46.9,29.99,NE,48,5.0,8.0,89,0.00,,---,0.00,VWS V14.01,2013-09-26 06:26:00,
2013-09-26 02:27:00,48.9,46.4,30.00,NE,36,2.0,5.0,91,0.00,,---,0.00,VWS V14.01,2013-09-26 06:27:00,
2013-09-26 02:28:00,48.9,46.4,30.00,NNE,26,2.0,5.0,91,0.00,,---,0.00,VWS V14.01,2013-09-26 06:28:00,
2013-09-26 02:29:00,48.8,46.3,30.00,NNE,21,3.0,4.0,91,0.00,,---,0.00,VWS V14.01,2013-09-26 06:29:00,
2013-09-26 02:30:00,48.8,46.3,30.00,NE,49,1.0,4.0,91,0.00,,---,0.00,VWS V14.01,2013-09-26 06:30:00,
2013-09-26 02:31:00,49.9,46.8,29.99,ENE,58,2.0,10.0,89,0.00,,---,0.00,VWS V14.01,2013-09-26 06:31:00,
2013-09-26 02:32:00,48.8,46.3,30.00,NE,46,1.0,4.0,91,0.00,,---,0.00,VWS V14.01,2013-09-26 06:32:00,
2013-09-26 02:33:00,48.7,46.2,30.00,ENE,62,1.0,4.0,91,0.00,,---,0.00,VWS V14.01,2013-09-26 06:33:00,
2013-09-26 02:34:00,48.7,46.5,30.00,NE,36,4.0,5.0,92,0.00,,---,0.00,VWS V14.01,2013-09-26 06:34:00,
2013-09-26 02:35:00,48.7,46.5,30.00,NNE,21,1.0,5.0,92,0.00,,---,0.00,VWS V14.01,2013-09-26 06:35:00,
2013-09-26 02:36:00,49.8,46.7,29.99,ENE,74,6.0,9.0,89,0.00,,---,0.00,VWS V14.01,2013-09-26 06:36:00,
2013-09-26 02:37:00,48.6,46.4,30.00,ENE,64,1.0,5.0,92,0.00,,---,0.00,VWS V14.01,2013-09-26 06:37:00,
2013-09-26 02:38:00,48.6,46.4,30.00,NE,46,1.0,5.0,92,0.00,,---,0.00,VWS V14.01,2013-09-26 06:38:00,
2013-09-26 02:39:00,48.6,46.4,30.00,ESE,114,0.0,4.0,92,0.00,,---,0.00,VWS V14.01,2013-09-26 06:39:00,
2013-09-26 02:40:00,48.5,46.3,30.00,ENE,62,3.0,4.0,92,0.00,,---,0.00,VWS V14.01,2013-09-26 06:40:00,
2013-09-26 02:41:00,49.7,46.6,29.99,NE,43,3.0,12.0,89,0.00,,---,0.00,VWS V14.01,2013-09-26 06:41:00,
2013-09-26 02:42:00,48.5,46.3,30.00,NNW,328,0.0,4.0,92,0.00,,---,0.00,VWS V14.01,2013-09-26 06:42:00,
2013-09-26 02:43:00,48.4,46.2,30.00,ESE,108,0.0,3.0,92,0.00,,---,0.00,VWS V14.01,2013-09-26 06:43:00,
2013-09-26 02:44:00,48.4,46.2,30.00,WSW,245,0.0,3.0,92,0.00,,---,0.00,VWS V14.01,2013-09-26 06:44:00,
2013-09-26 02:45:00,48.4,46.2,30.00,West,262,0.0,2.0,92,0.00,,---,0.00,VWS V14.01,2013-09-26 06:45:00,
2013-09-26 02:46:00,48.3,46.1,30.00,NE,39,0.0,2.0,92,0.00,,---,0.00,VWS V14.01,2013-09-26 06:46:00,
2013-09-26 02:47:00,49.6,46.8,30.00,ENE,58,0.0,9.0,90,0.00,,---,0.00,VWS V14.01,2013-09-26 06:47:00,
2013-09-26 02:48:00,48.2,46.0,30.00,SSE,148,0.0,2.0,92,0.00,,---,0.00,VWS V14.01,2013-09-26 06:48:00,
2013-09-26 02:49:00,48.1,45.9,30.00,SSE,148,0.0,2.0,92,0.00,,---,0.00,VWS V14.01,2013-09-26 06:49:00,
2013-09-26 02:50:00,48.0,45.8,30.00,SSE,148,0.0,2.0,92,0.00,,---,0.00,VWS V14.01,2013-09-26 06:50:00,
2013-09-26 02:51:00,48.0,45.8,30.00,SSE,148,0.0,1.0,92,0.00,,---,0.00,VWS V14.01,2013-09-26 06:51:00,
2013-09-26 02:52:00,49.4,46.6,30.00,East,87,1.0,6.0,90,0.00,,---,0.00,VWS V14.01,2013-09-26 06:52:00,
2013-09-26 02:53:00,47.9,45.7,30.00,NE,43,1.0,3.0,92,0.00,,---,0.00,VWS V14.01,2013-09-26 06:53:00,
2013-09-26 02:54:00,47.8,45.6,30.00,East,82,0.0,3.0,92,0.00,,---,0.00,VWS V14.01,2013-09-26 06:54:00,
2013-09-26 02:55:00,47.7,45.5,30.00,East,82,0.0,3.0,92,0.00,,---,0.00,VWS V14.01,2013-09-26 06:55:00,
2013-09-26 02:56:00,47.7,45.8,30.00,ESE,107,1.0,3.0,93,0.00,,---,0.00,VWS V14.01,2013-09-26 06:56:00,
2013-09-26 02:57:00,49.3,46.5,30.00,NNE,33,1.0,7.0,90,0.00,,---,0.00,VWS V14.01,2013-09-26 06:57:00,
2013-09-26 02:58:00,47.6,45.7,30.00,North,6,0.0,2.0,93,0.00,,---,0.00,VWS V14.01,2013-09-26 06:58:00,
2013-09-26 02:59:00,47.5,45.6,30.00,North,6,0.0,2.0,93,0.00,,---,0.00,VWS V14.01,2013-09-26 06:59:00,
2013-09-26 03:00:00,47.5,45.6,30.00,ESE,111,2.0,2.0,93,0.00,,---,0.00,VWS V14.01,2013-09-26 07:00:00,
2013-09-26 03:01:00,47.4,45.5,30.00,North,356,0.0,2.0,93,0.00,,---,0.00,VWS V14.01,2013-09-26 07:01:00,
2013-09-26 03:02:00,49.1,46.6,30.00,ENE,67,4.0,9.0,91,0.00,,---,0.00,VWS V14.01,2013-09-26 07:02:00,
2013-09-26 03:03:00,47.3,45.4,30.00,East,79,1.0,2.0,93,0.00,,---,0.00,VWS V14.01,2013-09-26 07:03:00,
2013-09-26 03:04:00,47.2,45.3,30.00,NE,44,1.0,2.0,93,0.00,,---,0.00,VWS V14.01,2013-09-26 07:04:00,
2013-09-26 03:05:00,47.2,45.3,30.00,ESE,106,0.0,2.0,93,0.00,,---,0.00,VWS V14.01,2013-09-26 07:05:00,
2013-09-26 03:06:00,47.1,45.2,30.00,ESE,106,0.0,2.0,93,0.00,,---,0.00,VWS V14.01,2013-09-26 07:06:00,
2013-09-26 03:07:00,47.1,45.2,30.00,East,82,0.0,2.0,93,0.00,,---,0.00,VWS V14.01,2013-09-26 07:07:00,
2013-09-26 03:08:00,48.9,46.4,30.00,NE,36,2.0,5.0,91,0.00,,---,0.00,VWS V14.01,2013-09-26 07:08:00,
2013-09-26 03:09:00,47.0,45.1,30.00,NE,53,1.0,3.0,93,0.00,,---,0.00,VWS V14.01,2013-09-26 07:09:00,
2013-09-26 03:10:00,46.9,45.0,30.00,NNE,22,2.0,3.0,93,0.00,,---,0.00,VWS V14.01,2013-09-26 07:10:00,
2013-09-26 03:11:00,46.9,45.0,30.00,NW,324,1.0,3.0,93,0.00,,---,0.00,VWS V14.01,2013-09-26 07:11:00,
2013-09-26 03:12:00,46.8,44.9,30.00,North,6,2.0,5.0,93,0.00,,---,0.00,VWS V14.01,2013-09-26 07:12:00,
2013-09-26 03:13:00,48.8,46.3,30.00,NE,46,1.0,4.0,91,0.00,,---,0.00,VWS V14.01,2013-09-26 07:13:00,
2013-09-26 03:14:00,46.8,45.2,30.00,ENE,60,4.0,5.0,94,0.00,,---,0.00,VWS V14.01,2013-09-26 07:14:00,
2013-09-26 03:15:00,46.8,45.2,30.00,North,352,1.0,5.0,94,0.00,,---,0.00,VWS V14.01,2013-09-26 07:15:00,
2013-09-26 03:16:00,46.8,45.2,30.00,NNE,17,0.0,5.0,94,0.00,,---,0.00,VWS V14.01,2013-09-26 07:16:00,
2013-09-26 03:17:00,46.7,45.1,30.00,ENE,65,2.0,5.0,94,0.00,,---,0.00,VWS V14.01,2013-09-26 07:17:00,
2013-09-26 03:18:00,48.6,46.4,30.00,ENE,64,1.0,5.0,92,0.00,,---,0.00,VWS V14.01,2013-09-26 07:18:00,
2013-09-26 03:19:00,46.7,45.1,30.00,NNE,29,2.0,8.0,94,0.00,,---,0.00,VWS V14.01,2013-09-26 07:19:00,
2013-09-26 03:20:00,46.7,45.1,30.00,East,79,5.0,8.0,94,0.00,,---,0.00,VWS V14.01,2013-09-26 07:20:00,
2013-09-26 03:21:00,46.7,45.1,30.00,NNW,338,2.0,8.0,94,0.00,,---,0.00,VWS V14.01,2013-09-26 07:21:00,
2013-09-26 03:22:00,46.6,45.0,30.00,North,8,2.0,8.0,94,0.00,,---,0.00,VWS V14.01,2013-09-26 07:22:00,
2013-09-26 03:23:00,48.5,46.3,30.00,NNW,328,0.0,4.0,92,0.00,,---,0.00,VWS V14.01,2013-09-26 07:23:00,
2013-09-26 03:24:00,46.6,45.0,30.00,NE,36,3.0,6.0,94,0.00,,---,0.00,VWS V14.01,2013-09-26 07:24:00,
2013-09-26 03:25:00,46.6,45.0,30.00,North,9,2.0,6.0,94,0.00,,---,0.00,VWS V14.01,2013-09-26 07:25:00,
2013-09-26 03:26:00,46.6,45.0,30.00,ESE,108,3.0,6.0,94,0.00,,---,0.00,VWS V14.01,2013-09-26 07:26:00,
2013-09-26 03:27:00,46.5,44.9,30.00,NNE,30,4.0,6.0,94,0.00,,---,0.00,VWS V14.01,2013-09-26 07:27:00,
2013-09-26 03:28:00,46.5,44.9,30.00,NNE,32,0.0,6.0,94,0.00,,---,0.00,VWS V14.01,2013-09-26 07:28:00,
2013-09-26 03:29:00,48.2,46.0,30.00,SSE,148,0.0,2.0,92,0.00,,---,0.00,VWS V14.01,2013-09-26 07:29:00,
2013-09-26 03:30:00,46.5,44.9,30.00,East,101,3.0,6.0,94,0.00,,---,0.00,VWS V14.01,2013-09-26 07:30:00,
2013-09-26 03:31:00,46.5,44.9,30.00,North,9,0.0,6.0,94,0.00,,---,0.00,VWS V14.01,2013-09-26 07:31:00,
2013-09-26 03:32:00,46.4,44.8,30.00,North,5,6.0,6.0,94,0.00,,---,0.00,VWS V14.01,2013-09-26 07:32:00,
2013-09-26 03:33:00,46.4,44.8,30.00,East,90,2.0,6.0,94,0.00,,---,0.00,VWS V14.01,2013-09-26 07:33:00,
2013-09-26 03:34:00,46.4,44.8,30.00,NE,52,3.0,6.0,94,0.00,,---,0.00,VWS V14.01,2013-09-26 07:34:00,
2013-09-26 03:35:00,47.8,45.6,30.00,East,82,0.0,3.0,92,0.00,,---,0.00,VWS V14.01,2013-09-26 07:35:00,
2013-09-26 03:36:00,46.3,44.7,30.00,NE,51,4.0,6.0,94,0.00,,---,0.00,VWS V14.01,2013-09-26 07:36:00,
2013-09-26 03:37:00,46.3,44.7,30.00,NNE,29,2.0,8.0,94,0.00,,---,0.00,VWS V14.01,2013-09-26 07:37:00,
2013-09-26 03:38:00,46.3,44.7,30.00,NW,319,4.0,8.0,94,0.00,,---,0.00,VWS V14.01,2013-09-26 07:38:00,
2013-09-26 03:39:00,46.3,44.7,30.00,NNW,336,3.0,8.0,94,0.00,,---,0.00,VWS V14.01,2013-09-26 07:39:00,
2013-09-26 03:40:00,47.5,45.6,30.00,North,6,0.0,2.0,93,0.00,,---,0.00,VWS V14.01,2013-09-26 07:40:00,
2013-09-26 03:41:00,46.2,44.6,30.00,NW,319,3.0,8.0,94,0.00,,---,0.00,VWS V14.01,2013-09-26 07:41:00,
2013-09-26 03:42:00,46.2,44.6,30.00,NNW,342,2.0,5.0,94,0.00,,---,0.00,VWS V14.01,2013-09-26 07:42:00,
2013-09-26 03:43:00,46.1,44.5,30.00,NNE,22,3.0,5.0,94,0.00,,---,0.00,VWS V14.01,2013-09-26 07:43:00,
2013-09-26 03:44:00,46.1,44.5,30.00,NW,319,3.0,6.0,94,0.00,,---,0.00,VWS V14.01,2013-09-26 07:44:00,
2013-09-26 03:45:00,47.2,45.3,30.00,NE,44,1.0,2.0,93,0.00,,---,0.00,VWS V14.01,2013-09-26 07:45:00,
2013-09-26 03:46:00,46.1,44.8,30.00,North,359,2.0,6.0,95,0.00,,---,0.00,VWS V14.01,2013-09-26 07:46:00,
2013-09-26 03:47:00,46.1,44.8,30.00,North,9,2.0,6.0,95,0.00,,---,0.00,VWS V14.01,2013-09-26 07:47:00,
2013-09-26 03:48:00,46.0,44.7,30.00,NNE,31,5.0,6.0,95,0.00,,---,0.00,VWS V14.01,2013-09-26 07:48:00,
2013-09-26 03:49:00,46.0,44.7,30.00,NNW,331,4.0,5.0,95,0.00,,---,0.00,VWS V14.01,2013-09-26 07:49:00,
2013-09-26 03:50:00,47.0,45.1,30.00,NE,53,1.0,3.0,93,0.00,,---,0.00,VWS V14.01,2013-09-26 07:50:00,
2013-09-26 03:51:00,46.0,44.7,30.01,NNW,328,1.0,7.0,95,0.00,,---,0.00,VWS V14.01,2013-09-26 07:51:00,
2013-09-26 03:52:00,46.0,44.7,30.00,North,5,4.0,7.0,95,0.00,,---,0.00,VWS V14.01,2013-09-26 07:52:00,
2013-09-26 03:53:00,46.0,44.7,30.00,North,356,1.0,7.0,95,0.00,,---,0.00,VWS V14.01,2013-09-26 07:53:00,
2013-09-26 03:54:00,45.9,44.5,30.00,NE,36,4.0,7.0,95,0.00,,---,0.00,VWS V14.01,2013-09-26 07:54:00,
2013-09-26 03:55:00,46.8,45.2,30.00,ENE,60,4.0,5.0,94,0.00,,---,0.00,VWS V14.01,2013-09-26 07:55:00,
2013-09-26 03:56:00,45.9,44.5,30.00,NNE,33,5.0,7.0,95,0.00,,---,0.00,VWS V14.01,2013-09-26 07:56:00,
2013-09-26 03:57:00,45.9,44.5,30.01,NE,47,3.0,7.0,95,0.00,,---,0.00,VWS V14.01,2013-09-26 07:57:00,
2013-09-26 03:58:00,45.9,44.5,30.01,North,359,4.0,7.0,95,0.00,,---,0.00,VWS V14.01,2013-09-26 07:58:00,
2013-09-26 03:59:00,45.9,44.5,30.00,NNE,15,2.0,6.0,95,0.00,,---,0.00,VWS V14.01,2013-09-26 07:59:00,
2013-09-26 04:00:00,46.7,45.1,30.00,NNE,29,2.0,8.0,94,0.00,,---,0.00,VWS V14.01,2013-09-26 08:00:00,
2013-09-26 04:01:00,45.9,44.5,30.01,NE,48,0.0,6.0,95,0.00,,---,0.00,VWS V14.01,2013-09-26 08:01:00,
2013-09-26 04:02:00,45.9,44.5,30.01,North,5,3.0,6.0,95,0.00,,---,0.00,VWS V14.01,2013-09-26 08:02:00,
2013-09-26 04:03:00,45.9,44.5,30.01,NNE,25,2.0,6.0,95,0.00,,---,0.00,VWS V14.01,2013-09-26 08:03:00,
2013-09-26 04:04:00,45.9,44.5,30.01,North,358,3.0,6.0,95,0.00,,---,0.00,VWS V14.01,2013-09-26 08:04:00,
2013-09-26 04:05:00,46.6,45.0,30.00,NE,36,3.0,6.0,94,0.00,,---,0.00,VWS V14.01,2013-09-26 08:05:00,
2013-09-26 04:06:00,45.9,44.5,30.01,North,11,2.0,6.0,95,0.00,,---,0.00,VWS V14.01,2013-09-26 08:06:00,
2013-09-26 04:07:00,45.9,44.5,30.01,North,1,1.0,6.0,95,0.00,,---,0.00,VWS V14.01,2013-09-26 08:07:00,
2013-09-26 04:08:00,45.9,44.5,30.01,NNE,30,2.0,5.0,95,0.00,,---,0.00,VWS V14.01,2013-09-26 08:08:00,
2013-09-26 04:09:00,45.9,44.5,30.01,North,350,5.0,8.0,95,0.00,,---,0.00,VWS V14.01,2013-09-26 08:09:00,
2013-09-26 04:10:00,46.5,44.9,30.00,NNE,23,3.0,6.0,94,0.00,,---,0.00,VWS V14.01,2013-09-26 08:10:00,
2013-09-26 04:11:00,45.9,44.5,30.01,NW,314,1.0,8.0,95,0.00,,---,0.00,VWS V14.01,2013-09-26 08:11:00,
2013-09-26 04:12:00,45.9,44.5,30.01,North,352,0.0,8.0,95,0.00,,---,0.00,VWS V14.01,2013-09-26 08:12:00,
2013-09-26 04:13:00,45.9,44.5,30.01,North,352,0.0,8.0,95,0.00,,---,0.00,VWS V14.01,2013-09-26 08:13:00,
2013-09-26 04:14:00,45.9,44.5,30.01,NNW,346,2.0,5.0,95,0.00,,---,0.00,VWS V14.01,2013-09-26 08:14:00,
2013-09-26 04:15:00,46.4,44.8,30.00,NE,52,3.0,6.0,94,0.00,,---,0.00,VWS V14.01,2013-09-26 08:15:00,
2013-09-26 04:16:00,45.9,44.5,30.01,NNE,13,1.0,4.0,95,0.00,,---,0.00,VWS V14.01,2013-09-26 08:16:00,
2013-09-26 04:17:00,45.8,44.5,30.01,NNE,30,2.0,4.0,95,0.00,,---,0.00,VWS V14.01,2013-09-26 08:17:00,
2013-09-26 04:18:00,45.8,44.5,30.01,NNW,344,1.0,4.0,95,0.00,,---,0.00,VWS V14.01,2013-09-26 08:18:00,
2013-09-26 04:19:00,45.8,44.5,30.01,NNW,341,1.0,4.0,95,0.00,,---,0.00,VWS V14.01,2013-09-26 08:19:00,
2013-09-26 04:20:00,45.8,44.5,30.01,NW,319,0.0,4.0,95,0.00,,---,0.00,VWS V14.01,2013-09-26 08:20:00,
2013-09-26 04:21:00,46.3,44.7,30.00,NNE,22,3.0,8.0,94,0.00,,---,0.00,VWS V14.01,2013-09-26 08:21:00,
2013-09-26 04:22:00,45.7,44.3,30.01,NNW,332,0.0,4.0,95,0.00,,---,0.00,VWS V14.01,2013-09-26 08:22:00,
2013-09-26 04:23:00,45.7,44.3,30.01,NNW,339,2.0,3.0,95,0.00,,---,0.00,VWS V14.01,2013-09-26 08:23:00,
2013-09-26 04:24:00,45.7,44.3,30.01,NW,319,3.0,3.0,95,0.00,,---,0.00,VWS V14.01,2013-09-26 08:24:00,
2013-09-26 04:25:00,45.7,44.3,30.01,NNE,18,2.0,3.0,95,0.00,,---,0.00,VWS V14.01,2013-09-26 08:25:00,
2013-09-26 04:26:00,46.1,44.8,30.00,NE,43,1.0,6.0,95,0.00,,---,0.00,VWS V14.01,2013-09-26 08:26:00,
2013-09-26 04:27:00,45.6,44.5,30.01,NNW,348,1.0,4.0,96,0.00,,---,0.00,VWS V14.01,2013-09-26 08:27:00,
2013-09-26 04:28:00,45.6,44.5,30.01,NW,322,1.0,4.0,96,0.00,,---,0.00,VWS V14.01,2013-09-26 08:28:00,
2013-09-26 04:29:00,45.7,44.6,30.01,North,359,2.0,5.0,96,0.00,,---,0.00,VWS V14.01,2013-09-26 08:29:00,
2013-09-26 04:30:00,45.7,44.6,30.01,NW,319,0.0,5.0,96,0.00,,---,0.00,VWS V14.01,2013-09-26 08:30:00,
2013-09-26 04:31:00,46.0,44.7,30.01,NNE,20,3.0,7.0,95,0.00,,---,0.00,VWS V14.01,2013-09-26 08:31:00,
2013-09-26 04:32:00,45.6,44.5,30.01,North,6,0.0,5.0,96,0.00,,---,0.00,VWS V14.01,2013-09-26 08:32:00,
2013-09-26 04:33:00,45.6,44.5,30.01,North,6,0.0,5.0,96,0.00,,---,0.00,VWS V14.01,2013-09-26 08:33:00,
2013-09-26 04:34:00,45.5,44.4,30.01,North,6,0.0,2.0,96,0.00,,---,0.00,VWS V14.01,2013-09-26 08:34:00,
2013-09-26 04:35:00,45.5,44.2,30.01,North,6,0.0,2.0,95,0.00,,---,0.00,VWS V14.01,2013-09-26 08:35:00,
2013-09-26 04:36:00,46.0,44.7,30.01,NE,53,1.0,7.0,95,0.00,,---,0.00,VWS V14.01,2013-09-26 08:36:00,
2013-09-26 04:37:00,45.3,44.2,30.01,West,264,0.0,2.0,96,0.00,,---,0.00,VWS V14.01,2013-09-26 08:37:00,
2013-09-26 04:38:00,45.3,44.2,30.01,WNW,283,0.0,2.0,96,0.00,,---,0.00,VWS V14.01,2013-09-26 08:38:00,
2013-09-26 04:39:00,45.3,44.2,30.01,NW,312,2.0,2.0,96,0.00,,---,0.00,VWS V14.01,2013-09-26 08:39:00,
2013-09-26 04:40:00,45.3,44.2,30.01,NW,308,2.0,3.0,96,0.00,,---,0.00,VWS V14.01,2013-09-26 08:40:00,
2013-09-26 04:41:00,46.0,44.7,30.01,North,349,3.0,6.0,95,0.00,,---,0.00,VWS V14.01,2013-09-26 08:41:00,
2013-09-26 04:42:00,45.2,44.1,30.01,WNW,288,0.0,3.0,96,0.00,,---,0.00,VWS V14.01,2013-09-26 08:42:00,
2013-09-26 04:43:00,45.2,44.1,30.01,WNW,282,1.0,3.0,96,0.00,,---,0.00,VWS V14.01,2013-09-26 08:43:00,
2013-09-26 04:44:00,45.1,44.0,30.01,WNW,283,0.0,3.0,96,0.00,,---,0.00,VWS V14.01,2013-09-26 08:44:00,
2013-09-26 04:45:00,45.1,44.0,30.01,NNW,335,1.0,1.0,96,0.00,,---,0.00,VWS V14.01,2013-09-26 08:45:00,
2013-09-26 04:46:00,45.9,44.5,30.01,NE,39,2.0,6.0,95,0.00,,---,0.00,VWS V14.01,2013-09-26 08:46:00,
2013-09-26 04:47:00,45.0,43.9,30.01,NNW,333,1.0,1.0,96,0.00,,---,0.00,VWS V14.01,2013-09-26 08:47:00,
2013-09-26 04:48:00,45.0,43.9,30.01,NNE,23,0.0,5.0,96,0.00,,---,0.00,VWS V14.01,2013-09-26 08:48:00,
2013-09-26 04:49:00,45.0,43.9,30.01,NNE,23,0.0,5.0,96,0.00,,---,0.00,VWS V14.01,2013-09-26 08:49:00,
2013-09-26 04:50:00,45.0,43.9,30.01,NNE,16,0.0,5.0,96,0.00,,---,0.00,VWS V14.01,2013-09-26 08:50:00,
2013-09-26 04:51:00,45.9,44.5,30.01,NE,44,1.0,8.0,95,0.00,,---,0.00,VWS V14.01,2013-09-26 08:51:00,
2013-09-26 04:52:00,45.0,43.9,30.01,North,11,0.0,5.0,96,0.00,,---,0.00,VWS V14.01,2013-09-26 08:52:00,
2013-09-26 04:53:00,45.0,43.9,30.01,NE,44,0.0,2.0,96,0.00,,---,0.00,VWS V14.01,2013-09-26 08:53:00,
2013-09-26 04:54:00,45.0,43.9,30.01,WNW,295,1.0,2.0,96,0.00,,---,0.00,VWS V14.01,2013-09-26 08:54:00,
2013-09-26 04:55:00,45.1,44.0,30.01,WNW,295,0.0,2.0,96,0.00,,---,0.00,VWS V14.01,2013-09-26 08:55:00,
2013-09-26 04:56:00,45.9,44.5,30.01,NW,320,0.0,4.0,95,0.00,,---,0.00,VWS V14.01,2013-09-26 08:56:00,
2013-09-26 04:57:00,45.1,44.0,30.01,NW,326,1.0,3.0,96,0.00,,---,0.00,VWS V14.01,2013-09-26 08:57:00,
2013-09-26 04:58:00,45.1,44.0,30.01,NW,322,0.0,3.0,96,0.00,,---,0.00,VWS V14.01,2013-09-26 08:58:00,
2013-09-26 04:59:00,45.1,44.0,30.01,West,274,0.0,3.0,96,0.00,,---,0.00,VWS V14.01,2013-09-26 08:59:00,
2013-09-26 05:00:00,45.2,44.1,30.01,NW,315,0.0,3.0,96,0.00,,---,0.00,VWS V14.01,2013-09-26 09:00:00,
2013-09-26 05:01:00,45.8,44.5,30.01,NW,319,0.0,4.0,95,0.00,,---,0.00,VWS V14.01,2013-09-26 09:01:00,
2013-09-26 05:02:00,45.2,44.1,30.01,North,8,4.0,4.0,96,0.00,,---,0.00,VWS V14.01,2013-09-26 09:02:00,
2013-09-26 05:03:00,45.2,44.1,30.01,NNE,23,2.0,4.0,96,0.00,,---,0.00,VWS V14.01,2013-09-26 09:03:00,
2013-09-26 05:04:00,45.3,44.5,30.01,NNE,19,0.0,4.0,97,0.00,,---,0.00,VWS V14.01,2013-09-26 09:04:00,
2013-09-26 05:05:00,45.3,44.5,30.01,North,350,1.0,4.0,97,0.00,,---,0.00,VWS V14.01,2013-09-26 09:05:00,
2013-09-26 05:06:00,45.4,44.6,30.01,NW,326,3.0,6.0,97,0.00,,---,0.00,VWS V14.01,2013-09-26 09:06:00,
2013-09-26 05:07:00,45.7,44.6,30.01,NNW,342,3.0,4.0,96,0.00,,---,0.00,VWS V14.01,2013-09-26 09:07:00,
2013-09-26 05:08:00,45.5,44.7,30.01,North,6,8.0,8.0,97,0.00,,---,0.00,VWS V14.01,2013-09-26 09:08:00,
2013-09-26 05:09:00,45.5,44.7,30.01,NNE,15,3.0,8.0,97,0.00,,---,0.00,VWS V14.01,2013-09-26 09:09:00,
2013-09-26 05:10:00,45.6,44.8,30.01,NNW,342,2.0,8.0,97,0.00,,---,0.00,VWS V14.01,2013-09-26 09:10:00,
2013-09-26 05:11:00,45.6,44.8,30.01,NNW,342,2.0,8.0,97,0.00,,---,0.00,VWS V14.01,2013-09-26 09:11:00,
2013-09-26 05:12:00,45.6,44.5,30.01,North,6,1.0,5.0,96,0.00,,---,0.00,VWS V14.01,2013-09-26 09:12:00,
2013-09-26 05:13:00,45.6,44.8,30.02,NNE,12,5.0,8.0,97,0.00,,---,0.00,VWS V14.01,2013-09-26 09:13:00,
2013-09-26 05:14:00,45.7,44.9,30.02,NNE,30,1.0,6.0,97,0.00,,---,0.00,VWS V14.01,2013-09-26 09:14:00,
2013-09-26 05:15:00,45.7,44.9,30.02,NW,307,1.0,6.0,97,0.00,,---,0.00,VWS V14.01,2013-09-26 09:15:00,
2013-09-26 05:16:00,45.6,44.8,30.02,NNE,19,3.0,6.0,97,0.00,,---,0.00,VWS V14.01,2013-09-26 09:16:00,
2013-09-26 05:17:00,45.4,44.0,30.01,NW,321,0.0,2.0,95,0.00,,---,0.00,VWS V14.01,2013-09-26 09:17:00,
2013-09-26 05:18:00,45.6,44.5,30.02,NNW,346,0.0,5.0,96,0.00,,---,0.00,VWS V14.01,2013-09-26 09:18:00,
2013-09-26 05:19:00,45.6,44.5,30.02,North,349,4.0,5.0,96,0.00,,---,0.00,VWS V14.01,2013-09-26 09:19:00,
2013-09-26 05:20:00,45.6,44.5,30.02,North,356,4.0,7.0,96,0.00,,---,0.00,VWS V14.01,2013-09-26 09:20:00,
2013-09-26 05:21:00,45.6,44.5,30.02,NNW,336,2.0,7.0,96,0.00,,---,0.00,VWS V14.01,2013-09-26 09:21:00,
2013-09-26 05:22:00,45.2,44.1,30.01,WNW,286,1.0,3.0,96,0.00,,---,0.00,VWS V14.01,2013-09-26 09:22:00,
2013-09-26 05:23:00,45.6,44.5,30.02,NW,317,2.0,7.0,96,0.00,,---,0.00,VWS V14.01,2013-09-26 09:23:00,
2013-09-26 05:24:00,45.5,44.4,30.02,NNW,344,3.0,7.0,96,0.00,,---,0.00,VWS V14.01,2013-09-26 09:24:00,
2013-09-26 05:25:00,45.5,44.4,30.02,NNW,330,2.0,6.0,96,0.00,,---,0.00,VWS V14.01,2013-09-26 09:25:00,
2013-09-26 05:26:00,45.5,44.4,30.02,NNW,328,2.0,7.0,96,0.00,,---,0.00,VWS V14.01,2013-09-26 09:26:00,
2013-09-26 05:27:00,45.1,44.0,30.01,NNW,334,0.0,1.0,96,0.00,,---,0.00,VWS V14.01,2013-09-26 09:27:00,
2013-09-26 05:28:00,45.4,44.3,30.02,NW,316,1.0,7.0,96,0.00,,---,0.00,VWS V14.01,2013-09-26 09:28:00,
2013-09-26 05:29:00,45.4,44.3,30.02,NW,322,3.0,7.0,96,0.00,,---,0.00,VWS V14.01,2013-09-26 09:29:00,
2013-09-26 05:30:00,45.4,44.3,30.02,NW,322,2.0,7.0,96,0.00,,---,0.00,VWS V14.01,2013-09-26 09:30:00,
2013-09-26 05:31:00,45.4,44.3,30.02,NW,323,3.0,6.0,96,0.00,,---,0.00,VWS V14.01,2013-09-26 09:31:00,
2013-09-26 05:32:00,45.0,43.9,30.01,NNE,13,0.0,5.0,96,0.00,,---,0.00,VWS V14.01,2013-09-26 09:32:00,
2013-09-26 05:33:00,45.3,44.2,30.02,North,352,0.0,6.0,96,0.00,,---,0.00,VWS V14.01,2013-09-26 09:33:00,
2013-09-26 05:34:00,45.3,44.2,30.02,NW,304,1.0,4.0,96,0.00,,---,0.00,VWS V14.01,2013-09-26 09:34:00,
2013-09-26 05:35:00,45.2,44.1,30.02,NW,326,2.0,4.0,96,0.00,,---,0.00,VWS V14.01,2013-09-26 09:35:00,
2013-09-26 05:36:00,45.2,44.1,30.02,WNW,298,5.0,6.0,96,0.00,,---,0.00,VWS V14.01,2013-09-26 09:36:00,
2013-09-26 05:37:00,45.1,44.0,30.01,NNE,20,2.0,2.0,96,0.00,,---,0.00,VWS V14.01,2013-09-26 09:37:00,
2013-09-26 05:38:00,45.2,44.1,30.02,NNW,330,4.0,7.0,96,0.00,,---,0.00,VWS V14.01,2013-09-26 09:38:00,
2013-09-26 05:39:00,45.2,44.1,30.02,NW,324,2.0,7.0,96,0.00,,---,0.00,VWS V14.01,2013-09-26 09:39:00,
2013-09-26 05:40:00,45.1,44.0,30.02,NNW,335,3.0,7.0,96,0.00,,---,0.00,VWS V14.01,2013-09-26 09:40:00,
2013-09-26 05:41:00,45.1,44.0,30.02,NW,321,1.0,7.0,96,0.00,,---,0.00,VWS V14.01,2013-09-26 09:41:00,
2013-09-26 05:42:00,45.2,44.1,30.01,NW,314,0.0,3.0,96,0.00,,---,0.00,VWS V14.01,2013-09-26 09:42:00,
2013-09-26 05:43:00,45.0,43.9,30.02,NW,319,1.0,5.0,96,0.00,,---,0.00,VWS V14.01,2013-09-26 09:43:00,
2013-09-26 05:44:00,44.9,43.8,30.02,WNW,283,1.0,5.0,96,0.00,,---,0.00,VWS V14.01,2013-09-26 09:44:00,
2013-09-26 05:45:00,44.9,43.8,30.02,NW,319,3.0,3.0,96,0.00,,---,0.00,VWS V14.01,2013-09-26 09:45:00,
2013-09-26 05:46:00,44.8,43.7,30.02,NW,307,2.0,3.0,96,0.00,,---,0.00,VWS V14.01,2013-09-26 09:46:00,
2013-09-26 05:47:00,45.4,44.6,30.01,NW,326,3.0,6.0,97,0.00,,---,0.00,VWS V14.01,2013-09-26 09:47:00,
2013-09-26 05:48:00,44.7,43.6,30.02,NW,314,2.0,3.0,96,0.00,,---,0.00,VWS V14.01,2013-09-26 09:48:00,
2013-09-26 05:49:00,44.7,43.6,30.02,NW,325,2.0,3.0,96,0.00,,---,0.00,VWS V14.01,2013-09-26 09:49:00,
2013-09-26 05:50:00,44.6,43.5,30.02,WNW,297,3.0,4.0,96,0.00,,---,0.00,VWS V14.01,2013-09-26 09:50:00,
2013-09-26 05:51:00,44.6,43.5,30.02,NW,324,1.0,4.0,96,0.00,,---,0.00,VWS V14.01,2013-09-26 09:51:00,
2013-09-26 05:52:00,45.6,44.8,30.01,NNW,342,2.0,8.0,97,0.00,,---,0.00,VWS V14.01,2013-09-26 09:52:00,
2013-09-26 05:53:00,44.5,43.4,30.02,NW,314,0.0,4.0,96,0.00,,---,0.00,VWS V14.01,2013-09-26 09:53:00,
2013-09-26 05:54:00,44.5,43.4,30.02,NW,315,0.0,4.0,96,0.00,,---,0.00,VWS V14.01,2013-09-26 09:54:00,
2013-09-26 05:55:00,44.4,43.3,30.02,NW,314,0.0,3.0,96,0.00,,---,0.00,VWS V14.01,2013-09-26 09:55:00,
2013-09-26 05:56:00,44.3,43.2,30.02,NW,314,2.0,2.0,96,0.00,,---,0.00,VWS V14.01,2013-09-26 09:56:00,
2013-09-26 05:57:00,45.6,44.8,30.02,NNE,19,3.0,6.0,97,0.00,,---,0.00,VWS V14.01,2013-09-26 09:57:00,
2013-09-26 05:58:00,44.2,43.1,30.02,NW,314,0.0,2.0,96,0.00,,---,0.00,VWS V14.01,2013-09-26 09:58:00,
2013-09-26 05:59:00,44.2,43.1,30.02,NW,322,1.0,2.0,96,0.00,,---,0.00,VWS V14.01,2013-09-26 09:59:00,
2013-09-26 06:00:00,44.2,43.1,30.02,NNW,332,1.0,2.0,96,0.00,,---,0.00,VWS V14.01,2013-09-26 10:00:00,
2013-09-26 06:01:00,44.2,43.1,30.02,NW,326,2.0,2.0,96,0.00,,---,0.00,VWS V14.01,2013-09-26 10:01:00,
2013-09-26 06:02:00,45.6,44.5,30.02,NNW,336,2.0,7.0,96,0.00,,---,0.00,VWS V14.01,2013-09-26 10:02:00,
2013-09-26 06:03:00,44.3,43.5,30.03,NW,319,2.0,3.0,97,0.00,,---,0.00,VWS V14.01,2013-09-26 10:03:00,
2013-09-26 06:04:00,44.3,43.5,30.03,NW,322,1.0,3.0,97,0.00,,---,0.00,VWS V14.01,2013-09-26 10:04:00,
2013-09-26 06:05:00,44.4,43.6,30.02,NNW,328,0.0,3.0,97,0.00,,---,0.00,VWS V14.01,2013-09-26 10:05:00,
2013-09-26 06:06:00,44.4,43.6,30.03,NW,318,2.0,3.0,97,0.00,,---,0.00,VWS V14.01,2013-09-26 10:06:00,
2013-09-26 06:07:00,45.5,44.4,30.02,NNW,328,2.0,7.0,96,0.00,,---,0.00,VWS V14.01,2013-09-26 10:07:00,
2013-09-26 06:08:00,44.5,43.7,30.03,NW,308,3.0,4.0,97,0.00,,---,0.00,VWS V14.01,2013-09-26 10:08:00,
2013-09-26 06:09:00,44.6,43.8,30.03,NW,319,1.0,4.0,97,0.00,,---,0.00,VWS V14.01,2013-09-26 10:09:00,
2013-09-26 06:10:00,44.6,43.8,30.03,WNW,297,3.0,4.0,97,0.00,,---,0.00,VWS V14.01,2013-09-26 10:10:00,
2013-09-26 06:11:00,44.6,43.8,30.03,North,8,2.0,5.0,97,0.00,,---,0.00,VWS V14.01,2013-09-26 10:11:00,
2013-09-26 06:12:00,45.4,44.3,30.02,NW,323,3.0,6.0,96,0.00,,---,0.00,VWS V14.01,2013-09-26 10:12:00,
2013-09-26 06:13:00,44.7,43.9,30.03,NNW,342,2.0,5.0,97,0.00,,---,0.00,VWS V14.01,2013-09-26 10:13:00,
2013-09-26 06:14:00,44.7,43.9,30.03,NW,321,1.0,5.0,97,0.00,,---,0.00,VWS V14.01,2013-09-26 10:14:00,
2013-09-26 06:15:00,44.7,43.9,30.03,NW,319,0.0,5.0,97,0.00,,---,0.00,VWS V14.01,2013-09-26 10:15:00,
2013-09-26 06:16:00,44.7,43.9,30.03,NNW,330,0.0,4.0,97,0.00,,---,0.00,VWS V14.01,2013-09-26 10:16:00,
2013-09-26 06:17:00,45.2,44.1,30.02,WNW,298,5.0,6.0,96,0.00,,---,0.00,VWS V14.01,2013-09-26 10:17:00,
2013-09-26 06:18:00,44.6,43.8,30.03,NNW,328,0.0,4.0,97,0.00,,---,0.00,VWS V14.01,2013-09-26 10:18:00,
2013-09-26 06:19:00,44.6,43.8,30.03,NW,321,2.0,4.0,97,0.00,,---,0.00,VWS V14.01,2013-09-26 10:19:00,
2013-09-26 06:20:00,44.6,43.8,30.03,NW,322,1.0,3.0,97,0.00,,---,0.00,VWS V14.01,2013-09-26 10:20:00,
2013-09-26 06:21:00,44.6,43.8,30.03,NW,322,1.0,3.0,97,0.00,,---,0.00,VWS V14.01,2013-09-26 10:21:00,
2013-09-26 06:22:00,45.1,44.0,30.02,NW,321,1.0,7.0,96,0.00,,---,0.00,VWS V14.01,2013-09-26 10:22:00,
2013-09-26 06:23:00,44.5,43.7,30.03,NW,315,2.0,3.0,97,0.00,,---,0.00,VWS V14.01,2013-09-26 10:23:00,
2013-09-26 06:24:00,44.5,43.7,30.03,WNW,295,3.0,3.0,97,0.00,,---,0.00,VWS V14.01,2013-09-26 10:24:00,
2013-09-26 06:25:00,44.5,43.7,30.03,NW,322,2.0,4.0,97,0.00,,---,0.00,VWS V14.01,2013-09-26 10:25:00,
2013-09-26 06:26:00,44.6,43.8,30.03,NNW,336,3.0,4.0,97,0.00,,---,0.00,VWS V14.01,2013-09-26 10:26:00,
2013-09-26 06:27:00,44.8,43.7,30.02,NW,307,2.0,3.0,96,0.00,,---,0.00,VWS V14.01,2013-09-26 10:27:00,
2013-09-26 06:28:00,44.6,43.8,30.03,NW,305,3.0,4.0,97,0.00,,---,0.00,VWS V14.01,2013-09-26 10:28:00,
2013-09-26 06:29:00,44.6,43.8,30.03,NW,308,3.0,6.0,97,0.00,,---,0.00,VWS V14.01,2013-09-26 10:29:00,
2013-09-26 06:30:00,44.6,43.8,30.03,NW,321,2.0,6.0,97,0.00,,---,0.00,VWS V14.01,2013-09-26 10:30:00,
2013-09-26 06:31:00,44.7,43.9,30.03,NNW,342,3.0,6.0,97,0.00,,---,0.00,VWS V14.01,2013-09-26 10:31:00,
2013-09-26 06:32:00,44.6,43.5,30.02,NW,324,1.0,4.0,96,0.00,,---,0.00,VWS V14.01,2013-09-26 10:32:00,
2013-09-26 06:33:00,44.8,44.0,30.03,NNW,338,2.0,6.0,97,0.00,,---,0.00,VWS V14.01,2013-09-26 10:33:00,
2013-09-26 06:34:00,44.8,44.0,30.03,NNW,332,2.0,4.0,97,0.00,,---,0.00,VWS V14.01,2013-09-26 10:34:00,
2013-09-26 06:35:00,44.9,44.1,30.03,NW,322,3.0,4.0,97,0.00,,---,0.00,VWS V14.01,2013-09-26 10:35:00,
2013-09-26 06:36:00,45.0,44.2,30.03,NNW,328,1.0,3.0,97,0.00,,---,0.00,VWS V14.01,2013-09-26 10:36:00,
2013-09-26 06:37:00,44.3,43.2,30.02,NW,314,2.0,2.0,96,0.00,,---,0.00,VWS V14.01,2013-09-26 10:37:00,
2013-09-26 06:38:00,45.1,44.3,30.03,NNW,330,2.0,4.0,97,0.00,,---,0.00,VWS V14.01,2013-09-26 10:38:00,
2013-09-26 06:39:00,45.1,44.3,30.03,NW,319,2.0,4.0,97,0.00,,---,0.00,VWS V14.01,2013-09-26 10:39:00,
2013-09-26 06:40:00,45.2,44.4,30.03,NW,326,2.0,4.0,97,0.00,,---,0.00,VWS V14.01,2013-09-26 10:40:00,
2013-09-26 06:41:00,45.3,44.5,30.03,NNW,330,2.0,4.0,97,0.00,,---,0.00,VWS V14.01,2013-09-26 10:41:00,
2013-09-26 06:42:00,44.2,43.1,30.02,NW,326,2.0,2.0,96,0.00,,---,0.00,VWS V14.01,2013-09-26 10:42:00,
2013-09-26 06:43:00,45.3,44.5,30.03,NNW,334,3.0,4.0,97,0.00,,---,0.00,VWS V14.01,2013-09-26 10:43:00,
2013-09-26 06:44:00,45.4,44.6,30.03,NNW,328,2.0,4.0,97,0.00,,---,0.00,VWS V14.01,2013-09-26 10:44:00,
2013-09-26 06:45:00,45.4,44.6,30.03,NW,325,1.0,4.0,97,0.00,,---,0.00,VWS V14.01,2013-09-26 10:45:00,
2013-09-26 06:46:00,45.5,44.4,30.03,NW,324,3.0,4.0,96,0.00,,---,0.00,VWS V14.01,2013-09-26 10:46:00,
2013-09-26 06:47:00,44.4,43.6,30.03,NW,318,2.0,3.0,97,0.00,,---,0.00,VWS V14.01,2013-09-26 10:47:00,
2013-09-26 06:48:00,45.5,44.7,30.03,NW,316,2.0,4.0,97,0.00,,---,0.00,VWS V14.01,2013-09-26 10:48:00,
2013-09-26 06:49:00,45.6,44.8,30.04,NW,314,3.0,4.0,97,0.00,,---,0.00,VWS V14.01,2013-09-26 10:49:00,
2013-09-26 06:50:00,45.6,44.8,30.04,NW,321,2.0,4.0,97,0.00,,---,0.00,VWS V14.01,2013-09-26 10:50:00,
2013-09-26 06:51:00,45.7,44.9,30.04,NNW,348,3.0,4.0,97,0.00,,---,0.00,VWS V14.01,2013-09-26 10:51:00,
2013-09-26 06:52:00,44.6,43.8,30.03,North,8,2.0,5.0,97,0.00,,---,0.00,VWS V14.01,2013-09-26 10:52:00,
2013-09-26 06:53:00,45.8,45.0,30.04,NW,318,1.0,4.0,97,0.00,,---,0.00,VWS V14.01,2013-09-26 10:53:00,
2013-09-26 06:54:00,45.8,45.0,30.04,NNW,347,5.0,5.0,97,0.00,,---,0.00,VWS V14.01,2013-09-26 10:54:00,
2013-09-26 06:55:00,45.9,45.1,30.04,North,5,1.0,5.0,97,0.00,,---,0.00,VWS V14.01,2013-09-26 10:55:00,
2013-09-26 06:56:00,45.9,44.8,30.04,NW,322,3.0,5.0,96,0.00,,---,0.00,VWS V14.01,2013-09-26 10:56:00,
2013-09-26 06:57:00,44.7,43.9,30.03,NNW,330,0.0,4.0,97,0.00,,---,0.00,VWS V14.01,2013-09-26 10:57:00,
2013-09-26 06:58:00,46.0,44.9,30.04,North,1,2.0,5.0,96,0.00,,---,0.00,VWS V14.01,2013-09-26 10:58:00,
2013-09-26 06:59:00,46.0,44.9,30.04,WNW,300,1.0,4.0,96,0.00,,---,0.00,VWS V14.01,2013-09-26 10:59:00,
2013-09-26 07:00:00,46.0,44.9,30.04,NNW,347,0.0,4.0,96,0.00,,---,0.00,VWS V14.01,2013-09-26 11:00:00,
2013-09-26 07:01:00,46.0,44.9,30.04,NW,322,3.0,4.0,96,0.00,,---,0.00,VWS V14.01,2013-09-26 11:01:00,
2013-09-26 07:02:00,44.6,43.8,30.03,NW,322,1.0,3.0,97,0.00,,---,0.00,VWS V14.01,2013-09-26 11:02:00,
2013-09-26 07:03:00,46.0,44.9,30.04,NW,321,4.0,4.0,96,0.00,,---,0.00,VWS V14.01,2013-09-26 11:03:00,
2013-09-26 07:04:00,46.0,44.9,30.04,North,358,6.0,6.0,96,0.00,,---,0.00,VWS V14.01,2013-09-26 11:04:00,
2013-09-26 07:05:00,46.0,44.9,30.04,NNW,335,3.0,6.0,96,0.00,,---,0.00,VWS V14.01,2013-09-26 11:05:00,
2013-09-26 07:06:00,46.0,44.9,30.04,WNW,301,4.0,6.0,96,0.00,,---,0.00,VWS V14.01,2013-09-26 11:06:00,
2013-09-26 07:07:00,44.6,43.8,30.03,NNW,336,3.0,4.0,97,0.00,,---,0.00,VWS V14.01,2013-09-26 11:07:00,
2013-09-26 07:08:00,46.0,44.9,30.04,NW,311,5.0,6.0,96,0.00,,---,0.00,VWS V14.01,2013-09-26 11:08:00,
2013-09-26 07:09:00,46.0,44.9,30.04,North,352,4.0,6.0,96,0.00,,---,0.00,VWS V14.01,2013-09-26 11:09:00,
2013-09-26 07:10:00,46.0,44.9,30.04,North,1,5.0,6.0,96,0.00,,---,0.00,VWS V14.01,2013-09-26 11:10:00,
2013-09-26 07:11:00,46.0,44.9,30.04,NNW,338,3.0,6.0,96,0.00,,---,0.00,VWS V14.01,2013-09-26 11:11:00,
2013-09-26 07:12:00,44.7,43.9,30.03,NNW,342,3.0,6.0,97,0.00,,---,0.00,VWS V14.01,2013-09-26 11:12:00,
2013-09-26 07:13:00,46.0,44.9,30.04,NW,314,3.0,6.0,96,0.00,,---,0.00,VWS V14.01,2013-09-26 11:13:00,
2013-09-26 07:14:00,46.0,44.9,30.04,NNW,335,2.0,5.0,96,0.00,,---,0.00,VWS V14.01,2013-09-26 11:14:00,
2013-09-26 07:15:00,46.1,45.0,30.04,NW,312,2.0,5.0,96,0.00,,---,0.00,VWS V14.01,2013-09-26 11:15:00,
2013-09-26 07:16:00,46.1,45.0,30.04,NNW,332,4.0,5.0,96,0.00,,---,0.00,VWS V14.01,2013-09-26 11:16:00,
2013-09-26 07:17:00,45.0,44.2,30.03,NNW,328,1.0,3.0,97,0.00,,---,0.00,VWS V14.01,2013-09-26 11:17:00,
2013-09-26 07:18:00,46.1,45.0,30.04,NW,305,1.0,5.0,96,0.00,,---,0.00,VWS V14.01,2013-09-26 11:18:00,
2013-09-26 07:19:00,46.1,45.0,30.04,NW,305,1.0,5.0,96,0.00,,---,0.00,VWS V14.01,2013-09-26 11:19:00,
2013-09-26 07:20:00,46.1,45.0,30.05,NNW,328,2.0,5.0,96,0.00,,---,0.00,VWS V14.01,2013-09-26 11:20:00,
2013-09-26 07:21:00,46.2,45.1,30.05,North,5,1.0,4.0,96,0.00,,---,0.00,VWS V14.01,2013-09-26 11:21:00,
2013-09-26 07:22:00,45.3,44.5,30.03,NNW,330,2.0,4.0,97,0.00,,---,0.00,VWS V14.01,2013-09-26 11:22:00,
2013-09-26 07:23:00,46.3,45.2,30.05,NNW,330,2.0,4.0,96,0.00,,---,0.00,VWS V14.01,2013-09-26 11:23:00,
2013-09-26 07:24:00,46.4,45.3,30.05,NNE,12,3.0,4.0,96,0.00,,---,0.00,VWS V14.01,2013-09-26 11:24:00,
2013-09-26 07:25:00,46.4,45.3,30.05,NW,316,4.0,4.0,96,0.00,,---,0.00,VWS V14.01,2013-09-26 11:25:00,
2013-09-26 07:26:00,46.4,45.6,30.05,North,356,1.0,5.0,97,0.00,,---,0.00,VWS V14.01,2013-09-26 11:26:00,
2013-09-26 07:27:00,45.5,44.4,30.03,NW,324,3.0,4.0,96,0.00,,---,0.00,VWS V14.01,2013-09-26 11:27:00,
2013-09-26 07:28:00,46.5,45.4,30.05,NW,309,6.0,7.0,96,0.00,,---,0.00,VWS V14.01,2013-09-26 11:28:00,
2013-09-26 07:29:00,46.4,45.3,30.05,NNE,20,4.0,8.0,96,0.00,,---,0.00,VWS V14.01,2013-09-26 11:29:00,
2013-09-26 07:30:00,46.4,45.3,30.05,NW,309,4.0,8.0,96,0.00,,---,0.00,VWS V14.01,2013-09-26 11:30:00,
2013-09-26 07:31:00,46.4,45.3,30.05,NW,322,3.0,8.0,96,0.00,,---,0.00,VWS V14.01,2013-09-26 11:31:00,
2013-09-26 07:32:00,45.7,44.9,30.04,NNW,348,3.0,4.0,97,0.00,,---,0.00,VWS V14.01,2013-09-26 11:32:00,
2013-09-26 07:33:00,46.4,45.3,30.05,NNW,344,3.0,8.0,96,0.00,,---,0.00,VWS V14.01,2013-09-26 11:33:00,
2013-09-26 07:34:00,46.4,45.3,30.05,NW,315,4.0,8.0,96,0.00,,---,0.00,VWS V14.01,2013-09-26 11:34:00,
2013-09-26 07:35:00,46.5,45.4,30.05,NNE,30,2.0,8.0,96,0.00,,---,0.00,VWS V14.01,2013-09-26 11:35:00,
2013-09-26 07:36:00,46.6,45.5,30.05,North,349,3.0,6.0,96,0.00,,---,0.00,VWS V14.01,2013-09-26 11:36:00,
2013-09-26 07:37:00,45.9,44.8,30.04,NW,322,3.0,5.0,96,0.00,,---,0.00,VWS V14.01,2013-09-26 11:37:00,
2013-09-26 07:38:00,46.7,45.6,30.05,NNE,31,5.0,7.0,96,0.00,,---,0.00,VWS V14.01,2013-09-26 11:38:00,
2013-09-26 07:39:00,46.7,45.6,30.05,NE,37,4.0,7.0,96,0.00,,---,0.00,VWS V14.01,2013-09-26 11:39:00,
2013-09-26 07:40:00,46.7,45.6,30.05,WNW,302,4.0,7.0,96,0.00,,---,0.00,VWS V14.01,2013-09-26 11:40:00,
2013-09-26 07:41:00,46.8,45.5,30.05,NNE,21,7.0,9.0,95,0.00,,---,0.00,VWS V14.01,2013-09-26 11:41:00,
2013-09-26 07:42:00,46.0,44.9,30.04,NW,322,3.0,4.0,96,0.00,,---,0.00,VWS V14.01,2013-09-26 11:42:00,
2013-09-26 07:43:00,46.8,45.5,30.05,NW,306,4.0,10.0,95,0.00,,---,0.00,VWS V14.01,2013-09-26 11:43:00,
2013-09-26 07:44:00,46.8,45.5,30.05,NE,47,4.0,10.0,95,0.00,,---,0.00,VWS V14.01,2013-09-26 11:44:00,
2013-09-26 07:45:00,46.8,45.5,30.05,NW,317,2.0,10.0,95,0.00,,---,0.00,VWS V14.01,2013-09-26 11:45:00,
2013-09-26 07:46:00,46.9,45.5,30.05,NNW,342,3.0,10.0,95,0.00,,---,0.00,VWS V14.01,2013-09-26 11:46:00,
2013-09-26 07:47:00,46.0,44.9,30.04,WNW,301,4.0,6.0,96,0.00,,---,0.00,VWS V14.01,2013-09-26 11:47:00,
2013-09-26 07:48:00,47.0,45.4,30.05,NNW,329,2.0,7.0,94,0.00,,---,0.00,VWS V14.01,2013-09-26 11:48:00,
2013-09-26 07:49:00,47.0,45.4,30.05,NW,324,5.0,7.0,94,0.00,,---,0.00,VWS V14.01,2013-09-26 11:49:00,
2013-09-26 07:50:00,47.0,45.4,30.05,North,5,5.0,8.0,94,0.00,,---,0.00,VWS V14.01,2013-09-26 11:50:00,
2013-09-26 07:51:00,47.0,45.4,30.06,NNE,20,6.0,8.0,94,0.00,,---,0.00,VWS V14.01,2013-09-26 11:51:00,
2013-09-26 07:52:00,46.0,44.9,30.04,NNW,338,3.0,6.0,96,0.00,,---,0.00,VWS V14.01,2013-09-26 11:52:00,
2013-09-26 07:53:00,46.9,45.3,30.05,NW,322,3.0,8.0,94,0.00,,---,0.00,VWS V14.01,2013-09-26 11:53:00,
2013-09-26 07:54:00,46.9,45.3,30.06,NE,39,4.0,8.0,94,0.00,,---,0.00,VWS V14.01,2013-09-26 11:54:00,
2013-09-26 07:55:00,46.9,45.3,30.06,NE,36,6.0,8.0,94,0.00,,---,0.00,VWS V14.01,2013-09-26 11:55:00,
2013-09-26 07:56:00,46.9,45.3,30.05,NNW,345,8.0,9.0,94,0.00,,---,0.00,VWS V14.01,2013-09-26 11:56:00,
2013-09-26 07:57:00,46.1,45.0,30.04,NNW,332,4.0,5.0,96,0.00,,---,0.00,VWS V14.01,2013-09-26 11:57:00,
2013-09-26 07:58:00,47.0,45.1,30.05,NNW,347,6.0,9.0,93,0.00,,---,0.00,VWS V14.01,2013-09-26 11:58:00,
2013-09-26 07:59:00,47.0,45.1,30.05,North,358,2.0,9.0,93,0.00,,---,0.00,VWS V14.01,2013-09-26 11:59:00,
2013-09-26 08:00:00,47.0,45.1,30.05,NNE,20,5.0,9.0,93,0.00,,---,0.00,VWS V14.01,2013-09-26 12:00:00,
2013-09-26 08:01:00,47.0,45.4,30.06,NNW,342,8.0,9.0,94,0.00,,---,0.00,VWS V14.01,2013-09-26 12:01:00,
2013-09-26 08:02:00,46.2,45.1,30.05,North,5,1.0,4.0,96,0.00,,---,0.00,VWS V14.01,2013-09-26 12:02:00,
2013-09-26 08:03:00,47.1,45.2,30.05,NNE,25,4.0,8.0,93,0.00,,---,0.00,VWS V14.01,2013-09-26 12:03:00,
2013-09-26 08:04:00,47.2,45.3,30.05,NNE,25,9.0,9.0,93,0.00,,---,0.00,VWS V14.01,2013-09-26 12:04:00,
2013-09-26 08:05:00,47.2,45.3,30.05,NNW,336,3.0,9.0,93,0.00,,---,0.00,VWS V14.01,2013-09-26 12:05:00,
2013-09-26 08:06:00,47.2,45.3,30.06,NNE,32,4.0,9.0,93,0.00,,---,0.00,VWS V14.01,2013-09-26 12:06:00,
2013-09-26 08:07:00,46.4,45.6,30.05,North,356,1.0,5.0,97,0.00,,---,0.00,VWS V14.01,2013-09-26 12:07:00,
2013-09-26 08:08:00,47.3,45.4,30.06,NE,39,6.0,10.0,93,0.00,,---,0.00,VWS V14.01,2013-09-26 12:08:00,
2013-09-26 08:09:00,47.4,45.5,30.06,North,1,5.0,10.0,93,0.00,,---,0.00,VWS V14.01,2013-09-26 12:09:00,
2013-09-26 08:10:00,47.4,45.5,30.06,NNE,12,4.0,10.0,93,0.00,,---,0.00,VWS V14.01,2013-09-26 12:10:00,
2013-09-26 08:11:00,47.4,45.2,30.06,NE,35,5.0,10.0,92,0.00,,---,0.00,VWS V14.01,2013-09-26 12:11:00,
2013-09-26 08:12:00,46.4,45.3,30.05,NW,322,3.0,8.0,96,0.00,,---,0.00,VWS V14.01,2013-09-26 12:12:00,
2013-09-26 08:13:00,47.3,45.1,30.06,NNE,12,4.0,10.0,92,0.00,,---,0.00,VWS V14.01,2013-09-26 12:13:00,
2013-09-26 08:14:00,47.3,45.1,30.06,NNE,13,6.0,10.0,92,0.00,,---,0.00,VWS V14.01,2013-09-26 12:14:00,
2013-09-26 08:15:00,47.3,44.8,30.06,NW,315,5.0,10.0,91,0.00,,---,0.00,VWS V14.01,2013-09-26 12:15:00,
2013-09-26 08:16:00,47.4,45.2,30.06,NNE,26,5.0,9.0,92,0.00,,---,0.00,VWS V14.01,2013-09-26 12:16:00,
2013-09-26 08:17:00,46.6,45.5,30.05,North,349,3.0,6.0,96,0.00,,---,0.00,VWS V14.01,2013-09-26 12:17:00,
2013-09-26 08:18:00,47.5,45.0,30.06,NNW,346,4.0,11.0,91,0.00,,---,0.00,VWS V14.01,2013-09-26 12:18:00,
2013-09-26 08:19:00,47.5,45.0,30.06,NNE,30,7.0,11.0,91,0.00,,---,0.00,VWS V14.01,2013-09-26 12:19:00,
2013-09-26 08:20:00,47.5,45.0,30.06,NNE,21,2.0,11.0,91,0.00,,---,0.00,VWS V14.01,2013-09-26 12:20:00,
2013-09-26 08:21:00,47.6,45.1,30.06,NE,35,6.0,11.0,91,0.00,,---,0.00,VWS V14.01,2013-09-26 12:21:00,
2013-09-26 08:22:00,46.8,45.5,30.05,NNE,21,7.0,9.0,95,0.00,,---,0.00,VWS V14.01,2013-09-26 12:22:00,
2013-09-26 08:23:00,47.6,45.1,30.06,NE,51,8.0,11.0,91,0.00,,---,0.00,VWS V14.01,2013-09-26 12:23:00,
2013-09-26 08:24:00,47.7,45.2,30.06,NNW,332,4.0,11.0,91,0.00,,---,0.00,VWS V14.01,2013-09-26 12:24:00,
2013-09-26 08:25:00,47.7,45.2,30.06,NNE,15,7.0,11.0,91,0.00,,---,0.00,VWS V14.01,2013-09-26 12:25:00,
2013-09-26 08:26:00,47.7,44.9,30.06,NNE,29,6.0,10.0,90,0.00,,---,0.00,VWS V14.01,2013-09-26 12:26:00,
2013-09-26 08:27:00,46.9,45.5,30.05,NNW,342,3.0,10.0,95,0.00,,---,0.00,VWS V14.01,2013-09-26 12:27:00,
2013-09-26 08:28:00,47.7,45.2,30.06,NNW,335,3.0,9.0,91,0.00,,---,0.00,VWS V14.01,2013-09-26 12:28:00,
2013-09-26 08:29:00,47.8,45.3,30.06,NNW,342,1.0,8.0,91,0.00,,---,0.00,VWS V14.01,2013-09-26 12:29:00,
2013-09-26 08:30:00,47.9,45.4,30.07,NW,312,3.0,8.0,91,0.00,,---,0.00,VWS V14.01,2013-09-26 12:30:00,
2013-09-26 08:31:00,48.0,45.5,30.07,NE,43,9.0,9.0,91,0.00,,---,0.00,VWS V14.01,2013-09-26 12:31:00,
2013-09-26 08:32:00,47.0,45.4,30.06,NNE,20,6.0,8.0,94,0.00,,---,0.00,VWS V14.01,2013-09-26 12:32:00,
2013-09-26 08:33:00,48.1,45.3,30.06,NW,314,4.0,10.0,90,0.00,,---,0.00,VWS V14.01,2013-09-26 12:33:00,
2013-09-26 08:34:00,48.1,45.3,30.06,North,6,4.0,10.0,90,0.00,,---,0.00,VWS V14.01,2013-09-26 12:34:00,
2013-09-26 08:35:00,48.2,45.4,30.07,NNW,342,5.0,10.0,90,0.00,,---,0.00,VWS V14.01,2013-09-26 12:35:00,
2013-09-26 08:36:00,48.3,45.5,30.07,NNE,29,2.0,10.0,90,0.00,,---,0.00,VWS V14.01,2013-09-26 12:36:00,
2013-09-26 08:37:00,48.5,46.0,30.07,WNW,298,4.0,8.0,91,0.00,,---,0.00,VWS V14.01,2013-09-26 12:37:00,
2013-09-26 08:38:00,46.9,45.0,30.05,NE,47,3.0,9.0,93,0.00,,---,0.00,VWS V14.01,2013-09-26 12:38:00,
2013-09-26 08:39:00,48.7,45.9,30.07,NW,318,7.0,8.0,90,0.00,,---,0.00,VWS V14.01,2013-09-26 12:39:00,
2013-09-26 08:40:00,48.8,45.7,30.07,NNW,336,4.0,8.0,89,0.00,,---,0.00,VWS V14.01,2013-09-26 12:40:00,
2013-09-26 08:41:00,48.8,46.0,30.07,NW,314,1.0,8.0,90,0.00,,---,0.00,VWS V14.01,2013-09-26 12:41:00,
2013-09-26 08:42:00,48.9,46.1,30.07,North,352,1.0,8.0,90,0.00,,---,0.00,VWS V14.01,2013-09-26 12:42:00,
2013-09-26 08:43:00,49.1,46.0,30.07,NE,39,7.0,9.0,89,0.00,,---,0.00,VWS V14.01,2013-09-26 12:43:00,
2013-09-26 08:44:00,47.1,45.2,30.05,NNE,25,4.0,8.0,93,0.00,,---,0.00,VWS V14.01,2013-09-26 12:44:00,
2013-09-26 08:45:00,49.2,45.8,30.07,NNE,25,6.0,9.0,88,0.00,,---,0.00,VWS V14.01,2013-09-26 12:45:00,
2013-09-26 08:46:00,49.2,45.8,30.07,North,11,2.0,9.0,88,0.00,,---,0.00,VWS V14.01,2013-09-26 12:46:00,
2013-09-26 08:47:00,49.3,46.2,30.07,NE,44,6.0,9.0,89,0.00,,---,0.00,VWS V14.01,2013-09-26 12:47:00,
2013-09-26 08:48:00,49.4,46.3,30.07,North,352,0.0,8.0,89,0.00,,---,0.00,VWS V14.01,2013-09-26 12:48:00,
2013-09-26 08:49:00,47.3,45.4,30.06,NE,39,6.0,10.0,93,0.00,,---,0.00,VWS V14.01,2013-09-26 12:49:00,
2013-09-26 08:50:00,49.7,46.3,30.07,ENE,63,6.0,8.0,88,0.00,,---,0.00,VWS V14.01,2013-09-26 12:50:00,
2013-09-26 08:51:00,49.7,45.7,30.07,WNW,298,3.0,9.0,86,0.00,,---,0.00,VWS V14.01,2013-09-26 12:51:00,
2013-09-26 08:52:00,49.8,46.1,30.07,North,356,3.0,9.0,87,0.00,,---,0.00,VWS V14.01,2013-09-26 12:52:00,
2013-09-26 08:53:00,49.9,46.2,30.07,NNE,26,3.0,9.0,87,0.00,,---,0.00,VWS V14.01,2013-09-26 12:53:00,
2013-09-26 08:54:00,47.3,45.1,30.06,NNE,12,4.0,10.0,92,0.00,,---,0.00,VWS V14.01,2013-09-26 12:54:00,
2013-09-26 08:55:00,49.9,45.6,30.07,NNW,340,5.0,12.0,85,0.00,,---,0.00,VWS V14.01,2013-09-26 12:55:00,
2013-09-26 08:56:00,49.9,45.6,30.07,NNE,19,2.0,12.0,85,0.00,,---,0.00,VWS V14.01,2013-09-26 12:56:00,
2013-09-26 08:57:00,49.9,45.6,30.07,NE,51,5.0,12.0,85,0.00,,---,0.00,VWS V14.01,2013-09-26 12:57:00,
2013-09-26 08:58:00,49.9,45.6,30.07,ENE,60,4.0,12.0,85,0.00,,---,0.00,VWS V14.01,2013-09-26 12:58:00,
2013-09-26 08:59:00,47.5,45.0,30.06,NNW,346,4.0,11.0,91,0.00,,---,0.00,VWS V14.01,2013-09-26 12:59:00,
2013-09-26 09:00:00,49.9,45.6,30.07,North,352,5.0,8.0,85,0.00,,---,0.00,VWS V14.01,2013-09-26 13:00:00,
2013-09-26 09:01:00,50.0,45.4,30.07,NNE,15,7.0,9.0,84,0.00,,---,0.00,VWS V14.01,2013-09-26 13:01:00,
2013-09-26 09:02:00,50.0,45.7,30.07,NE,55,5.0,9.0,85,0.00,,---,0.00,VWS V14.01,2013-09-26 13:02:00,
2013-09-26 09:03:00,50.1,45.8,30.07,NNE,29,5.0,9.0,85,0.00,,---,0.00,VWS V14.01,2013-09-26 13:03:00,
2013-09-26 09:04:00,47.6,45.1,30.06,NE,51,8.0,11.0,91,0.00,,---,0.00,VWS V14.01,2013-09-26 13:04:00,
2013-09-26 09:05:00,50.3,45.7,30.07,NE,41,11.0,11.0,84,0.00,,---,0.00,VWS V14.01,2013-09-26 13:05:00,
2013-09-26 09:06:00,50.3,45.7,30.07,NNE,30,2.0,11.0,84,0.00,,---,0.00,VWS V14.01,2013-09-26 13:06:00,
2013-09-26 09:07:00,50.3,46.0,30.07,NW,324,2.0,11.0,85,0.00,,---,0.00,VWS V14.01,2013-09-26 13:07:00,
2013-09-26 09:08:00,50.4,46.4,30.07,ENE,62,7.0,11.0,86,0.00,,---,0.00,VWS V14.01,2013-09-26 13:08:00,
2013-09-26 09:09:00,47.7,45.2,30.06,NNW,335,3.0,9.0,91,0.00,,---,0.00,VWS V14.01,2013-09-26 13:09:00,
2013-09-26 09:10:00,50.6,46.3,30.07,NNE,25,8.0,11.0,85,0.00,,---,0.00,VWS V14.01,2013-09-26 13:10:00,
2013-09-26 09:11:00,50.6,46.0,30.07,NE,40,5.0,11.0,84,0.00,,---,0.00,VWS V14.01,2013-09-26 13:11:00,
2013-09-26 09:12:00,50.6,46.0,30.07,North,5,0.0,11.0,84,0.00,,---,0.00,VWS V14.01,2013-09-26 13:12:00,
2013-09-26 09:13:00,50.6,46.0,30.07,NNE,18,3.0,11.0,84,0.00,,---,0.00,VWS V14.01,2013-09-26 13:13:00,
2013-09-26 09:14:00,48.1,45.3,30.06,NW,314,4.0,10.0,90,0.00,,---,0.00,VWS V14.01,2013-09-26 13:14:00,
2013-09-26 09:15:00,50.5,45.5,30.07,NNE,22,4.0,11.0,83,0.00,,---,0.00,VWS V14.01,2013-09-26 13:15:00,
2013-09-26 09:16:00,50.4,45.4,30.07,NNE,23,6.0,12.0,83,0.00,,---,0.00,VWS V14.01,2013-09-26 13:16:00,
2013-09-26 09:17:00,50.2,45.2,30.07,NNW,338,3.0,12.0,83,0.00,,---,0.00,VWS V14.01,2013-09-26 13:17:00,
2013-09-26 09:18:00,50.1,45.2,30.07,NNW,342,2.0,12.0,83,0.00,,---,0.00,VWS V14.01,2013-09-26 13:18:00,
2013-09-26 09:19:00,48.6,45.8,30.07,WNW,286,2.0,8.0,90,0.00,,---,0.00,VWS V14.01,2013-09-26 13:19:00,
2013-09-26 09:20:00,50.0,45.0,30.07,NNW,348,4.0,12.0,83,0.00,,---,0.00,VWS V14.01,2013-09-26 13:20:00,
2013-09-26 09:21:00,50.0,45.0,30.07,North,352,6.0,8.0,83,0.00,,---,0.00,VWS V14.01,2013-09-26 13:21:00,
2013-09-26 09:22:00,50.0,45.0,30.07,ENE,59,5.0,10.0,83,0.00,,---,0.00,VWS V14.01,2013-09-26 13:22:00,
2013-09-26 09:23:00,50.0,45.0,30.07,NE,47,4.0,10.0,83,0.00,,---,0.00,VWS V14.01,2013-09-26 13:23:00,
2013-09-26 09:24:00,49.1,46.0,30.07,NE,39,7.0,9.0,89,0.00,,---,0.00,VWS V14.01,2013-09-26 13:24:00,
2013-09-26 09:25:00,50.3,45.3,30.07,North,9,7.0,10.0,83,0.00,,---,0.00,VWS V14.01,2013-09-26 13:25:00,
2013-09-26 09:26:00,50.4,45.4,30.07,East,88,5.0,11.0,83,0.00,,---,0.00,VWS V14.01,2013-09-26 13:26:00,
2013-09-26 09:27:00,50.5,45.2,30.07,ENE,70,7.0,11.0,82,0.00,,---,0.00,VWS V14.01,2013-09-26 13:27:00,
2013-09-26 09:28:00,50.4,44.8,30.07,ENE,67,13.0,13.0,81,0.00,,---,0.00,VWS V14.01,2013-09-26 13:28:00,
2013-09-26 09:29:00,49.4,46.3,30.07,North,352,0.0,8.0,89,0.00,,---,0.00,VWS V14.01,2013-09-26 13:29:00,
2013-09-26 09:30:00,50.4,45.1,30.07,North,11,2.0,13.0,82,0.00,,---,0.00,VWS V14.01,2013-09-26 13:30:00,
2013-09-26 09:31:00,50.4,45.4,30.07,NNE,25,1.0,13.0,83,0.00,,---,0.00,VWS V14.01,2013-09-26 13:31:00,
2013-09-26 09:32:00,50.6,46.0,30.07,North,4,8.0,13.0,84,0.00,,---,0.00,VWS V14.01,2013-09-26 13:32:00,
2013-09-26 09:33:00,50.7,46.0,30.07,NE,43,3.0,13.0,84,0.00,,---,0.00,VWS V14.01,2013-09-26 13:33:00,
2013-09-26 09:34:00,49.9,46.2,30.07,NNE,26,3.0,9.0,87,0.00,,---,0.00,VWS V14.01,2013-09-26 13:34:00,
2013-09-26 09:35:00,50.7,45.7,30.07,NNE,22,5.0,9.0,83,0.00,,---,0.00,VWS V14.01,2013-09-26 13:35:00,
2013-09-26 09:36:00,50.8,45.8,30.07,NNW,342,5.0,9.0,83,0.00,,---,0.00,VWS V14.01,2013-09-26 13:36:00,
2013-09-26 09:37:00,50.7,45.7,30.07,NNE,30,6.0,9.0,83,0.00,,---,0.00,VWS V14.01,2013-09-26 13:37:00,
2013-09-26 09:38:00,50.7,45.7,30.07,NNW,338,5.0,8.0,83,0.00,,---,0.00,VWS V14.01,2013-09-26 13:38:00,
2013-09-26 09:39:00,49.9,45.6,30.07,ENE,60,4.0,12.0,85,0.00,,---,0.00,VWS V14.01,2013-09-26 13:39:00,
2013-09-26 09:40:00,50.8,45.8,30.07,NE,44,4.0,8.0,83,0.00,,---,0.00,VWS V14.01,2013-09-26 13:40:00,
2013-09-26 09:41:00,50.7,45.7,30.07,North,359,5.0,8.0,83,0.00,,---,0.00,VWS V14.01,2013-09-26 13:41:00,
2013-09-26 09:42:00,50.7,45.7,30.07,ENE,58,3.0,8.0,83,0.00,,---,0.00,VWS V14.01,2013-09-26 13:42:00,
2013-09-26 09:43:00,50.8,46.2,30.07,WNW,300,3.0,8.0,84,0.00,,---,0.00,VWS V14.01,2013-09-26 13:43:00,
2013-09-26 09:44:00,50.1,45.8,30.07,NNE,29,5.0,9.0,85,0.00,,---,0.00,VWS V14.01,2013-09-26 13:44:00,
2013-09-26 09:45:00,50.8,45.8,30.07,NNE,15,8.0,12.0,83,0.00,,---,0.00,VWS V14.01,2013-09-26 13:45:00,
2013-09-26 09:46:00,50.7,45.7,30.07,ENE,61,9.0,12.0,83,0.00,,---,0.00,VWS V14.01,2013-09-26 13:46:00,
2013-09-26 09:47:00,50.5,45.5,30.07,NE,53,4.0,12.0,83,0.00,,---,0.00,VWS V14.01,2013-09-26 13:47:00,
2013-09-26 09:48:00,50.5,45.8,30.07,North,11,2.0,12.0,84,0.00,,---,0.00,VWS V14.01,2013-09-26 13:48:00,
2013-09-26 09:49:00,50.4,45.4,30.07,NNW,336,5.0,12.0,83,0.00,,---,0.00,VWS V14.01,2013-09-26 13:49:00,
2013-09-26 09:50:00,50.5,46.2,30.07,North,360,4.0,11.0,85,0.00,,---,0.00,VWS V14.01,2013-09-26 13:50:00,
2013-09-26 09:51:00,50.4,45.8,30.07,NNE,20,3.0,10.0,84,0.00,,---,0.00,VWS V14.01,2013-09-26 13:51:00,
2013-09-26 09:52:00,50.4,45.4,30.07,NW,322,4.0,9.0,83,0.00,,---,0.00,VWS V14.01,2013-09-26 13:52:00,
2013-09-26 09:53:00,50.4,45.4,30.07,NW,324,5.0,13.0,83,0.00,,---,0.00,VWS V14.01,2013-09-26 13:53:00,
2013-09-26 09:54:00,50.5,45.8,30.07,NNW,340,3.0,13.0,84,0.00,,---,0.00,VWS V14.01,2013-09-26 13:54:00,
2013-09-26 09:55:00,50.6,45.6,30.07,NW,316,3.0,11.0,83,0.00,,---,0.00,VWS V14.01,2013-09-26 13:55:00,
2013-09-26 09:56:00,50.7,45.7,30.07,NW,304,3.0,13.0,83,0.00,,---,0.00,VWS V14.01,2013-09-26 13:56:00,
2013-09-26 09:57:00,50.8,45.8,30.07,NE,43,7.0,13.0,83,0.00,,---,0.00,VWS V14.01,2013-09-26 13:57:00,
2013-09-26 09:58:00,50.8,45.8,30.07,NE,43,2.0,8.0,83,0.00,,---,0.00,VWS V14.01,2013-09-26 13:58:00,
2013-09-26 09:59:00,51.0,46.3,30.07,NNE,32,3.0,8.0,84,0.00,,---,0.00,VWS V14.01,2013-09-26 13:59:00,
2013-09-26 10:00:00,50.0,45.0,30.07,North,9,6.0,12.0,83,0.00,,---,0.00,VWS V14.01,2013-09-26 14:00:00,
2013-09-26 10:01:00,51.4,46.1,30.07,NNW,345,7.0,8.0,82,0.00,,---,0.00,VWS V14.01,2013-09-26 14:01:00,
2013-09-26 10:02:00,51.5,46.5,30.07,NNE,33,2.0,7.0,83,0.00,,---,0.00,VWS V14.01,2013-09-26 14:02:00,
2013-09-26 10:03:00,51.7,46.4,30.07,NNE,13,6.0,7.0,82,0.00,,---,0.00,VWS V14.01,2013-09-26 14:03:00,
2013-09-26 10:04:00,51.7,46.1,30.07,East,81,5.0,7.0,81,0.00,,---,0.00,VWS V14.01,2013-09-26 14:04:00,
2013-09-26 10:05:00,51.7,46.1,30.07,ENE,70,4.0,7.0,81,0.00,,---,0.00,VWS V14.01,2013-09-26 14:05:00,
2013-09-26 10:06:00,50.3,45.3,30.07,North,9,7.0,10.0,83,0.00,,---,0.00,VWS V14.01,2013-09-26 14:06:00,
2013-09-26 10:07:00,51.9,46.6,30.07,NE,39,4.0,8.0,82,0.00,,---,0.00,VWS V14.01,2013-09-26 14:07:00,
2013-09-26 10:08:00,52.0,46.4,30.07,NNW,333,3.0,8.0,81,0.00,,---,0.00,VWS V14.01,2013-09-26 14:08:00,
2013-09-26 10:09:00,52.1,46.8,30.07,North,352,2.0,8.0,82,0.00,,---,0.00,VWS V14.01,2013-09-26 14:09:00,
2013-09-26 10:10:00,52.1,46.1,30.07,North,354,4.0,8.0,80,0.00,,---,0.00,VWS V14.01,2013-09-26 14:10:00,
2013-09-26 10:11:00,50.4,45.1,30.07,North,11,2.0,13.0,82,0.00,,---,0.00,VWS V14.01,2013-09-26 14:11:00,
2013-09-26 10:12:00,52.2,46.5,30.07,WNW,298,3.0,7.0,81,0.00,,---,0.00,VWS V14.01,2013-09-26 14:12:00,
2013-09-26 10:13:00,52.4,46.8,30.07,WSW,253,1.0,7.0,81,0.00,,---,0.00,VWS V14.01,2013-09-26 14:13:00,
2013-09-26 10:14:00,52.4,46.8,30.08,NE,53,5.0,6.0,81,0.00,,---,0.00,VWS V14.01,2013-09-26 14:14:00,
2013-09-26 10:15:00,52.5,46.5,30.07,NNE,25,7.0,9.0,80,0.00,,---,0.00,VWS V14.01,2013-09-26 14:15:00,
2013-09-26 10:16:00,50.7,45.7,30.07,NNE,22,5.0,9.0,83,0.00,,---,0.00,VWS V14.01,2013-09-26 14:16:00,
2013-09-26 10:17:00,52.4,46.1,30.07,NNW,342,7.0,10.0,79,0.00,,---,0.00,VWS V14.01,2013-09-26 14:17:00,
2013-09-26 10:18:00,52.2,45.9,30.07,NNE,29,4.0,10.0,79,0.00,,---,0.00,VWS V14.01,2013-09-26 14:18:00,
2013-09-26 10:19:00,52.1,46.1,30.07,NNE,27,4.0,10.0,80,0.00,,---,0.00,VWS V14.01,2013-09-26 14:19:00,
2013-09-26 10:20:00,52.1,46.1,30.08,NE,56,6.0,10.0,80,0.00,,---,0.00,VWS V14.01,2013-09-26 14:20:00,
2013-09-26 10:21:00,50.8,45.8,30.07,NE,44,4.0,8.0,83,0.00,,---,0.00,VWS V14.01,2013-09-26 14:21:00,
2013-09-26 10:22:00,51.8,45.8,30.07,NNE,13,4.0,10.0,80,0.00,,---,0.00,VWS V14.01,2013-09-26 14:22:00,
2013-09-26 10:23:00,51.8,45.8,30.08,NE,56,6.0,10.0,80,0.00,,---,0.00,VWS V14.01,2013-09-26 14:23:00,
2013-09-26 10:24:00,51.7,45.7,30.08,NNE,25,4.0,10.0,80,0.00,,---,0.00,VWS V14.01,2013-09-26 14:24:00,
2013-09-26 10:25:00,51.8,46.2,30.08,NNE,25,9.0,10.0,81,0.00,,---,0.00,VWS V14.01,2013-09-26 14:25:00,
2013-09-26 10:26:00,50.8,45.8,30.07,NNE,15,8.0,12.0,83,0.00,,---,0.00,VWS V14.01,2013-09-26 14:26:00,
2013-09-26 10:27:00,51.9,45.9,30.08,NE,35,4.0,10.0,80,0.00,,---,0.00,VWS V14.01,2013-09-26 14:27:00,
2013-09-26 10:28:00,52.0,46.0,30.07,NE,34,1.0,9.0,80,0.00,,---,0.00,VWS V14.01,2013-09-26 14:28:00,
2013-09-26 10:29:00,52.1,46.1,30.07,NNW,329,6.0,9.0,80,0.00,,---,0.00,VWS V14.01,2013-09-26 14:29:00,
2013-09-26 10:30:00,52.3,46.3,30.07,North,11,1.0,9.0,80,0.00,,---,0.00,VWS V14.01,2013-09-26 14:30:00,
2013-09-26 10:31:00,50.4,45.8,30.07,NNE,18,3.0,11.0,84,0.00,,---,0.00,VWS V14.01,2013-09-26 14:31:00,
2013-09-26 10:32:00,52.8,46.8,30.07,NW,311,5.0,8.0,80,0.00,,---,0.00,VWS V14.01,2013-09-26 14:32:00,
2013-09-26 10:33:00,52.9,46.9,30.07,NNW,332,6.0,8.0,80,0.00,,---,0.00,VWS V14.01,2013-09-26 14:33:00,
2013-09-26 10:34:00,53.0,46.7,30.07,NW,305,3.0,8.0,79,0.00,,---,0.00,VWS V14.01,2013-09-26 14:34:00,
2013-09-26 10:35:00,53.0,46.7,30.07,NW,326,3.0,8.0,79,0.00,,---,0.00,VWS V14.01,2013-09-26 14:35:00,
2013-09-26 10:36:00,53.0,46.3,30.07,NNE,30,2.0,8.0,78,0.00,,---,0.00,VWS V14.01,2013-09-26 14:36:00,
2013-09-26 10:37:00,50.7,45.7,30.07,NW,304,3.0,13.0,83,0.00,,---,0.00,VWS V14.01,2013-09-26 14:37:00,
2013-09-26 10:38:00,53.1,46.4,30.07,North,1,4.0,8.0,78,0.00,,---,0.00,VWS V14.01,2013-09-26 14:38:00,
2013-09-26 10:39:00,53.2,46.9,30.07,NE,51,4.0,6.0,79,0.00,,---,0.00,VWS V14.01,2013-09-26 14:39:00,
2013-09-26 10:40:00,53.2,46.5,30.07,North,360,3.0,6.0,78,0.00,,---,0.00,VWS V14.01,2013-09-26 14:40:00,
2013-09-26 10:41:00,53.2,46.2,30.07,ENE,70,2.0,6.0,77,0.00,,---,0.00,VWS V14.01,2013-09-26 14:41:00,
2013-09-26 10:42:00,53.3,46.3,30.07,NW,326,2.0,6.0,77,0.00,,---,0.00,VWS V14.01,2013-09-26 14:42:00,
2013-09-26 10:43:00,51.5,46.5,30.07,NNE,33,2.0,7.0,83,0.00,,---,0.00,VWS V14.01,2013-09-26 14:43:00,
2013-09-26 10:44:00,53.4,47.1,30.07,NW,314,7.0,9.0,79,0.00,,---,0.00,VWS V14.01,2013-09-26 14:44:00,
2013-09-26 10:45:00,53.4,46.0,30.07,NNW,347,6.0,9.0,76,0.00,,---,0.00,VWS V14.01,2013-09-26 14:45:00,
2013-09-26 10:46:00,53.4,46.0,30.07,NE,36,8.0,9.0,76,0.00,,---,0.00,VWS V14.01,2013-09-26 14:46:00,
2013-09-26 10:47:00,53.3,45.9,30.07,NNE,18,5.0,10.0,76,0.00,,---,0.00,VWS V14.01,2013-09-26 14:47:00,
2013-09-26 10:48:00,51.9,46.6,30.07,NE,39,4.0,8.0,82,0.00,,---,0.00,VWS V14.01,2013-09-26 14:48:00,
2013-09-26 10:49:00,53.2,46.2,30.07,NE,43,5.0,10.0,77,0.00,,---,0.00,VWS V14.01,2013-09-26 14:49:00,
2013-09-26 10:50:00,53.2,46.2,30.07,NE,51,6.0,10.0,77,0.00,,---,0.00,VWS V14.01,2013-09-26 14:50:00,
2013-09-26 10:51:00,53.2,46.2,30.07,NW,323,4.0,10.0,77,0.00,,---,0.00,VWS V14.01,2013-09-26 14:51:00,
2013-09-26 10:52:00,53.2,46.5,30.07,WNW,302,4.0,9.0,78,0.00,,---,0.00,VWS V14.01,2013-09-26 14:52:00,
2013-09-26 10:53:00,53.1,46.1,30.07,WNW,290,5.0,9.0,77,0.00,,---,0.00,VWS V14.01,2013-09-26 14:53:00,
2013-09-26 10:54:00,52.4,46.8,30.07,WSW,253,1.0,7.0,81,0.00,,---,0.00,VWS V14.01,2013-09-26 14:54:00,
2013-09-26 10:55:00,53.0,46.7,30.07,NW,306,5.0,9.0,79,0.00,,---,0.00,VWS V14.01,2013-09-26 14:55:00,
2013-09-26 10:56:00,53.0,46.3,30.07,NNE,31,4.0,9.0,78,0.00,,---,0.00,VWS V14.01,2013-09-26 14:56:00,
2013-09-26 10:57:00,53.1,46.8,30.07,NE,36,6.0,11.0,79,0.00,,---,0.00,VWS V14.01,2013-09-26 14:57:00,
2013-09-26 10:58:00,53.0,46.3,30.07,NNE,17,5.0,11.0,78,0.00,,---,0.00,VWS V14.01,2013-09-26 14:58:00,
2013-09-26 10:59:00,53.0,46.7,30.07,NNE,19,4.0,11.0,79,0.00,,---,0.00,VWS V14.01,2013-09-26 14:59:00,
2013-09-26 11:00:00,52.1,46.1,30.07,NNE,27,4.0,10.0,80,0.00,,---,0.00,VWS V14.01,2013-09-26 15:00:00,
2013-09-26 11:01:00,53.1,47.1,30.07,ENE,58,3.0,11.0,80,0.00,,---,0.00,VWS V14.01,2013-09-26 15:01:00,
2013-09-26 11:02:00,53.2,46.5,30.07,North,356,3.0,8.0,78,0.00,,---,0.00,VWS V14.01,2013-09-26 15:02:00,
2013-09-26 11:03:00,53.2,46.9,30.07,NE,53,6.0,8.0,79,0.00,,---,0.00,VWS V14.01,2013-09-26 15:03:00,
2013-09-26 11:04:00,53.2,46.5,30.07,North,354,2.0,8.0,78,0.00,,---,0.00,VWS V14.01,2013-09-26 15:04:00,
2013-09-26 11:05:00,51.7,45.7,30.08,NNE,25,4.0,10.0,80,0.00,,---,0.00,VWS V14.01,2013-09-26 15:05:00,
2013-09-26 11:06:00,53.2,46.2,30.07,North,360,2.0,8.0,77,0.00,,---,0.00,VWS V14.01,2013-09-26 15:06:00,
2013-09-26 11:07:00,53.3,46.6,30.07,NE,46,0.0,8.0,78,0.00,,---,0.00,VWS V14.01,2013-09-26 15:07:00,
2013-09-26 11:08:00,53.4,47.1,30.07,ENE,65,6.0,8.0,79,0.00,,---,0.00,VWS V14.01,2013-09-26 15:08:00,
2013-09-26 11:09:00,53.5,47.2,30.07,NNE,29,6.0,9.0,79,0.00,,---,0.00,VWS V14.01,2013-09-26 15:09:00,
2013-09-26 11:10:00,52.1,46.1,30.07,NNW,329,6.0,9.0,80,0.00,,---,0.00,VWS V14.01,2013-09-26 15:10:00,
2013-09-26 11:11:00,53.7,47.0,30.07,North,11,7.0,9.0,78,0.00,,---,0.00,VWS V14.01,2013-09-26 15:11:00,
2013-09-26 11:12:00,53.7,47.0,30.07,NNW,342,2.0,9.0,78,0.00,,---,0.00,VWS V14.01,2013-09-26 15:12:00,
2013-09-26 11:13:00,53.8,47.5,30.07,North,358,6.0,9.0,79,0.00,,---,0.00,VWS V14.01,2013-09-26 15:13:00,
2013-09-26 11:14:00,53.9,46.9,30.07,NE,53,5.0,9.0,77,0.00,,---,0.00,VWS V14.01,2013-09-26 15:14:00,
2013-09-26 11:15:00,53.0,46.7,30.07,NW,305,3.0,8.0,79,0.00,,---,0.00,VWS V14.01,2013-09-26 15:15:00,
2013-09-26 11:16:00,53.9,47.2,30.07,NE,49,5.0,9.0,78,0.00,,---,0.00,VWS V14.01,2013-09-26 15:16:00,
2013-09-26 11:17:00,53.9,47.2,30.07,NNE,25,4.0,9.0,78,0.00,,---,0.00,VWS V14.01,2013-09-26 15:17:00,
2013-09-26 11:18:00,54.0,47.6,30.07,NE,44,5.0,8.0,79,0.00,,---,0.00,VWS V14.01,2013-09-26 15:18:00,
2013-09-26 11:19:00,54.1,47.7,30.07,NNE,18,4.0,9.0,79,0.00,,---,0.00,VWS V14.01,2013-09-26 15:19:00,
2013-09-26 11:20:00,54.2,47.5,30.07,NW,307,0.0,9.0,78,0.00,,---,0.00,VWS V14.01,2013-09-26 15:20:00,
2013-09-26 11:21:00,53.2,46.5,30.07,North,360,3.0,6.0,78,0.00,,---,0.00,VWS V14.01,2013-09-26 15:21:00,
2013-09-26 11:22:00,54.3,47.2,30.07,West,278,4.0,9.0,77,0.00,,---,0.00,VWS V14.01,2013-09-26 15:22:00,
2013-09-26 11:23:00,54.2,47.5,30.07,NNW,332,3.0,9.0,78,0.00,,---,0.00,VWS V14.01,2013-09-26 15:23:00,
2013-09-26 11:24:00,54.3,47.2,30.07,NW,314,4.0,9.0,77,0.00,,---,0.00,VWS V14.01,2013-09-26 15:24:00,
2013-09-26 11:25:00,54.3,47.6,30.07,NNW,329,6.0,9.0,78,0.00,,---,0.00,VWS V14.01,2013-09-26 15:25:00,
2013-09-26 11:26:00,53.4,46.0,30.07,NNW,347,6.0,9.0,76,0.00,,---,0.00,VWS V14.01,2013-09-26 15:26:00,
2013-09-26 11:27:00,54.4,47.3,30.07,West,265,5.0,8.0,77,0.00,,---,0.00,VWS V14.01,2013-09-26 15:27:00,
2013-09-26 11:28:00,54.4,47.7,30.07,North,356,2.0,8.0,78,0.00,,---,0.00,VWS V14.01,2013-09-26 15:28:00,
2013-09-26 11:29:00,54.5,47.5,30.07,NW,305,7.0,8.0,77,0.00,,---,0.00,VWS V14.01,2013-09-26 15:29:00,
2013-09-26 11:30:00,54.4,47.3,30.07,WNW,283,3.0,8.0,77,0.00,,---,0.00,VWS V14.01,2013-09-26 15:30:00,
2013-09-26 11:31:00,53.2,46.2,30.07,NE,51,6.0,10.0,77,0.00,,---,0.00,VWS V14.01,2013-09-26 15:31:00,
2013-09-26 11:32:00,54.6,47.9,30.07,NNW,330,3.0,8.0,78,0.00,,---,0.00,VWS V14.01,2013-09-26 15:32:00,
2013-09-26 11:33:00,54.6,48.2,30.07,West,273,2.0,8.0,79,0.00,,---,0.00,VWS V14.01,2013-09-26 15:33:00,
2013-09-26 11:34:00,54.7,48.0,30.07,North,11,4.0,8.0,78,0.00,,---,0.00,VWS V14.01,2013-09-26 15:34:00,
2013-09-26 11:35:00,54.9,48.2,30.07,NNW,347,6.0,7.0,78,0.00,,---,0.00,VWS V14.01,2013-09-26 15:35:00,
2013-09-26 11:36:00,53.0,46.7,30.07,NW,306,5.0,9.0,79,0.00,,---,0.00,VWS V14.01,2013-09-26 15:36:00,
2013-09-26 11:37:00,54.9,47.5,30.07,NE,44,4.0,7.0,76,0.00,,---,0.00,VWS V14.01,2013-09-26 15:37:00,
2013-09-26 11:38:00,54.9,47.5,30.07,NW,323,2.0,7.0,76,0.00,,---,0.00,VWS V14.01,2013-09-26 15:38:00,
2013-09-26 11:39:00,55.0,47.9,30.07,West,264,4.0,7.0,77,0.00,,---,0.00,VWS V14.01,2013-09-26 15:39:00,
2013-09-26 11:40:00,55.0,47.9,30.07,WNW,294,7.0,8.0,77,0.00,,---,0.00,VWS V14.01,2013-09-26 15:40:00,
2013-09-26 11:41:00,53.1,46.8,30.07,North,6,2.0,11.0,79,0.00,,---,0.00,VWS V14.01,2013-09-26 15:41:00,
2013-09-26 11:42:00,54.9,47.8,30.07,NE,39,5.0,10.0,77,0.00,,---,0.00,VWS V14.01,2013-09-26 15:42:00,
2013-09-26 11:43:00,54.8,47.4,30.07,NW,322,0.0,10.0,76,0.00,,---,0.00,VWS V14.01,2013-09-26 15:43:00,
2013-09-26 11:44:00,54.7,48.0,30.07,NNW,335,5.0,10.0,78,0.00,,---,0.00,VWS V14.01,2013-09-26 15:44:00,
2013-09-26 11:45:00,54.8,48.1,30.07,NW,325,4.0,10.0,78,0.00,,---,0.00,VWS V14.01,2013-09-26 15:45:00,
2013-09-26 11:46:00,54.9,47.8,30.07,North,5,1.0,7.0,77,0.00,,---,0.00,VWS V14.01,2013-09-26 15:46:00,
2013-09-26 11:47:00,53.2,46.2,30.07,North,360,2.0,8.0,77,0.00,,---,0.00,VWS V14.01,2013-09-26 15:47:00,
2013-09-26 11:48:00,55.1,48.0,30.07,NW,322,6.0,7.0,77,0.00,,---,0.00,VWS V14.01,2013-09-26 15:48:00,
2013-09-26 11:49:00,55.1,47.7,30.07,ENE,57,3.0,7.0,76,0.00,,---,0.00,VWS V14.01,2013-09-26 15:49:00,
2013-09-26 11:50:00,55.1,48.0,30.07,NNW,338,3.0,6.0,77,0.00,,---,0.00,VWS V14.01,2013-09-26 15:50:00,
2013-09-26 11:51:00,55.1,47.7,30.07,WNW,285,6.0,7.0,76,0.00,,---,0.00,VWS V14.01,2013-09-26 15:51:00,
2013-09-26 11:52:00,55.1,47.3,30.07,NW,306,4.0,7.0,75,0.00,,---,0.00,VWS V14.01,2013-09-26 15:52:00,
2013-09-26 11:53:00,53.7,47.0,30.07,NNW,342,2.0,9.0,78,0.00,,---,0.00,VWS V14.01,2013-09-26 15:53:00,
2013-09-26 11:54:00,55.2,48.1,30.07,NE,36,2.0,7.0,77,0.00,,---,0.00,VWS V14.01,2013-09-26 15:54:00,
2013-09-26 11:55:00,55.3,48.2,30.07,NNE,22,8.0,8.0,77,0.00,,---,0.00,VWS V14.01,2013-09-26 15:55:00,
2013-09-26 11:56:00,55.3,47.5,30.07,ENE,68,6.0,8.0,75,0.00,,---,0.00,VWS V14.01,2013-09-26 15:56:00,
2013-09-26 11:57:00,55.3,47.5,30.07,North,8,4.0,8.0,75,0.00,,---,0.00,VWS V14.01,2013-09-26 15:57:00,
2013-09-26 11:58:00,53.9,47.2,30.07,NNE,25,4.0,9.0,78,0.00,,---,0.00,VWS V14.01,2013-09-26 15:58:00,
2013-09-26 11:59:00,55.2,47.1,30.07,ENE,65,1.0,9.0,74,0.00,,---,0.00,VWS V14.01,2013-09-26 15:59:00,
2013-09-26 12:00:00,55.1,47.0,30.07,NE,56,6.0,9.0,74,0.00,,---,0.00,VWS V14.01,2013-09-26 16:00:00,
2013-09-26 12:01:00,55.1,47.3,30.07,ENE,65,4.0,9.0,75,0.00,,---,0.00,VWS V14.01,2013-09-26 16:01:00,
2013-09-26 12:02:00,55.0,47.2,30.07,NW,312,3.0,9.0,75,0.00,,---,0.00,VWS V14.01,2013-09-26 16:02:00,
2013-09-26 12:03:00,54.3,47.2,30.07,West,278,4.0,9.0,77,0.00,,---,0.00,VWS V14.01,2013-09-26 16:03:00,
2013-09-26 12:04:00,55.2,47.1,30.07,NW,314,5.0,9.0,74,0.00,,---,0.00,VWS V14.01,2013-09-26 16:04:00,
2013-09-26 12:05:00,55.2,47.1,30.07,NNW,348,6.0,9.0,74,0.00,,---,0.00,VWS V14.01,2013-09-26 16:05:00,
2013-09-26 12:06:00,55.3,47.2,30.07,NW,326,5.0,9.0,74,0.00,,---,0.00,VWS V14.01,2013-09-26 16:06:00,
2013-09-26 12:07:00,55.3,47.2,30.07,NW,326,3.0,9.0,74,0.00,,---,0.00,VWS V14.01,2013-09-26 16:07:00,
2013-09-26 12:08:00,55.5,48.1,30.07,NNW,340,7.0,12.0,76,0.00,,---,0.00,VWS V14.01,2013-09-26 16:08:00,
2013-09-26 12:09:00,54.4,47.7,30.07,North,356,2.0,8.0,78,0.00,,---,0.00,VWS V14.01,2013-09-26 16:09:00,
2013-09-26 12:10:00,55.9,48.1,30.07,NW,322,3.0,12.0,75,0.00,,---,0.00,VWS V14.01,2013-09-26 16:10:00,
2013-09-26 12:11:00,56.0,47.5,30.07,NNW,340,4.0,12.0,73,0.00,,---,0.00,VWS V14.01,2013-09-26 16:11:00,
2013-09-26 12:12:00,56.1,47.9,30.07,NE,53,8.0,12.0,74,0.00,,---,0.00,VWS V14.01,2013-09-26 16:12:00,
2013-09-26 12:13:00,56.1,47.2,30.07,North,354,4.0,10.0,72,0.00,,---,0.00,VWS V14.01,2013-09-26 16:13:00,
2013-09-26 12:14:00,54.6,48.2,30.07,West,273,2.0,8.0,79,0.00,,---,0.00,VWS V14.01,2013-09-26 16:14:00,
2013-09-26 12:15:00,56.0,47.5,30.07,NW,318,5.0,10.0,73,0.00,,---,0.00,VWS V14.01,2013-09-26 16:15:00,
2013-09-26 12:16:00,56.2,48.4,30.07,WNW,300,5.0,10.0,75,0.00,,---,0.00,VWS V14.01,2013-09-26 16:16:00,
2013-09-26 12:17:00,56.2,47.7,30.07,NNE,13,6.0,11.0,73,0.00,,---,0.00,VWS V14.01,2013-09-26 16:17:00,
2013-09-26 12:18:00,56.2,46.9,30.07,NNW,344,2.0,11.0,71,0.00,,---,0.00,VWS V14.01,2013-09-26 16:18:00,
2013-09-26 12:19:00,54.9,47.5,30.07,NW,323,2.0,7.0,76,0.00,,---,0.00,VWS V14.01,2013-09-26 16:19:00,
2013-09-26 12:20:00,56.1,46.5,30.07,NW,322,5.0,11.0,70,0.00,,---,0.00,VWS V14.01,2013-09-26 16:20:00,
2013-09-26 12:21:00,56.1,46.8,30.06,NNE,25,5.0,11.0,71,0.00,,---,0.00,VWS V14.01,2013-09-26 16:21:00,
2013-09-26 12:22:00,56.1,47.2,30.07,NW,326,5.0,8.0,72,0.00,,---,0.00,VWS V14.01,2013-09-26 16:22:00,
2013-09-26 12:23:00,56.2,46.9,30.06,NW,314,3.0,8.0,71,0.00,,---,0.00,VWS V14.01,2013-09-26 16:23:00,
2013-09-26 12:24:00,54.8,47.4,30.07,NW,322,0.0,10.0,76,0.00,,---,0.00,VWS V14.01,2013-09-26 16:24:00,
2013-09-26 12:25:00,56.3,47.0,30.06,NNE,32,9.0,10.0,71,0.00,,---,0.00,VWS V14.01,2013-09-26 16:25:00,
2013-09-26 12:26:00,56.2,46.6,30.06,WNW,287,3.0,10.0,70,0.00,,---,0.00,VWS V14.01,2013-09-26 16:26:00,
2013-09-26 12:27:00,56.2,46.9,30.06,NNE,27,4.0,10.0,71,0.00,,---,0.00,VWS V14.01,2013-09-26 16:27:00,
2013-09-26 12:28:00,56.3,47.8,30.06,ENE,65,7.0,10.0,73,0.00,,---,0.00,VWS V14.01,2013-09-26 16:28:00,
2013-09-26 12:29:00,55.1,48.0,30.07,NW,322,6.0,7.0,77,0.00,,---,0.00,VWS V14.01,2013-09-26 16:29:00,
2013-09-26 12:30:00,56.3,47.0,30.06,NW,311,2.0,9.0,71,0.00,,---,0.00,VWS V14.01,2013-09-26 16:30:00,
2013-09-26 12:31:00,56.3,47.0,30.06,NE,47,1.0,9.0,71,0.00,,---,0.00,VWS V14.01,2013-09-26 16:31:00,
2013-09-26 12:32:00,56.4,48.2,30.06,North,7,6.0,9.0,74,0.00,,---,0.00,VWS V14.01,2013-09-26 16:32:00,
2013-09-26 12:33:00,56.5,47.6,30.06,NNE,33,2.0,9.0,72,0.00,,---,0.00,VWS V14.01,2013-09-26 16:33:00,
2013-09-26 12:34:00,55.1,48.4,30.07,North,359,5.0,7.0,78,0.00,,---,0.00,VWS V14.01,2013-09-26 16:34:00,
2013-09-26 12:35:00,56.5,47.2,30.06,ESE,114,1.0,9.0,71,0.00,,---,0.00,VWS V14.01,2013-09-26 16:35:00,
2013-09-26 12:36:00,56.6,48.4,30.06,NW,322,2.0,9.0,74,0.00,,---,0.00,VWS V14.01,2013-09-26 16:36:00,
2013-09-26 12:37:00,56.8,48.2,30.06,North,360,2.0,9.0,73,0.00,,---,0.00,VWS V14.01,2013-09-26 16:37:00,
2013-09-26 12:38:00,57.0,47.7,30.06,NW,315,5.0,7.0,71,0.00,,---,0.00,VWS V14.01,2013-09-26 16:38:00,
2013-09-26 12:39:00,57.1,47.0,30.06,East,83,6.0,10.0,69,0.00,,---,0.00,VWS V14.01,2013-09-26 16:39:00,
2013-09-26 12:40:00,55.2,47.1,30.07,ENE,65,1.0,9.0,74,0.00,,---,0.00,VWS V14.01,2013-09-26 16:40:00,
2013-09-26 12:41:00,57.1,46.7,30.06,North,349,3.0,10.0,68,0.00,,---,0.00,VWS V14.01,2013-09-26 16:41:00,
2013-09-26 12:42:00,57.1,47.0,30.06,NE,44,6.0,10.0,69,0.00,,---,0.00,VWS V14.01,2013-09-26 16:42:00,
2013-09-26 12:43:00,57.2,47.1,30.06,NNW,330,5.0,10.0,69,0.00,,---,0.00,VWS V14.01,2013-09-26 16:43:00,
2013-09-26 12:44:00,57.1,46.3,30.06,NE,35,4.0,10.0,67,0.00,,---,0.00,VWS V14.01,2013-09-26 16:44:00,
2013-09-26 12:45:00,55.2,47.1,30.07,NW,314,5.0,9.0,74,0.00,,---,0.00,VWS V14.01,2013-09-26 16:45:00,
2013-09-26 12:46:00,56.9,46.8,30.06,NW,316,5.0,10.0,69,0.00,,---,0.00,VWS V14.01,2013-09-26 16:46:00,
2013-09-26 12:47:00,56.8,46.8,30.06,WNW,300,2.0,9.0,69,0.00,,---,0.00,VWS V14.01,2013-09-26 16:47:00,
2013-09-26 12:48:00,56.9,46.8,30.06,NW,305,7.0,9.0,69,0.00,,---,0.00,VWS V14.01,2013-09-26 16:48:00,
2013-09-26 12:49:00,56.9,46.8,30.06,North,4,5.0,8.0,69,0.00,,---,0.00,VWS V14.01,2013-09-26 16:49:00,
2013-09-26 12:50:00,56.9,46.8,30.06,North,352,7.0,10.0,69,0.00,,---,0.00,VWS V14.01,2013-09-26 16:50:00,
2013-09-26 12:51:00,55.9,48.1,30.07,NW,322,3.0,12.0,75,0.00,,---,0.00,VWS V14.01,2013-09-26 16:51:00,
2013-09-26 12:52:00,56.9,47.2,30.06,NW,310,4.0,10.0,70,0.00,,---,0.00,VWS V14.01,2013-09-26 16:52:00,
2013-09-26 12:53:00,56.8,46.4,30.05,NW,315,4.0,10.0,68,0.00,,---,0.00,VWS V14.01,2013-09-26 16:53:00,
2013-09-26 12:54:00,56.8,47.1,30.06,NE,47,6.0,19.0,70,0.00,,---,0.00,VWS V14.01,2013-09-26 16:54:00,
2013-09-26 12:55:00,56.8,47.1,30.06,NNE,27,3.0,19.0,70,0.00,,---,0.00,VWS V14.01,2013-09-26 16:55:00,
2013-09-26 12:56:00,56.0,47.5,30.07,NW,318,5.0,10.0,73,0.00,,---,0.00,VWS V14.01,2013-09-26 16:56:00,
2013-09-26 12:57:00,57.0,47.3,30.05,NNE,27,4.0,19.0,70,0.00,,---,0.00,VWS V14.01,2013-09-26 16:57:00,
2013-09-26 12:58:00,57.1,47.4,30.05,NNW,335,2.0,19.0,70,0.00,,---,0.00,VWS V14.01,2013-09-26 16:58:00,
2013-09-26 12:59:00,57.2,48.3,30.05,NW,315,2.0,9.0,72,0.00,,---,0.00,VWS V14.01,2013-09-26 16:59:00,
2013-09-26 13:00:00,57.3,48.0,30.05,NNW,346,1.0,9.0,71,0.00,,---,0.00,VWS V14.01,2013-09-26 17:00:00,
2013-09-26 13:01:00,56.1,46.5,30.07,NW,322,5.0,11.0,70,0.00,,---,0.00,VWS V14.01,2013-09-26 17:01:00,
2013-09-26 13:02:00,57.7,49.1,30.05,NE,54,7.0,9.0,73,0.00,,---,0.00,VWS V14.01,2013-09-26 17:02:00,
2013-09-26 13:03:00,57.6,49.0,30.05,NE,50,5.0,9.0,73,0.00,,---,0.00,VWS V14.01,2013-09-26 17:03:00,
2013-09-26 13:04:00,57.5,47.0,30.05,NNW,336,4.0,9.0,68,0.00,,---,0.00,VWS V14.01,2013-09-26 17:04:00,
2013-09-26 13:05:00,57.4,47.3,30.05,NE,36,5.0,9.0,69,0.00,,---,0.00,VWS V14.01,2013-09-26 17:05:00,
2013-09-26 13:06:00,56.3,47.0,30.06,NNE,32,9.0,10.0,71,0.00,,---,0.00,VWS V14.01,2013-09-26 17:06:00,
2013-09-26 13:07:00,57.6,48.3,30.05,NNE,13,4.0,8.0,71,0.00,,---,0.00,VWS V14.01,2013-09-26 17:07:00,
2013-09-26 13:08:00,57.7,47.6,30.05,NE,53,5.0,7.0,69,0.00,,---,0.00,VWS V14.01,2013-09-26 17:08:00,
2013-09-26 13:09:00,57.7,46.8,30.05,WNW,297,6.0,10.0,67,0.00,,---,0.00,VWS V14.01,2013-09-26 17:09:00,
2013-09-26 13:10:00,57.6,47.1,30.05,WNW,302,7.0,10.0,68,0.00,,---,0.00,VWS V14.01,2013-09-26 17:10:00,
2013-09-26 13:11:00,56.3,47.0,30.06,NW,311,2.0,9.0,71,0.00,,---,0.00,VWS V14.01,2013-09-26 17:11:00,
2013-09-26 13:12:00,57.4,46.5,30.05,North,352,0.0,10.0,67,0.00,,---,0.00,VWS V14.01,2013-09-26 17:12:00,
2013-09-26 13:13:00,57.4,48.5,30.05,NE,44,2.0,10.0,72,0.00,,---,0.00,VWS V14.01,2013-09-26 17:13:00,
2013-09-26 13:14:00,57.5,47.8,30.05,NNW,330,2.0,9.0,70,0.00,,---,0.00,VWS V14.01,2013-09-26 17:14:00,
2013-09-26 13:15:00,57.6,47.5,30.05,NW,316,2.0,8.0,69,0.00,,---,0.00,VWS V14.01,2013-09-26 17:15:00,
2013-09-26 13:16:00,56.5,47.2,30.06,ESE,114,1.0,9.0,71,0.00,,---,0.00,VWS V14.01,2013-09-26 17:16:00,
2013-09-26 13:17:00,57.8,48.1,30.05,NE,44,8.0,8.0,70,0.00,,---,0.00,VWS V14.01,2013-09-26 17:17:00,
2013-09-26 13:18:00,57.9,47.8,30.05,NNW,330,5.0,8.0,69,0.00,,---,0.00,VWS V14.01,2013-09-26 17:18:00,
2013-09-26 13:19:00,58.0,47.9,30.05,NW,316,8.0,11.0,69,0.00,,---,0.00,VWS V14.01,2013-09-26 17:19:00,
2013-09-26 13:20:00,58.0,47.9,30.05,North,1,3.0,11.0,69,0.00,,---,0.00,VWS V14.01,2013-09-26 17:20:00,
2013-09-26 13:21:00,57.1,46.7,30.06,NE,53,4.0,10.0,68,0.00,,---,0.00,VWS V14.01,2013-09-26 17:21:00,
2013-09-26 13:22:00,58.0,47.5,30.05,NNW,338,3.0,11.0,68,0.00,,---,0.00,VWS V14.01,2013-09-26 17:22:00,
2013-09-26 13:23:00,57.9,48.2,30.05,NNE,25,5.0,11.0,70,0.00,,---,0.00,VWS V14.01,2013-09-26 17:23:00,
2013-09-26 13:24:00,57.8,47.3,30.05,NNW,332,3.0,10.0,68,0.00,,---,0.00,VWS V14.01,2013-09-26 17:24:00,
2013-09-26 13:25:00,57.7,47.6,30.05,NNE,27,3.0,7.0,69,0.00,,---,0.00,VWS V14.01,2013-09-26 17:25:00,
2013-09-26 13:26:00,57.7,48.0,30.05,NNW,338,8.0,8.0,70,0.00,,---,0.00,VWS V14.01,2013-09-26 17:26:00,
2013-09-26 13:27:00,56.9,46.8,30.06,NW,316,5.0,10.0,69,0.00,,---,0.00,VWS V14.01,2013-09-26 17:27:00,
2013-09-26 13:28:00,57.8,48.1,30.05,North,352,2.0,10.0,70,0.00,,---,0.00,VWS V14.01,2013-09-26 17:28:00,
2013-09-26 13:29:00,57.8,47.3,30.05,NW,304,7.0,10.0,68,0.00,,---,0.00,VWS V14.01,2013-09-26 17:29:00,
2013-09-26 13:30:00,57.7,47.6,30.05,NE,49,7.0,10.0,69,0.00,,---,0.00,VWS V14.01,2013-09-26 17:30:00,
2013-09-26 13:31:00,57.7,46.8,30.05,NNW,342,4.0,10.0,67,0.00,,---,0.00,VWS V14.01,2013-09-26 17:31:00,
2013-09-26 13:32:00,56.9,46.8,30.06,NNW,339,2.0,10.0,69,0.00,,---,0.00,VWS V14.01,2013-09-26 17:32:00,
2013-09-26 13:33:00,57.6,47.1,30.05,NE,39,9.0,9.0,68,0.00,,---,0.00,VWS V14.01,2013-09-26 17:33:00,
2013-09-26 13:34:00,57.5,47.0,30.05,NNE,30,5.0,9.0,68,0.00,,---,0.00,VWS V14.01,2013-09-26 17:34:00,
2013-09-26 13:35:00,57.5,47.0,30.05,NE,43,5.0,11.0,68,0.00,,---,0.00,VWS V14.01,2013-09-26 17:35:00,
2013-09-26 13:36:00,57.5,47.8,30.05,NE,47,4.0,11.0,70,0.00,,---,0.00,VWS V14.01,2013-09-26 17:36:00,
2013-09-26 13:37:00,57.0,47.3,30.05,ENE,62,4.0,19.0,70,0.00,,---,0.00,VWS V14.01,2013-09-26 17:37:00,
2013-09-26 13:38:00,57.5,47.4,30.05,NNW,347,1.0,11.0,69,0.00,,---,0.00,VWS V14.01,2013-09-26 17:38:00,
2013-09-26 13:39:00,57.6,47.9,30.05,WNW,292,5.0,11.0,70,0.00,,---,0.00,VWS V14.01,2013-09-26 17:39:00,
2013-09-26 13:40:00,57.7,48.0,30.05,NE,43,2.0,11.0,70,0.00,,---,0.00,VWS V14.01,2013-09-26 17:40:00,
2013-09-26 13:41:00,57.9,48.2,30.05,NW,306,3.0,11.0,70,0.00,,---,0.00,VWS V14.01,2013-09-26 17:41:00,
2013-09-26 13:42:00,58.1,48.0,30.05,NE,46,6.0,8.0,69,0.00,,---,0.00,VWS V14.01,2013-09-26 17:42:00,
2013-09-26 13:43:00,57.7,49.1,30.05,NE,54,7.0,9.0,73,0.00,,---,0.00,VWS V14.01,2013-09-26 17:43:00,
2013-09-26 13:44:00,58.3,48.6,30.05,North,352,6.0,7.0,70,0.00,,---,0.00,VWS V14.01,2013-09-26 17:44:00,
2013-09-26 13:45:00,58.4,47.9,30.05,NNW,338,6.0,7.0,68,0.00,,---,0.00,VWS V14.01,2013-09-26 17:45:00,
2013-09-26 13:46:00,58.4,48.3,30.05,WNW,300,5.0,7.0,69,0.00,,---,0.00,VWS V14.01,2013-09-26 17:46:00,
2013-09-26 13:47:00,58.5,48.0,30.05,NNW,345,6.0,10.0,68,0.00,,---,0.00,VWS V14.01,2013-09-26 17:47:00,
2013-09-26 13:48:00,57.6,48.3,30.05,NNE,13,4.0,8.0,71,0.00,,---,0.00,VWS V14.01,2013-09-26 17:48:00,
2013-09-26 13:49:00,58.5,47.6,30.05,ENE,72,4.0,10.0,67,0.00,,---,0.00,VWS V14.01,2013-09-26 17:49:00,
2013-09-26 13:50:00,58.4,47.5,30.05,ENE,60,3.0,10.0,67,0.00,,---,0.00,VWS V14.01,2013-09-26 17:50:00,
2013-09-26 13:51:00,58.4,48.3,30.05,NE,35,0.0,10.0,69,0.00,,---,0.00,VWS V14.01,2013-09-26 17:51:00,
2013-09-26 13:52:00,58.4,47.5,30.05,NNE,19,2.0,8.0,67,0.00,,---,0.00,VWS V14.01,2013-09-26 17:52:00,
2013-09-26 13:53:00,57.4,46.5,30.05,North,352,0.0,10.0,67,0.00,,---,0.00,VWS V14.01,2013-09-26 17:53:00,
2013-09-26 13:54:00,58.6,47.3,30.05,NE,49,7.0,16.0,66,0.00,,---,0.00,VWS V14.01,2013-09-26 17:54:00,
2013-09-26 13:55:00,58.5,47.2,30.05,NE,56,11.0,16.0,66,0.00,,---,0.00,VWS V14.01,2013-09-26 17:55:00,
2013-09-26 13:56:00,58.4,47.5,30.05,North,9,9.0,16.0,67,0.00,,---,0.00,VWS V14.01,2013-09-26 17:56:00,
2013-09-26 13:57:00,58.4,47.5,30.05,NE,49,6.0,16.0,67,0.00,,---,0.00,VWS V14.01,2013-09-26 17:57:00,
2013-09-26 13:58:00,57.8,48.1,30.05,NE,44,8.0,8.0,70,0.00,,---,0.00,VWS V14.01,2013-09-26 17:58:00,
2013-09-26 13:59:00,58.5,47.6,30.05,NW,311,3.0,13.0,67,0.00,,---,0.00,VWS V14.01,2013-09-26 17:59:00,
2013-09-26 14:00:00,58.9,48.0,30.05,SE,142,2.0,8.0,67,0.00,,---,0.00,VWS V14.01,2013-09-26 18:00:00,
2013-09-26 14:01:00,59.0,48.1,30.05,NE,39,3.0,8.0,67,0.00,,---,0.00,VWS V14.01,2013-09-26 18:01:00,
2013-09-26 14:02:00,58.6,47.7,30.05,NNW,339,3.0,9.0,67,0.00,,---,0.00,VWS V14.01,2013-09-26 18:02:00,
2013-09-26 14:03:00,58.6,46.9,30.05,NE,45,6.0,7.0,65,0.00,,---,0.00,VWS V14.01,2013-09-26 18:03:00,
2013-09-26 14:04:00,57.9,48.2,30.05,NNE,25,5.0,11.0,70,0.00,,---,0.00,VWS V14.01,2013-09-26 18:04:00,
2013-09-26 14:05:00,58.9,47.6,30.05,NNE,27,5.0,9.0,66,0.00,,---,0.00,VWS V14.01,2013-09-26 18:05:00,
2013-09-26 14:06:00,58.8,47.9,30.05,NW,315,4.0,8.0,67,0.00,,---,0.00,VWS V14.01,2013-09-26 18:06:00,
2013-09-26 14:07:00,58.8,47.9,30.05,North,1,1.0,8.0,67,0.00,,---,0.00,VWS V14.01,2013-09-26 18:07:00,
2013-09-26 14:08:00,58.9,48.0,30.05,ENE,72,4.0,8.0,67,0.00,,---,0.00,VWS V14.01,2013-09-26 18:08:00,
2013-09-26 14:09:00,57.8,48.1,30.05,North,352,2.0,10.0,70,0.00,,---,0.00,VWS V14.01,2013-09-26 18:09:00,
2013-09-26 14:10:00,58.9,48.0,30.05,NNW,338,2.0,6.0,67,0.00,,---,0.00,VWS V14.01,2013-09-26 18:10:00,
2013-09-26 14:11:00,58.9,48.0,30.05,North,360,4.0,6.0,67,0.00,,---,0.00,VWS V14.01,2013-09-26 18:11:00,
2013-09-26 14:12:00,58.7,47.8,30.05,ENE,70,5.0,10.0,67,0.00,,---,0.00,VWS V14.01,2013-09-26 18:12:00,
2013-09-26 14:13:00,58.7,47.8,30.05,NNE,22,4.0,8.0,67,0.00,,---,0.00,VWS V14.01,2013-09-26 18:13:00,
2013-09-26 14:14:00,57.6,47.1,30.05,NE,39,9.0,9.0,68,0.00,,---,0.00,VWS V14.01,2013-09-26 18:14:00,
2013-09-26 14:15:00,58.9,48.0,30.05,ENE,68,4.0,9.0,67,0.00,,---,0.00,VWS V14.01,2013-09-26 18:15:00,
2013-09-26 14:16:00,58.6,47.3,30.05,North,349,6.0,9.0,66,0.00,,---,0.00,VWS V14.01,2013-09-26 18:16:00,
2013-09-26 14:17:00,58.6,48.1,30.05,NNW,338,2.0,9.0,68,0.00,,---,0.00,VWS V14.01,2013-09-26 18:17:00,
2013-09-26 14:18:00,58.6,47.7,30.05,ENE,76,2.0,9.0,67,0.00,,---,0.00,VWS V14.01,2013-09-26 18:18:00,
2013-09-26 14:19:00,57.5,47.4,30.05,NNW,347,1.0,11.0,69,0.00,,---,0.00,VWS V14.01,2013-09-26 18:19:00,
2013-09-26 14:20:00,58.8,48.7,30.05,North,352,2.0,8.0,69,0.00,,---,0.00,VWS V14.01,2013-09-26 18:20:00,
2013-09-26 14:21:00,58.6,47.3,30.05,North,9,3.0,11.0,66,0.00,,---,0.00,VWS V14.01,2013-09-26 18:21:00,
2013-09-26 14:22:00,58.6,47.3,30.05,North,6,3.0,11.0,66,0.00,,---,0.00,VWS V14.01,2013-09-26 18:22:00,
2013-09-26 14:23:00,58.6,47.3,30.05,NNW,345,5.0,11.0,66,0.00,,---,0.00,VWS V14.01,2013-09-26 18:23:00,
2013-09-26 14:24:00,58.2,48.1,30.05,WNW,302,4.0,7.0,69,0.00,,---,0.00,VWS V14.01,2013-09-26 18:24:00,
2013-09-26 14:25:00,59.0,48.5,30.05,NNE,26,3.0,12.0,68,0.00,,---,0.00,VWS V14.01,2013-09-26 18:25:00,
2013-09-26 14:26:00,58.6,47.7,30.05,ENE,58,8.0,8.0,67,0.00,,---,0.00,VWS V14.01,2013-09-26 18:26:00,
2013-09-26 14:27:00,59.0,48.1,30.05,NNW,334,6.0,11.0,67,0.00,,---,0.00,VWS V14.01,2013-09-26 18:27:00,
2013-09-26 14:28:00,58.5,47.2,30.05,North,354,3.0,10.0,66,0.00,,---,0.00,VWS V14.01,2013-09-26 18:28:00,
2013-09-26 14:29:00,58.5,47.6,30.05,NNE,25,4.0,10.0,67,0.00,,---,0.00,VWS V14.01,2013-09-26 18:29:00,
2013-09-26 14:30:00,58.8,47.9,30.05,NNE,32,4.0,12.0,67,0.00,,---,0.00,VWS V14.01,2013-09-26 18:30:00,
2013-09-26 14:31:00,58.8,47.9,30.05,East,79,4.0,12.0,67,0.00,,---,0.00,VWS V14.01,2013-09-26 18:31:00,
2013-09-26 14:32:00,58.7,47.8,30.05,NE,43,7.0,12.0,67,0.00,,---,0.00,VWS V14.01,2013-09-26 18:32:00,
2013-09-26 14:33:00,58.7,47.4,30.05,NE,56,5.0,12.0,66,0.00,,---,0.00,VWS V14.01,2013-09-26 18:33:00,
2013-09-26 14:34:00,58.6,48.5,30.05,NE,53,6.0,8.0,69,0.00,,---,0.00,VWS V14.01,2013-09-26 18:34:00,
2013-09-26 14:35:00,58.8,47.5,30.05,NNE,23,5.0,12.0,66,0.00,,---,0.00,VWS V14.01,2013-09-26 18:35:00,
2013-09-26 14:36:00,58.8,48.3,30.05,NNE,23,6.0,12.0,68,0.00,,---,0.00,VWS V14.01,2013-09-26 18:36:00,
2013-09-26 14:37:00,58.7,48.2,30.05,East,84,2.0,9.0,68,0.00,,---,0.00,VWS V14.01,2013-09-26 18:37:00,
2013-09-26 14:38:00,58.7,48.6,30.05,ESE,115,1.0,9.0,69,0.00,,---,0.00,VWS V14.01,2013-09-26 18:38:00,
2013-09-26 14:39:00,58.4,47.5,30.05,NNE,30,2.0,16.0,67,0.00,,---,0.00,VWS V14.01,2013-09-26 18:39:00,
2013-09-26 14:40:00,58.6,46.9,30.05,NNE,25,10.0,12.0,65,0.00,,---,0.00,VWS V14.01,2013-09-26 18:40:00,
2013-09-26 14:41:00,58.6,46.5,30.05,ENE,62,3.0,12.0,64,0.00,,---,0.00,VWS V14.01,2013-09-26 18:41:00,
2013-09-26 14:42:00,58.9,48.4,30.05,ENE,60,5.0,7.0,68,0.00,,---,0.00,VWS V14.01,2013-09-26 18:42:00,
2013-09-26 14:43:00,58.5,47.6,30.05,NE,51,8.0,12.0,67,0.00,,---,0.00,VWS V14.01,2013-09-26 18:43:00,
2013-09-26 14:44:00,59.0,48.9,30.05,NW,310,4.0,7.0,69,0.00,,---,0.00,VWS V14.01,2013-09-26 18:44:00,
2013-09-26 14:45:00,58.6,47.3,30.05,NNW,338,2.0,7.0,66,0.00,,---,0.00,VWS V14.01,2013-09-26 18:45:00,
2013-09-26 14:46:00,59.0,48.5,30.05,NE,44,4.0,7.0,68,0.00,,---,0.00,VWS V14.01,2013-09-26 18:46:00,
2013-09-26 14:47:00,58.9,47.6,30.05,NW,324,3.0,11.0,66,0.00,,---,0.00,VWS V14.01,2013-09-26 18:47:00,
2013-09-26 14:48:00,58.8,47.5,30.05,WNW,298,5.0,11.0,66,0.00,,---,0.00,VWS V14.01,2013-09-26 18:48:00,
2013-09-26 14:49:00,58.8,47.5,30.05,NNW,339,5.0,11.0,66,0.00,,---,0.00,VWS V14.01,2013-09-26 18:49:00,
2013-09-26 14:50:00,58.8,47.5,30.05,NE,35,4.0,11.0,66,0.00,,---,0.00,VWS V14.01,2013-09-26 18:50:00,
2013-09-26 14:51:00,58.7,47.0,30.05,NNW,346,6.0,10.0,65,0.00,,---,0.00,VWS V14.01,2013-09-26 18:51:00,
2013-09-26 14:52:00,58.9,48.4,30.05,ENE,70,3.0,9.0,68,0.00,,---,0.00,VWS V14.01,2013-09-26 18:52:00,
2013-09-26 14:53:00,58.9,48.0,30.05,ESE,105,8.0,9.0,67,0.00,,---,0.00,VWS V14.01,2013-09-26 18:53:00,
2013-09-26 14:54:00,58.9,47.6,30.05,East,84,3.0,9.0,66,0.00,,---,0.00,VWS V14.01,2013-09-26 18:54:00,
2013-09-26 14:55:00,58.9,47.2,30.05,NNW,345,4.0,14.0,65,0.00,,---,0.00,VWS V14.01,2013-09-26 18:55:00,
2013-09-26 14:56:00,58.6,47.7,30.05,WNW,300,4.0,9.0,67,0.00,,---,0.00,VWS V14.01,2013-09-26 18:56:00,
2013-09-26 14:57:00,58.9,47.6,30.05,NNE,15,4.0,14.0,66,0.00,,---,0.00,VWS V14.01,2013-09-26 18:57:00,
2013-09-26 14:58:00,58.9,47.2,30.05,NE,39,3.0,14.0,65,0.00,,---,0.00,VWS V14.01,2013-09-26 18:58:00,
2013-09-26 14:59:00,58.9,47.6,30.05,ENE,64,5.0,14.0,66,0.00,,---,0.00,VWS V14.01,2013-09-26 18:59:00,
2013-09-26 15:00:00,58.3,48.2,30.06,North,349,4.0,9.0,69,0.00,,---,0.00,VWS V14.01,2013-09-26 19:00:00,
2013-09-26 15:01:00,58.7,47.4,30.05,North,9,5.0,11.0,66,0.00,,---,0.00,VWS V14.01,2013-09-26 19:01:00,
2013-09-26 15:02:00,59.1,49.0,30.05,NE,49,3.0,6.0,69,0.00,,---,0.00,VWS V14.01,2013-09-26 19:02:00,
2013-09-26 15:03:00,59.1,48.6,30.05,ENE,65,5.0,9.0,68,0.00,,---,0.00,VWS V14.01,2013-09-26 19:03:00,
2013-09-26 15:04:00,59.0,47.7,30.05,ENE,61,6.0,9.0,66,0.00,,---,0.00,VWS V14.01,2013-09-26 19:04:00,
2013-09-26 15:05:00,58.1,48.0,30.06,NE,45,3.0,9.0,69,0.00,,---,0.00,VWS V14.01,2013-09-26 19:05:00,
2013-09-26 15:06:00,58.9,48.0,30.05,NNE,16,5.0,9.0,67,0.00,,---,0.00,VWS V14.01,2013-09-26 19:06:00,
2013-09-26 15:07:00,58.6,47.7,30.05,ENE,58,8.0,8.0,67,0.00,,---,0.00,VWS V14.01,2013-09-26 19:07:00,
2013-09-26 15:08:00,58.9,48.0,30.05,ENE,72,4.0,8.0,67,0.00,,---,0.00,VWS V14.01,2013-09-26 19:08:00,
2013-09-26 15:09:00,58.9,48.4,30.05,ENE,67,2.0,6.0,68,0.00,,---,0.00,VWS V14.01,2013-09-26 19:09:00,
2013-09-26 15:10:00,58.2,48.5,30.06,ENE,77,2.0,6.0,70,0.00,,---,0.00,VWS V14.01,2013-09-26 19:10:00,
2013-09-26 15:11:00,58.3,48.6,30.06,ENE,73,6.0,7.0,70,0.00,,---,0.00,VWS V14.01,2013-09-26 19:11:00,
2013-09-26 15:12:00,58.6,47.7,30.05,ENE,75,5.0,12.0,67,0.00,,---,0.00,VWS V14.01,2013-09-26 19:12:00,
2013-09-26 15:13:00,58.9,48.4,30.05,ENE,65,5.0,7.0,68,0.00,,---,0.00,VWS V14.01,2013-09-26 19:13:00,
2013-09-26 15:14:00,58.9,48.0,30.05,East,86,2.0,9.0,67,0.00,,---,0.00,VWS V14.01,2013-09-26 19:14:00,
2013-09-26 15:15:00,58.9,48.0,30.05,ENE,68,4.0,9.0,67,0.00,,---,0.00,VWS V14.01,2013-09-26 19:15:00,
2013-09-26 15:16:00,58.1,48.8,30.06,ENE,65,4.0,8.0,71,0.00,,---,0.00,VWS V14.01,2013-09-26 19:16:00,
2013-09-26 15:17:00,58.8,48.3,30.05,NNE,23,6.0,12.0,68,0.00,,---,0.00,VWS V14.01,2013-09-26 19:17:00,
2013-09-26 15:18:00,58.0,48.3,30.06,NE,43,6.0,8.0,70,0.00,,---,0.00,VWS V14.01,2013-09-26 19:18:00,
2013-09-26 15:19:00,58.0,48.3,30.06,NNE,30,5.0,8.0,70,0.00,,---,0.00,VWS V14.01,2013-09-26 19:19:00,
2013-09-26 15:20:00,57.9,48.2,30.06,ENE,64,4.0,8.0,70,0.00,,---,0.00,VWS V14.01,2013-09-26 19:20:00,
2013-09-26 15:21:00,58.9,48.8,30.05,NNW,338,6.0,9.0,69,0.00,,---,0.00,VWS V14.01,2013-09-26 19:21:00,
2013-09-26 15:22:00,58.9,48.0,30.05,North,352,2.0,12.0,67,0.00,,---,0.00,VWS V14.01,2013-09-26 19:22:00,
2013-09-26 15:23:00,58.5,47.2,30.05,ENE,58,5.0,12.0,66,0.00,,---,0.00,VWS V14.01,2013-09-26 19:23:00,
2013-09-26 15:24:00,58.9,48.8,30.05,NE,50,5.0,12.0,69,0.00,,---,0.00,VWS V14.01,2013-09-26 19:24:00,
2013-09-26 15:25:00,59.0,48.5,30.05,NNE,26,3.0,12.0,68,0.00,,---,0.00,VWS V14.01,2013-09-26 19:25:00,
2013-09-26 15:26:00,59.0,48.5,30.05,North,356,4.0,12.0,68,0.00,,---,0.00,VWS V14.01,2013-09-26 19:26:00,
2013-09-26 15:27:00,57.8,48.5,30.06,NNW,342,1.0,8.0,71,0.00,,---,0.00,VWS V14.01,2013-09-26 19:27:00,
2013-09-26 15:28:00,58.9,47.6,30.05,NW,324,3.0,11.0,66,0.00,,---,0.00,VWS V14.01,2013-09-26 19:28:00,
2013-09-26 15:29:00,59.0,48.1,30.05,NE,56,9.0,12.0,67,0.00,,---,0.00,VWS V14.01,2013-09-26 19:29:00,
2013-09-26 15:30:00,58.8,47.9,30.05,NNE,32,4.0,12.0,67,0.00,,---,0.00,VWS V14.01,2013-09-26 19:30:00,
2013-09-26 15:31:00,58.8,47.9,30.05,East,79,4.0,12.0,67,0.00,,---,0.00,VWS V14.01,2013-09-26 19:31:00,
2013-09-26 15:32:00,58.8,48.3,30.05,NNE,15,6.0,12.0,68,0.00,,---,0.00,VWS V14.01,2013-09-26 19:32:00,
2013-09-26 15:33:00,57.9,48.6,30.06,North,354,5.0,8.0,71,0.00,,---,0.00,VWS V14.01,2013-09-26 19:33:00,
2013-09-26 15:34:00,58.9,48.0,30.05,ESE,105,8.0,9.0,67,0.00,,---,0.00,VWS V14.01,2013-09-26 19:34:00,
2013-09-26 15:35:00,57.8,48.1,30.06,WNW,294,2.0,10.0,70,0.00,,---,0.00,VWS V14.01,2013-09-26 19:35:00,
2013-09-26 15:36:00,58.6,48.1,30.05,ENE,65,8.0,9.0,68,0.00,,---,0.00,VWS V14.01,2013-09-26 19:36:00,
2013-09-26 15:37:00,57.9,48.6,30.06,NE,47,1.0,10.0,71,0.00,,---,0.00,VWS V14.01,2013-09-26 19:37:00,
2013-09-26 15:38:00,58.7,48.6,30.05,ESE,115,1.0,9.0,69,0.00,,---,0.00,VWS V14.01,2013-09-26 19:38:00,
2013-09-26 15:39:00,58.9,47.2,30.05,NE,39,3.0,14.0,65,0.00,,---,0.00,VWS V14.01,2013-09-26 19:39:00,
2013-09-26 15:40:00,58.8,48.3,30.05,NE,43,0.0,9.0,68,0.00,,---,0.00,VWS V14.01,2013-09-26 19:40:00,
2013-09-26 15:41:00,58.9,48.4,30.05,ENE,65,7.0,9.0,68,0.00,,---,0.00,VWS V14.01,2013-09-26 19:41:00,
2013-09-26 15:42:00,58.9,48.4,30.05,ENE,60,5.0,7.0,68,0.00,,---,0.00,VWS V14.01,2013-09-26 19:42:00,
2013-09-26 15:43:00,58.9,48.8,30.05,NNW,348,4.0,7.0,69,0.00,,---,0.00,VWS V14.01,2013-09-26 19:43:00,
2013-09-26 15:44:00,59.1,48.6,30.05,ENE,65,5.0,9.0,68,0.00,,---,0.00,VWS V14.01,2013-09-26 19:44:00,
2013-09-26 15:45:00,59.0,48.5,30.05,ENE,71,4.0,7.0,68,0.00,,---,0.00,VWS V14.01,2013-09-26 19:45:00,
2013-09-26 15:46:00,57.6,48.3,30.07,North,8,3.0,7.0,71,0.00,,---,0.00,VWS V14.01,2013-09-26 19:46:00,
2013-09-26 15:47:00,57.6,48.3,30.07,ENE,63,4.0,7.0,71,0.00,,---,0.00,VWS V14.01,2013-09-26 19:47:00,
2013-09-26 15:48:00,59.0,48.1,30.05,NE,39,4.0,9.0,67,0.00,,---,0.00,VWS V14.01,2013-09-26 19:48:00,
2013-09-26 15:49:00,57.5,48.2,30.07,North,1,4.0,7.0,71,0.00,,---,0.00,VWS V14.01,2013-09-26 19:49:00,
2013-09-26 15:50:00,58.7,47.8,30.06,NNW,338,4.0,10.0,67,0.00,,---,0.00,VWS V14.01,2013-09-26 19:50:00,
2013-09-26 15:51:00,58.7,48.6,30.05,NNW,345,5.0,10.0,69,0.00,,---,0.00,VWS V14.01,2013-09-26 19:51:00,
2013-09-26 15:52:00,58.7,48.6,30.06,NNW,338,6.0,10.0,69,0.00,,---,0.00,VWS V14.01,2013-09-26 19:52:00,
2013-09-26 15:53:00,58.9,47.6,30.05,North,7,2.0,7.0,66,0.00,,---,0.00,VWS V14.01,2013-09-26 19:53:00,
2013-09-26 15:54:00,58.5,48.4,30.05,NE,49,3.0,10.0,69,0.00,,---,0.00,VWS V14.01,2013-09-26 19:54:00,
2013-09-26 15:55:00,58.5,48.4,30.05,NE,56,5.0,8.0,69,0.00,,---,0.00,VWS V14.01,2013-09-26 19:55:00,
2013-09-26 15:56:00,57.2,47.9,30.07,ENE,73,1.0,6.0,71,0.00,,---,0.00,VWS V14.01,2013-09-26 19:56:00,
2013-09-26 15:57:00,57.2,48.3,30.07,ENE,58,2.0,6.0,72,0.00,,---,0.00,VWS V14.01,2013-09-26 19:57:00,
2013-09-26 15:58:00,58.9,48.0,30.05,NE,49,8.0,9.0,67,0.00,,---,0.00,VWS V14.01,2013-09-26 19:58:00,
2013-09-26 15:59:00,58.4,48.7,30.06,North,355,7.0,9.0,70,0.00,,---,0.00,VWS V14.01,2013-09-26 19:59:00,
2013-09-26 16:00:00,57.2,48.3,30.07,ENE,59,5.0,5.0,72,0.00,,---,0.00,VWS V14.01,2013-09-26 20:00:00,
2013-09-26 16:01:00,57.2,47.9,30.07,North,11,1.0,5.0,71,0.00,,---,0.00,VWS V14.01,2013-09-26 20:01:00,
2013-09-26 16:02:00,58.3,49.0,30.06,NE,46,8.0,9.0,71,0.00,,---,0.00,VWS V14.01,2013-09-26 20:02:00,
2013-09-26 16:03:00,58.9,48.0,30.05,North,352,2.0,12.0,67,0.00,,---,0.00,VWS V14.01,2013-09-26 20:03:00,
2013-09-26 16:04:00,58.2,48.1,30.06,NNE,25,4.0,9.0,69,0.00,,---,0.00,VWS V14.01,2013-09-26 20:04:00,
2013-09-26 16:05:00,58.1,48.0,30.06,NE,45,3.0,9.0,69,0.00,,---,0.00,VWS V14.01,2013-09-26 20:05:00,
2013-09-26 16:06:00,58.1,48.4,30.06,NE,56,0.0,9.0,70,0.00,,---,0.00,VWS V14.01,2013-09-26 20:06:00,
2013-09-26 16:07:00,58.1,49.1,30.06,NNW,336,3.0,9.0,72,0.00,,---,0.00,VWS V14.01,2013-09-26 20:07:00,
2013-09-26 16:08:00,58.1,48.8,30.06,North,354,2.0,6.0,71,0.00,,---,0.00,VWS V14.01,2013-09-26 20:08:00,
2013-09-26 16:09:00,59.0,48.5,30.05,NNW,345,3.0,11.0,68,0.00,,---,0.00,VWS V14.01,2013-09-26 20:09:00,
2013-09-26 16:10:00,58.2,48.5,30.06,ENE,77,2.0,6.0,70,0.00,,---,0.00,VWS V14.01,2013-09-26 20:10:00,
2013-09-26 16:12:00,56.8,47.9,30.07,East,99,3.0,6.0,72,0.00,,---,0.00,VWS V14.01,2013-09-26 20:12:00,
2013-09-26 16:13:00,58.1,48.0,30.06,ENE,63,3.0,8.0,69,0.00,,---,0.00,VWS V14.01,2013-09-26 20:13:00,
2013-09-26 16:14:00,58.7,47.8,30.05,NE,47,6.0,12.0,67,0.00,,---,0.00,VWS V14.01,2013-09-26 20:14:00,
2013-09-26 16:15:00,56.7,47.8,30.07,NE,41,2.0,6.0,72,0.00,,---,0.00,VWS V14.01,2013-09-26 20:15:00,
2013-09-26 16:16:00,58.1,48.8,30.06,ENE,65,4.0,8.0,71,0.00,,---,0.00,VWS V14.01,2013-09-26 20:16:00,
2013-09-26 16:17:00,58.1,48.4,30.06,NE,44,2.0,8.0,70,0.00,,---,0.00,VWS V14.01,2013-09-26 20:17:00,
2013-09-26 16:18:00,58.0,48.3,30.06,NE,43,6.0,8.0,70,0.00,,---,0.00,VWS V14.01,2013-09-26 20:18:00,
2013-09-26 16:19:00,58.0,48.3,30.06,NNE,30,5.0,8.0,70,0.00,,---,0.00,VWS V14.01,2013-09-26 20:19:00,
2013-09-26 16:20:00,57.9,48.2,30.06,ENE,64,4.0,8.0,70,0.00,,---,0.00,VWS V14.01,2013-09-26 20:20:00,
2013-09-26 16:21:00,58.8,48.3,30.05,NE,43,0.0,9.0,68,0.00,,---,0.00,VWS V14.01,2013-09-26 20:21:00,
2013-09-26 16:22:00,57.9,48.2,30.06,NNE,26,6.0,8.0,70,0.00,,---,0.00,VWS V14.01,2013-09-26 20:22:00,
2013-09-26 16:23:00,57.9,48.2,30.06,East,85,6.0,8.0,70,0.00,,---,0.00,VWS V14.01,2013-09-26 20:23:00,
2013-09-26 16:24:00,56.5,48.0,30.07,ENE,60,2.0,4.0,73,0.00,,---,0.00,VWS V14.01,2013-09-26 20:24:00,
2013-09-26 16:25:00,57.8,48.1,30.06,NNE,15,5.0,8.0,70,0.00,,---,0.00,VWS V14.01,2013-09-26 20:25:00,
2013-09-26 16:26:00,57.8,48.1,30.06,NE,37,1.0,8.0,70,0.00,,---,0.00,VWS V14.01,2013-09-26 20:26:00,
2013-09-26 16:27:00,56.4,47.9,30.07,East,86,1.0,4.0,73,0.00,,---,0.00,VWS V14.01,2013-09-26 20:27:00,
2013-09-26 16:28:00,59.1,48.6,30.05,NNW,331,5.0,7.0,68,0.00,,---,0.00,VWS V14.01,2013-09-26 20:28:00,
2013-09-26 16:29:00,56.3,47.8,30.07,East,94,1.0,3.0,73,0.00,,---,0.00,VWS V14.01,2013-09-26 20:29:00,
2013-09-26 16:30:00,57.9,48.6,30.06,North,8,5.0,8.0,71,0.00,,---,0.00,VWS V14.01,2013-09-26 20:30:00,
2013-09-26 16:31:00,57.9,48.2,30.06,North,4,3.0,8.0,70,0.00,,---,0.00,VWS V14.01,2013-09-26 20:31:00,
2013-09-26 16:32:00,57.9,48.6,30.06,North,360,4.0,8.0,71,0.00,,---,0.00,VWS V14.01,2013-09-26 20:32:00,
2013-09-26 16:33:00,58.7,48.6,30.06,NNW,338,6.0,10.0,69,0.00,,---,0.00,VWS V14.01,2013-09-26 20:33:00,
2013-09-26 16:34:00,57.9,48.2,30.06,NE,47,5.0,10.0,70,0.00,,---,0.00,VWS V14.01,2013-09-26 20:34:00,
2013-09-26 16:35:00,57.8,48.1,30.06,WNW,294,2.0,10.0,70,0.00,,---,0.00,VWS V14.01,2013-09-26 20:35:00,
2013-09-26 16:36:00,57.8,48.1,30.06,North,10,2.0,10.0,70,0.00,,---,0.00,VWS V14.01,2013-09-26 20:36:00,
2013-09-26 16:37:00,57.9,48.6,30.06,NE,47,1.0,10.0,71,0.00,,---,0.00,VWS V14.01,2013-09-26 20:37:00,
2013-09-26 16:38:00,55.9,47.7,30.08,East,93,0.0,3.0,74,0.00,,---,0.00,VWS V14.01,2013-09-26 20:38:00,
2013-09-26 16:39:00,55.8,48.0,30.08,East,93,1.0,3.0,75,0.00,,---,0.00,VWS V14.01,2013-09-26 20:39:00,
2013-09-26 16:40:00,58.4,48.7,30.06,North,355,7.0,9.0,70,0.00,,---,0.00,VWS V14.01,2013-09-26 20:40:00,
2013-09-26 16:41:00,57.8,48.5,30.07,East,81,3.0,7.0,71,0.00,,---,0.00,VWS V14.01,2013-09-26 20:41:00,
2013-09-26 16:42:00,55.7,47.9,30.08,East,92,0.0,2.0,75,0.00,,---,0.00,VWS V14.01,2013-09-26 20:42:00,
2013-09-26 16:43:00,55.7,47.9,30.08,East,92,0.0,2.0,75,0.00,,---,0.00,VWS V14.01,2013-09-26 20:43:00,
2013-09-26 16:44:00,57.6,48.3,30.07,NNE,26,4.0,7.0,71,0.00,,---,0.00,VWS V14.01,2013-09-26 20:44:00,
2013-09-26 16:45:00,58.2,48.1,30.06,NNE,25,4.0,9.0,69,0.00,,---,0.00,VWS V14.01,2013-09-26 20:45:00,
2013-09-26 16:46:00,55.4,47.6,30.08,NE,45,0.0,2.0,75,0.00,,---,0.00,VWS V14.01,2013-09-26 20:46:00,
2013-09-26 16:47:00,57.6,48.3,30.07,ENE,63,4.0,7.0,71,0.00,,---,0.00,VWS V14.01,2013-09-26 20:47:00,
2013-09-26 16:48:00,57.5,48.2,30.07,NE,39,4.0,7.0,71,0.00,,---,0.00,VWS V14.01,2013-09-26 20:48:00,
2013-09-26 16:49:00,57.5,48.2,30.07,North,1,4.0,7.0,71,0.00,,---,0.00,VWS V14.01,2013-09-26 20:49:00,
2013-09-26 16:50:00,58.2,48.8,30.06,North,11,2.0,6.0,71,0.00,,---,0.00,VWS V14.01,2013-09-26 20:50:00,
2013-09-26 16:51:00,57.4,48.1,30.07,North,9,3.0,6.0,71,0.00,,---,0.00,VWS V14.01,2013-09-26 20:51:00,
2013-09-26 16:52:00,57.4,48.1,30.07,ENE,76,3.0,6.0,71,0.00,,---,0.00,VWS V14.01,2013-09-26 20:52:00,
2013-09-26 16:53:00,57.3,48.0,30.07,NNE,33,4.0,6.0,71,0.00,,---,0.00,VWS V14.01,2013-09-26 20:53:00,
2013-09-26 16:54:00,57.3,48.0,30.07,NE,47,4.0,6.0,71,0.00,,---,0.00,VWS V14.01,2013-09-26 20:54:00,
2013-09-26 16:55:00,54.7,47.6,30.08,NNE,32,0.0,1.0,77,0.00,,---,0.00,VWS V14.01,2013-09-26 20:55:00,
2013-09-26 16:56:00,58.1,48.4,30.06,North,356,5.0,8.0,70,0.00,,---,0.00,VWS V14.01,2013-09-26 20:56:00,
2013-09-26 16:57:00,57.2,48.3,30.07,ENE,58,2.0,6.0,72,0.00,,---,0.00,VWS V14.01,2013-09-26 20:57:00,
2013-09-26 16:58:00,57.2,48.3,30.07,ENE,58,2.0,6.0,72,0.00,,---,0.00,VWS V14.01,2013-09-26 20:58:00,
2013-09-26 16:59:00,57.2,47.9,30.07,ENE,73,2.0,6.0,71,0.00,,---,0.00,VWS V14.01,2013-09-26 20:59:00,
2013-09-26 17:00:00,57.2,48.3,30.07,ENE,59,5.0,5.0,72,0.00,,---,0.00,VWS V14.01,2013-09-26 21:00:00,
2013-09-26 17:01:00,57.2,47.9,30.07,North,11,1.0,5.0,71,0.00,,---,0.00,VWS V14.01,2013-09-26 21:01:00,
2013-09-26 17:02:00,57.9,48.6,30.06,NE,39,5.0,8.0,71,0.00,,---,0.00,VWS V14.01,2013-09-26 21:02:00,
2013-09-26 17:03:00,57.2,48.3,30.07,NE,34,3.0,5.0,72,0.00,,---,0.00,VWS V14.01,2013-09-26 21:03:00,
2013-09-26 17:04:00,57.2,47.9,30.07,NNE,23,0.0,5.0,71,0.00,,---,0.00,VWS V14.01,2013-09-26 21:04:00,
2013-09-26 17:05:00,57.2,47.9,30.07,NNE,33,5.0,5.0,71,0.00,,---,0.00,VWS V14.01,2013-09-26 21:05:00,
2013-09-26 17:06:00,57.2,47.9,30.07,NNE,32,4.0,5.0,71,0.00,,---,0.00,VWS V14.01,2013-09-26 21:06:00,
2013-09-26 17:07:00,57.8,48.1,30.06,NE,37,1.0,8.0,70,0.00,,---,0.00,VWS V14.01,2013-09-26 21:07:00,
2013-09-26 17:08:00,57.1,48.2,30.07,ENE,58,4.0,5.0,72,0.00,,---,0.00,VWS V14.01,2013-09-26 21:08:00,
2013-09-26 17:09:00,57.0,47.7,30.07,NNE,31,3.0,5.0,71,0.00,,---,0.00,VWS V14.01,2013-09-26 21:09:00,
2013-09-26 17:10:00,56.9,47.6,30.07,NNE,18,4.0,6.0,71,0.00,,---,0.00,VWS V14.01,2013-09-26 21:10:00,
2013-09-26 17:11:00,56.8,47.5,30.07,NNE,33,3.0,6.0,71,0.00,,---,0.00,VWS V14.01,2013-09-26 21:11:00,
2013-09-26 17:12:00,56.8,47.9,30.07,East,99,3.0,6.0,72,0.00,,---,0.00,VWS V14.01,2013-09-26 21:12:00,
2013-09-26 17:13:00,56.7,47.8,30.07,NE,40,2.0,6.0,72,0.00,,---,0.00,VWS V14.01,2013-09-26 21:13:00,
2013-09-26 17:14:00,52.0,46.4,30.08,NE,39,0.0,1.0,81,0.00,,---,0.00,VWS V14.01,2013-09-26 21:14:00,
2013-09-26 17:15:00,51.9,46.3,30.08,NE,39,0.0,1.0,81,0.00,,---,0.00,VWS V14.01,2013-09-26 21:15:00,
2013-09-26 17:16:00,56.6,47.7,30.07,ENE,69,3.0,4.0,72,0.00,,---,0.00,VWS V14.01,2013-09-26 21:16:00,
2013-09-26 17:17:00,57.8,48.1,30.06,North,10,2.0,10.0,70,0.00,,---,0.00,VWS V14.01,2013-09-26 21:17:00,
2013-09-26 17:18:00,51.6,46.3,30.09,NE,39,0.0,1.0,82,0.00,,---,0.00,VWS V14.01,2013-09-26 21:18:00,
2013-09-26 17:19:00,51.5,46.2,30.09,NE,39,0.0,1.0,82,0.00,,---,0.00,VWS V14.01,2013-09-26 21:19:00,
2013-09-26 17:20:00,56.6,48.1,30.07,NE,56,2.0,4.0,73,0.00,,---,0.00,VWS V14.01,2013-09-26 21:20:00,
2013-09-26 17:21:00,56.5,48.0,30.07,NE,51,2.0,4.0,73,0.00,,---,0.00,VWS V14.01,2013-09-26 21:21:00,
2013-09-26 17:22:00,56.5,47.6,30.07,NNE,23,2.0,4.0,72,0.00,,---,0.00,VWS V14.01,2013-09-26 21:22:00,
2013-09-26 17:23:00,57.7,48.0,30.07,NE,41,2.0,7.0,70,0.00,,---,0.00,VWS V14.01,2013-09-26 21:23:00,
2013-09-26 17:24:00,56.5,48.0,30.07,ENE,60,2.0,4.0,73,0.00,,---,0.00,VWS V14.01,2013-09-26 21:24:00,
2013-09-26 17:25:00,56.4,47.9,30.07,ENE,72,1.0,4.0,73,0.00,,---,0.00,VWS V14.01,2013-09-26 21:25:00,
2013-09-26 17:26:00,56.4,47.9,30.07,ENE,62,1.0,4.0,73,0.00,,---,0.00,VWS V14.01,2013-09-26 21:26:00,
2013-09-26 17:27:00,56.4,47.9,30.07,East,86,1.0,4.0,73,0.00,,---,0.00,VWS V14.01,2013-09-26 21:27:00,
2013-09-26 17:28:00,56.3,47.8,30.07,East,91,1.0,3.0,73,0.00,,---,0.00,VWS V14.01,2013-09-26 21:28:00,
2013-09-26 17:29:00,57.5,48.2,30.07,NE,39,4.0,7.0,71,0.00,,---,0.00,VWS V14.01,2013-09-26 21:29:00,
2013-09-26 17:30:00,56.3,47.8,30.07,ENE,67,0.0,3.0,73,0.00,,---,0.00,VWS V14.01,2013-09-26 21:30:00,
2013-09-26 17:31:00,56.3,48.1,30.07,NE,35,1.0,2.0,74,0.00,,---,0.00,VWS V14.01,2013-09-26 21:31:00,
2013-09-26 17:32:00,56.2,48.0,30.08,NE,36,1.0,2.0,74,0.00,,---,0.00,VWS V14.01,2013-09-26 21:32:00,
2013-09-26 17:33:00,50.8,46.2,30.09,NE,37,0.0,2.0,84,0.00,,---,0.00,VWS V14.01,2013-09-26 21:33:00,
2013-09-26 17:34:00,57.3,48.0,30.07,NNE,33,4.0,6.0,71,0.00,,---,0.00,VWS V14.01,2013-09-26 21:34:00,
2013-09-26 17:35:00,56.1,47.9,30.08,NE,39,2.0,2.0,74,0.00,,---,0.00,VWS V14.01,2013-09-26 21:35:00,
2013-09-26 17:36:00,56.0,47.8,30.08,ENE,63,1.0,3.0,74,0.00,,---,0.00,VWS V14.01,2013-09-26 21:36:00,
2013-09-26 17:37:00,55.9,47.7,30.08,East,94,1.0,3.0,74,0.00,,---,0.00,VWS V14.01,2013-09-26 21:37:00,
2013-09-26 17:38:00,55.9,47.7,30.08,East,93,0.0,3.0,74,0.00,,---,0.00,VWS V14.01,2013-09-26 21:38:00,
2013-09-26 17:39:00,55.8,48.0,30.08,East,93,1.0,3.0,75,0.00,,---,0.00,VWS V14.01,2013-09-26 21:39:00,
2013-09-26 17:40:00,57.2,47.9,30.07,ENE,73,2.0,6.0,71,0.00,,---,0.00,VWS V14.01,2013-09-26 21:40:00,
2013-09-26 17:41:00,55.8,48.0,30.08,East,91,1.0,2.0,75,0.00,,---,0.00,VWS V14.01,2013-09-26 21:41:00,
2013-09-26 17:42:00,55.7,47.9,30.08,East,92,0.0,2.0,75,0.00,,---,0.00,VWS V14.01,2013-09-26 21:42:00,
2013-09-26 17:43:00,55.7,47.9,30.08,East,92,0.0,2.0,75,0.00,,---,0.00,VWS V14.01,2013-09-26 21:43:00,
2013-09-26 17:44:00,55.5,47.7,30.08,NE,46,2.0,2.0,75,0.00,,---,0.00,VWS V14.01,2013-09-26 21:44:00,
2013-09-26 17:45:00,55.4,47.6,30.08,NE,46,1.0,2.0,75,0.00,,---,0.00,VWS V14.01,2013-09-26 21:45:00,
2013-09-26 17:46:00,57.2,47.9,30.07,NNE,23,0.0,5.0,71,0.00,,---,0.00,VWS V14.01,2013-09-26 21:46:00,
2013-09-26 17:47:00,55.3,47.5,30.08,NE,46,0.0,2.0,75,0.00,,---,0.00,VWS V14.01,2013-09-26 21:47:00,
2013-09-26 17:48:00,55.2,47.8,30.08,ENE,70,1.0,2.0,76,0.00,,---,0.00,VWS V14.01,2013-09-26 21:48:00,
2013-09-26 17:49:00,55.1,47.7,30.08,ENE,70,0.0,2.0,76,0.00,,---,0.00,VWS V14.01,2013-09-26 21:49:00,
2013-09-26 17:50:00,55.0,47.6,30.08,ENE,70,0.0,2.0,76,0.00,,---,0.00,VWS V14.01,2013-09-26 21:50:00,
2013-09-26 17:51:00,56.9,47.6,30.07,NNE,18,4.0,6.0,71,0.00,,---,0.00,VWS V14.01,2013-09-26 21:51:00,
2013-09-26 17:52:00,54.9,47.5,30.08,ENE,69,0.0,1.0,76,0.00,,---,0.00,VWS V14.01,2013-09-26 21:52:00,
2013-09-26 17:53:00,54.8,47.4,30.08,NNE,32,1.0,1.0,76,0.00,,---,0.00,VWS V14.01,2013-09-26 21:53:00,
2013-09-26 17:54:00,54.7,47.3,30.08,NNE,32,0.0,1.0,76,0.00,,---,0.00,VWS V14.01,2013-09-26 21:54:00,
2013-09-26 17:55:00,54.7,47.6,30.08,NNE,32,0.0,1.0,77,0.00,,---,0.00,VWS V14.01,2013-09-26 21:55:00,
2013-09-26 17:56:00,54.6,47.5,30.08,NNE,32,0.0,1.0,77,0.00,,---,0.00,VWS V14.01,2013-09-26 21:56:00,
2013-09-26 17:57:00,56.6,47.7,30.07,ENE,69,3.0,4.0,72,0.00,,---,0.00,VWS V14.01,2013-09-26 21:57:00,
2013-09-26 17:58:00,54.4,47.3,30.08,NNE,32,0.0,1.0,77,0.00,,---,0.00,VWS V14.01,2013-09-26 21:58:00,
2013-09-26 17:59:00,54.3,47.2,30.08,NNE,31,0.0,1.0,77,0.00,,---,0.00,VWS V14.01,2013-09-26 21:59:00,
2013-09-26 18:00:00,54.2,47.5,30.08,NNE,32,0.0,1.0,78,0.00,,---,0.00,VWS V14.01,2013-09-26 22:00:00,
2013-09-26 18:01:00,54.0,47.3,30.08,NNE,31,0.0,0.0,78,0.00,,---,0.00,VWS V14.01,2013-09-26 22:01:00,
2013-09-26 18:02:00,56.5,48.0,30.07,NE,51,2.0,4.0,73,0.00,,---,0.00,VWS V14.01,2013-09-26 22:02:00,
2013-09-26 18:03:00,53.7,47.0,30.08,NE,39,0.0,1.0,78,0.00,,---,0.00,VWS V14.01,2013-09-26 22:03:00,
2013-09-26 18:04:00,53.6,46.9,30.08,NE,39,0.0,1.0,78,0.00,,---,0.00,VWS V14.01,2013-09-26 22:04:00,
2013-09-26 18:05:00,53.4,46.7,30.08,NE,39,0.0,1.0,78,0.00,,---,0.00,VWS V14.01,2013-09-26 22:05:00,
2013-09-26 18:06:00,53.2,46.9,30.08,NE,39,0.0,1.0,79,0.00,,---,0.00,VWS V14.01,2013-09-26 22:06:00,
2013-09-26 18:07:00,53.1,46.8,30.08,NE,39,0.0,1.0,79,0.00,,---,0.00,VWS V14.01,2013-09-26 22:07:00,
2013-09-26 18:08:00,52.9,46.9,30.08,NE,39,0.0,1.0,80,0.00,,---,0.00,VWS V14.01,2013-09-26 22:08:00,
2013-09-26 18:09:00,52.8,46.8,30.08,NE,39,0.0,1.0,80,0.00,,---,0.00,VWS V14.01,2013-09-26 22:09:00,
2013-09-26 18:10:00,52.6,46.6,30.08,NE,39,0.0,1.0,80,0.00,,---,0.00,VWS V14.01,2013-09-26 22:10:00,
2013-09-26 18:11:00,56.3,47.8,30.07,ENE,67,0.0,3.0,73,0.00,,---,0.00,VWS V14.01,2013-09-26 22:11:00,
2013-09-26 18:12:00,52.3,46.7,30.08,NE,39,0.0,1.0,81,0.00,,---,0.00,VWS V14.01,2013-09-26 22:12:00,
2013-09-26 18:13:00,52.2,46.5,30.08,NE,39,0.0,1.0,81,0.00,,---,0.00,VWS V14.01,2013-09-26 22:13:00,
2013-09-26 18:14:00,52.0,46.4,30.08,NE,39,0.0,1.0,81,0.00,,---,0.00,VWS V14.01,2013-09-26 22:14:00,
2013-09-26 18:15:00,51.9,46.3,30.08,NE,39,0.0,1.0,81,0.00,,---,0.00,VWS V14.01,2013-09-26 22:15:00,
2013-09-26 18:16:00,51.8,46.5,30.08,NE,39,1.0,1.0,82,0.00,,---,0.00,VWS V14.01,2013-09-26 22:16:00,
2013-09-26 18:17:00,56.1,47.9,30.08,NE,39,2.0,2.0,74,0.00,,---,0.00,VWS V14.01,2013-09-26 22:17:00,
2013-09-26 18:18:00,51.6,46.3,30.09,NE,39,0.0,1.0,82,0.00,,---,0.00,VWS V14.01,2013-09-26 22:18:00,
2013-09-26 18:19:00,51.5,46.2,30.09,NE,39,0.0,1.0,82,0.00,,---,0.00,VWS V14.01,2013-09-26 22:19:00,
2013-09-26 18:20:00,51.4,46.1,30.09,NE,39,0.0,1.0,82,0.00,,---,0.00,VWS V14.01,2013-09-26 22:20:00,
2013-09-26 18:21:00,51.3,46.3,30.09,NE,39,0.0,1.0,83,0.00,,---,0.00,VWS V14.01,2013-09-26 22:21:00,
2013-09-26 18:22:00,55.8,48.0,30.08,East,91,1.0,2.0,75,0.00,,---,0.00,VWS V14.01,2013-09-26 22:22:00,
2013-09-26 18:23:00,51.2,46.2,30.09,NE,39,1.0,1.0,83,0.00,,---,0.00,VWS V14.01,2013-09-26 22:23:00,
2013-09-26 18:24:00,51.1,46.1,30.09,NE,39,0.0,1.0,83,0.00,,---,0.00,VWS V14.01,2013-09-26 22:24:00,
2013-09-26 18:25:00,51.0,46.0,30.09,NE,39,0.0,1.0,83,0.00,,---,0.00,VWS V14.01,2013-09-26 22:25:00,
2013-09-26 18:26:00,51.0,46.0,30.09,NE,39,0.0,1.0,83,0.00,,---,0.00,VWS V14.01,2013-09-26 22:26:00,
2013-09-26 18:27:00,50.9,45.9,30.09,NE,39,0.0,1.0,83,0.00,,---,0.00,VWS V14.01,2013-09-26 22:27:00,
2013-09-26 18:28:00,55.3,47.5,30.08,NE,46,0.0,2.0,75,0.00,,---,0.00,VWS V14.01,2013-09-26 22:28:00,
2013-09-26 18:29:00,50.9,46.2,30.09,NE,37,0.0,1.0,84,0.00,,---,0.00,VWS V14.01,2013-09-26 22:29:00,
2013-09-26 18:30:00,50.8,46.2,30.09,NE,37,0.0,1.0,84,0.00,,---,0.00,VWS V14.01,2013-09-26 22:30:00,
2013-09-26 18:31:00,50.8,46.2,30.09,NE,37,0.0,1.0,84,0.00,,---,0.00,VWS V14.01,2013-09-26 22:31:00,
2013-09-26 18:32:00,50.8,46.2,30.09,NE,37,0.0,2.0,84,0.00,,---,0.00,VWS V14.01,2013-09-26 22:32:00,
2013-09-26 18:33:00,54.9,47.5,30.08,ENE,69,0.0,1.0,76,0.00,,---,0.00,VWS V14.01,2013-09-26 22:33:00,
2013-09-26 18:34:00,50.7,46.0,30.09,NE,37,0.0,2.0,84,0.00,,---,0.00,VWS V14.01,2013-09-26 22:34:00,
2013-09-26 18:35:00,50.7,46.0,30.09,NE,37,0.0,2.0,84,0.00,,---,0.00,VWS V14.01,2013-09-26 22:35:00,
2013-09-26 18:36:00,50.7,46.0,30.09,NE,37,0.0,2.0,84,0.00,,---,0.00,VWS V14.01,2013-09-26 22:36:00,
2013-09-26 18:37:00,50.6,46.0,30.09,NE,37,0.0,1.0,84,0.00,,---,0.00,VWS V14.01,2013-09-26 22:37:00,
2013-09-26 18:38:00,50.6,46.0,30.09,NE,37,0.0,1.0,84,0.00,,---,0.00,VWS V14.01,2013-09-26 22:38:00,
2013-09-26 18:39:00,54.4,47.3,30.08,NNE,32,0.0,1.0,77,0.00,,---,0.00,VWS V14.01,2013-09-26 22:39:00,
2013-09-26 18:40:00,50.4,45.8,30.09,NE,37,0.0,0.0,84,0.00,,---,0.00,VWS V14.01,2013-09-26 22:40:00,
2013-09-26 18:41:00,50.3,45.7,30.09,NE,37,0.0,0.0,84,0.00,,---,0.00,VWS V14.01,2013-09-26 22:41:00,
2013-09-26 18:42:00,50.3,45.7,30.09,NE,37,0.0,0.0,84,0.00,,---,0.00,VWS V14.01,2013-09-26 22:42:00,
2013-09-26 18:43:00,50.2,45.9,30.09,NW,326,0.0,1.0,85,0.00,,---,0.00,VWS V14.01,2013-09-26 22:43:00,
2013-09-26 18:44:00,53.7,47.0,30.08,NE,39,0.0,1.0,78,0.00,,---,0.00,VWS V14.01,2013-09-26 22:44:00,
2013-09-26 18:45:00,50.1,45.8,30.09,NW,326,0.0,1.0,85,0.00,,---,0.00,VWS V14.01,2013-09-26 22:45:00,
2013-09-26 18:46:00,50.1,45.8,30.09,NNW,338,0.0,1.0,85,0.00,,---,0.00,VWS V14.01,2013-09-26 22:46:00,
2013-09-26 18:47:00,50.0,45.7,30.09,NNW,338,0.0,1.0,85,0.00,,---,0.00,VWS V14.01,2013-09-26 22:47:00,
2013-09-26 18:48:00,50.0,45.7,30.09,NNE,12,0.0,1.0,85,0.00,,---,0.00,VWS V14.01,2013-09-26 22:48:00,
2013-09-26 18:49:00,50.0,45.7,30.10,North,11,0.0,1.0,85,0.00,,---,0.00,VWS V14.01,2013-09-26 22:49:00,
2013-09-26 18:50:00,52.8,46.8,30.08,NE,39,0.0,1.0,80,0.00,,---,0.00,VWS V14.01,2013-09-26 22:50:00,
2013-09-26 18:51:00,50.0,45.7,30.10,NNE,12,0.0,1.0,85,0.00,,---,0.00,VWS V14.01,2013-09-26 22:51:00,
2013-09-26 18:52:00,49.9,45.6,30.10,North,7,1.0,1.0,85,0.00,,---,0.00,VWS V14.01,2013-09-26 22:52:00,
2013-09-26 18:53:00,49.9,45.9,30.10,NNW,347,0.0,2.0,86,0.00,,---,0.00,VWS V14.01,2013-09-26 22:53:00,
2013-09-26 18:54:00,49.9,45.6,30.10,NNW,348,0.0,2.0,85,0.00,,---,0.00,VWS V14.01,2013-09-26 22:54:00,
2013-09-26 18:55:00,49.8,45.8,30.09,NNW,348,0.0,2.0,86,0.00,,---,0.00,VWS V14.01,2013-09-26 22:55:00,
2013-09-26 18:56:00,49.8,45.8,30.10,NNE,25,0.0,2.0,86,0.00,,---,0.00,VWS V14.01,2013-09-26 22:56:00,
2013-09-26 18:57:00,51.8,46.5,30.08,NE,39,1.0,1.0,82,0.00,,---,0.00,VWS V14.01,2013-09-26 22:57:00,
2013-09-26 18:58:00,49.7,45.7,30.10,NNE,25,0.0,1.0,86,0.00,,---,0.00,VWS V14.01,2013-09-26 22:58:00,
2013-09-26 18:59:00,49.6,45.6,30.10,NNE,16,0.0,1.0,86,0.00,,---,0.00,VWS V14.01,2013-09-26 22:59:00,
2013-09-26 19:00:00,49.5,45.5,30.10,NNW,331,0.0,1.0,86,0.00,,---,0.00,VWS V14.01,2013-09-26 23:00:00,
2013-09-26 19:01:00,49.5,45.5,30.10,NNW,332,0.0,1.0,86,0.00,,---,0.00,VWS V14.01,2013-09-26 23:01:00,
2013-09-26 19:02:00,51.3,46.3,30.09,NE,39,0.0,1.0,83,0.00,,---,0.00,VWS V14.01,2013-09-26 23:02:00,
2013-09-26 19:03:00,49.4,45.4,30.10,North,5,1.0,1.0,86,0.00,,---,0.00,VWS V14.01,2013-09-26 23:03:00,
2013-09-26 19:04:00,49.4,45.7,30.10,North,6,0.0,1.0,87,0.00,,---,0.00,VWS V14.01,2013-09-26 23:04:00,
2013-09-26 19:05:00,49.4,45.4,30.10,NW,324,0.0,1.0,86,0.00,,---,0.00,VWS V14.01,2013-09-26 23:05:00,
2013-09-26 19:06:00,49.4,45.7,30.10,NW,322,1.0,1.0,87,0.00,,---,0.00,VWS V14.01,2013-09-26 23:06:00,
2013-09-26 19:07:00,51.0,46.0,30.09,NE,39,0.0,1.0,83,0.00,,---,0.00,VWS V14.01,2013-09-26 23:07:00,
2013-09-26 19:08:00,49.4,45.7,30.10,NW,321,1.0,2.0,87,0.00,,---,0.00,VWS V14.01,2013-09-26 23:08:00,
2013-09-26 19:09:00,49.5,45.8,30.10,NW,316,1.0,2.0,87,0.00,,---,0.00,VWS V14.01,2013-09-26 23:09:00,
2013-09-26 19:10:00,49.5,45.8,30.10,NNE,25,1.0,2.0,87,0.00,,---,0.00,VWS V14.01,2013-09-26 23:10:00,
2013-09-26 19:11:00,49.5,45.8,30.10,NNW,333,0.0,2.0,87,0.00,,---,0.00,VWS V14.01,2013-09-26 23:11:00,
2013-09-26 19:12:00,50.8,46.2,30.09,NE,37,0.0,1.0,84,0.00,,---,0.00,VWS V14.01,2013-09-26 23:12:00,
2013-09-26 19:13:00,49.5,45.8,30.10,North,360,1.0,2.0,87,0.00,,---,0.00,VWS V14.01,2013-09-26 23:13:00,
2013-09-26 19:14:00,49.5,45.5,30.10,North,356,1.0,2.0,86,0.00,,---,0.00,VWS V14.01,2013-09-26 23:14:00,
2013-09-26 19:15:00,49.5,45.5,30.10,NNW,328,1.0,2.0,86,0.00,,---,0.00,VWS V14.01,2013-09-26 23:15:00,
2013-09-26 19:16:00,49.5,45.8,30.10,NNW,328,0.0,2.0,87,0.00,,---,0.00,VWS V14.01,2013-09-26 23:16:00,
2013-09-26 19:17:00,49.4,45.7,30.10,NNW,340,0.0,2.0,87,0.00,,---,0.00,VWS V14.01,2013-09-26 23:17:00,
2013-09-26 19:18:00,50.6,46.0,30.09,NE,37,0.0,1.0,84,0.00,,---,0.00,VWS V14.01,2013-09-26 23:18:00,
2013-09-26 19:19:00,49.5,45.5,30.10,NNE,33,0.0,2.0,86,0.00,,---,0.00,VWS V14.01,2013-09-26 23:19:00,
2013-09-26 19:20:00,49.4,45.4,30.10,NNW,328,2.0,3.0,86,0.00,,---,0.00,VWS V14.01,2013-09-26 23:20:00,
2013-09-26 19:21:00,49.5,45.5,30.10,North,8,2.0,6.0,86,0.00,,---,0.00,VWS V14.01,2013-09-26 23:21:00,
2013-09-26 19:22:00,49.5,45.5,30.10,North,7,0.0,6.0,86,0.00,,---,0.00,VWS V14.01,2013-09-26 23:22:00,
2013-09-26 19:23:00,50.3,45.7,30.09,NE,37,0.0,0.0,84,0.00,,---,0.00,VWS V14.01,2013-09-26 23:23:00,
2013-09-26 19:24:00,49.7,45.7,30.10,NNE,18,2.0,6.0,86,0.00,,---,0.00,VWS V14.01,2013-09-26 23:24:00,
2013-09-26 19:25:00,49.8,45.8,30.11,North,9,1.0,6.0,86,0.00,,---,0.00,VWS V14.01,2013-09-26 23:25:00,
2013-09-26 19:26:00,49.8,45.8,30.11,NNE,15,1.0,5.0,86,0.00,,---,0.00,VWS V14.01,2013-09-26 23:26:00,
2013-09-26 19:27:00,49.9,45.6,30.11,NNE,25,3.0,5.0,85,0.00,,---,0.00,VWS V14.01,2013-09-26 23:27:00,
2013-09-26 19:28:00,50.0,45.7,30.09,NNW,338,0.0,1.0,85,0.00,,---,0.00,VWS V14.01,2013-09-26 23:28:00,
2013-09-26 19:29:00,49.9,45.6,30.11,North,8,0.0,3.0,85,0.00,,---,0.00,VWS V14.01,2013-09-26 23:29:00,
2013-09-26 19:30:00,50.0,45.7,30.11,NNE,13,0.0,3.0,85,0.00,,---,0.00,VWS V14.01,2013-09-26 23:30:00,
2013-09-26 19:31:00,50.0,45.7,30.11,NNE,13,0.0,3.0,85,0.00,,---,0.00,VWS V14.01,2013-09-26 23:31:00,
2013-09-26 19:32:00,50.0,45.7,30.11,NNE,22,0.0,3.0,85,0.00,,---,0.00,VWS V14.01,2013-09-26 23:32:00,
2013-09-26 19:33:00,49.9,45.6,30.10,North,7,1.0,1.0,85,0.00,,---,0.00,VWS V14.01,2013-09-26 23:33:00,
2013-09-26 19:34:00,50.1,45.8,30.11,NE,40,0.0,2.0,85,0.00,,---,0.00,VWS V14.01,2013-09-26 23:34:00,
2013-09-26 19:35:00,50.1,45.8,30.11,NNE,26,4.0,4.0,85,0.00,,---,0.00,VWS V14.01,2013-09-26 23:35:00,
2013-09-26 19:36:00,50.1,45.8,30.11,NNE,25,1.0,4.0,85,0.00,,---,0.00,VWS V14.01,2013-09-26 23:36:00,
2013-09-26 19:37:00,50.1,45.8,30.11,NE,51,1.0,4.0,85,0.00,,---,0.00,VWS V14.01,2013-09-26 23:37:00,
2013-09-26 19:38:00,49.7,45.7,30.10,NNE,25,0.0,2.0,86,0.00,,---,0.00,VWS V14.01,2013-09-26 23:38:00,
2013-09-26 19:39:00,50.2,45.6,30.11,NNE,16,0.0,4.0,84,0.00,,---,0.00,VWS V14.01,2013-09-26 23:39:00,
2013-09-26 19:40:00,50.2,45.6,30.11,NNE,15,0.0,4.0,84,0.00,,---,0.00,VWS V14.01,2013-09-26 23:40:00,
2013-09-26 19:41:00,50.2,45.6,30.11,NNW,340,1.0,4.0,84,0.00,,---,0.00,VWS V14.01,2013-09-26 23:41:00,
2013-09-26 19:42:00,50.1,45.5,30.11,North,6,3.0,4.0,84,0.00,,---,0.00,VWS V14.01,2013-09-26 23:42:00,
2013-09-26 19:43:00,50.1,45.5,30.11,NNE,19,0.0,3.0,84,0.00,,---,0.00,VWS V14.01,2013-09-26 23:43:00,
2013-09-26 19:44:00,49.4,45.4,30.10,North,5,1.0,1.0,86,0.00,,---,0.00,VWS V14.01,2013-09-26 23:44:00,
2013-09-26 19:45:00,50.1,45.5,30.12,North,354,2.0,4.0,84,0.00,,---,0.00,VWS V14.01,2013-09-26 23:45:00,
2013-09-26 19:46:00,50.1,45.5,30.12,North,356,1.0,4.0,84,0.00,,---,0.00,VWS V14.01,2013-09-26 23:46:00,
2013-09-26 19:47:00,50.1,45.5,30.12,North,356,0.0,4.0,84,0.00,,---,0.00,VWS V14.01,2013-09-26 23:47:00,
2013-09-26 19:48:00,50.1,45.5,30.12,NNE,15,0.0,4.0,84,0.00,,---,0.00,VWS V14.01,2013-09-26 23:48:00,
2013-09-26 19:49:00,49.4,45.7,30.10,NW,321,1.0,2.0,87,0.00,,---,0.00,VWS V14.01,2013-09-26 23:49:00,
2013-09-26 19:50:00,50.0,45.4,30.12,NNE,31,1.0,4.0,84,0.00,,---,0.00,VWS V14.01,2013-09-26 23:50:00,
2013-09-26 19:51:00,49.9,45.6,30.11,NNW,331,2.0,4.0,85,0.00,,---,0.00,VWS V14.01,2013-09-26 23:51:00,
2013-09-26 19:52:00,49.9,45.6,30.11,NNE,23,1.0,4.0,85,0.00,,---,0.00,VWS V14.01,2013-09-26 23:52:00,
2013-09-26 19:53:00,49.9,45.6,30.12,NNE,16,1.0,4.0,85,0.00,,---,0.00,VWS V14.01,2013-09-26 23:53:00,
2013-09-26 19:54:00,49.9,45.6,30.12,North,1,0.0,4.0,85,0.00,,---,0.00,VWS V14.01,2013-09-26 23:54:00,
2013-09-26 19:55:00,49.5,45.5,30.10,North,356,1.0,2.0,86,0.00,,---,0.00,VWS V14.01,2013-09-26 23:55:00,
2013-09-26 19:56:00,49.9,45.6,30.12,North,356,2.0,4.0,85,0.00,,---,0.00,VWS V14.01,2013-09-26 23:56:00,
2013-09-26 19:57:00,49.9,45.6,30.12,ENE,62,3.0,4.0,85,0.00,,---,0.00,VWS V14.01,2013-09-26 23:57:00,
2013-09-26 19:58:00,49.9,45.6,30.12,NE,53,2.0,3.0,85,0.00,,---,0.00,VWS V14.01,2013-09-26 23:58:00,
2013-09-26 19:59:00,49.9,45.6,30.12,NE,39,1.0,4.0,85,0.00,,---,0.00,VWS V14.01,2013-09-26 23:59:00,
2013-09-26 20:00:00,49.5,45.5,30.10,NNE,33,0.0,2.0,86,0.00,,---,0.00,VWS V14.01,2013-09-27 00:00:00,
2013-09-26 20:01:00,49.9,45.6,30.12,NE,48,3.0,5.0,85,0.00,,---,0.00,VWS V14.01,2013-09-27 00:01:00,
2013-09-26 20:02:00,50.0,45.7,30.12,NE,53,3.0,5.0,85,0.00,,---,0.00,VWS V14.01,2013-09-27 00:02:00,
2013-09-26 20:03:00,50.0,45.7,30.12,NE,53,3.0,6.0,85,0.00,,---,0.00,VWS V14.01,2013-09-27 00:03:00,
2013-09-26 20:04:00,50.1,45.8,30.12,East,89,1.0,6.0,85,0.00,,---,0.00,VWS V14.01,2013-09-27 00:04:00,
2013-09-26 20:05:00,49.7,45.7,30.10,NNE,18,2.0,6.0,86,0.00,,---,0.00,VWS V14.01,2013-09-27 00:05:00,
2013-09-26 20:06:00,50.1,45.8,30.12,ENE,64,3.0,6.0,85,0.00,,---,0.00,VWS V14.01,2013-09-27 00:06:00,
2013-09-26 20:07:00,50.1,45.8,30.12,NE,34,2.0,6.0,85,0.00,,---,0.00,VWS V14.01,2013-09-27 00:07:00,
2013-09-26 20:08:00,50.2,45.9,30.12,NNE,24,3.0,5.0,85,0.00,,---,0.00,VWS V14.01,2013-09-27 00:08:00,
2013-09-26 20:09:00,50.1,45.8,30.12,East,81,3.0,5.0,85,0.00,,---,0.00,VWS V14.01,2013-09-27 00:09:00,
2013-09-26 20:10:00,49.9,45.6,30.11,North,8,0.0,3.0,85,0.00,,---,0.00,VWS V14.01,2013-09-27 00:10:00,
2013-09-26 20:11:00,50.1,45.8,30.12,NE,39,2.0,5.0,85,0.00,,---,0.00,VWS V14.01,2013-09-27 00:11:00,
2013-09-26 20:12:00,50.0,45.7,30.12,ENE,78,0.0,5.0,85,0.00,,---,0.00,VWS V14.01,2013-09-27 00:12:00,
2013-09-26 20:13:00,50.0,45.7,30.12,NE,56,6.0,6.0,85,0.00,,---,0.00,VWS V14.01,2013-09-27 00:13:00,
2013-09-26 20:14:00,50.0,45.7,30.12,NNE,30,3.0,6.0,85,0.00,,---,0.00,VWS V14.01,2013-09-27 00:14:00,
2013-09-26 20:15:00,50.1,45.8,30.11,NE,40,0.0,2.0,85,0.00,,---,0.00,VWS V14.01,2013-09-27 00:15:00,
2013-09-26 20:16:00,50.0,46.0,30.12,ENE,61,1.0,8.0,86,0.00,,---,0.00,VWS V14.01,2013-09-27 00:16:00,
2013-09-26 20:17:00,50.0,46.0,30.12,NNE,18,2.0,8.0,86,0.00,,---,0.00,VWS V14.01,2013-09-27 00:17:00,
2013-09-26 20:18:00,49.9,45.9,30.12,NE,53,2.0,8.0,86,0.00,,---,0.00,VWS V14.01,2013-09-27 00:18:00,
2013-09-26 20:19:00,49.9,45.9,30.12,NNW,328,3.0,8.0,86,0.00,,---,0.00,VWS V14.01,2013-09-27 00:19:00,
2013-09-26 20:20:00,50.2,45.6,30.11,NNE,16,0.0,4.0,84,0.00,,---,0.00,VWS V14.01,2013-09-27 00:20:00,
2013-09-26 20:21:00,49.8,45.8,30.12,NE,48,0.0,6.0,86,0.00,,---,0.00,VWS V14.01,2013-09-27 00:21:00,
2013-09-26 20:22:00,49.8,45.8,30.12,ENE,71,3.0,6.0,86,0.00,,---,0.00,VWS V14.01,2013-09-27 00:22:00,
2013-09-26 20:23:00,49.7,45.7,30.12,NNE,12,3.0,6.0,86,0.00,,---,0.00,VWS V14.01,2013-09-27 00:23:00,
2013-09-26 20:24:00,49.7,45.7,30.12,NE,53,4.0,6.0,86,0.00,,---,0.00,VWS V14.01,2013-09-27 00:24:00,
2013-09-26 20:25:00,50.1,45.5,30.12,NNE,19,0.0,3.0,84,0.00,,---,0.00,VWS V14.01,2013-09-27 00:25:00,
2013-09-26 20:26:00,49.7,46.0,30.12,NE,34,3.0,6.0,87,0.00,,---,0.00,VWS V14.01,2013-09-27 00:26:00,
2013-09-26 20:27:00,49.6,45.9,30.12,NNE,32,1.0,6.0,87,0.00,,---,0.00,VWS V14.01,2013-09-27 00:27:00,
2013-09-26 20:28:00,49.6,45.9,30.12,NE,53,2.0,6.0,87,0.00,,---,0.00,VWS V14.01,2013-09-27 00:28:00,
2013-09-26 20:29:00,49.5,45.5,30.12,ENE,58,3.0,6.0,86,0.00,,---,0.00,VWS V14.01,2013-09-27 00:29:00,
2013-09-26 20:30:00,50.0,45.4,30.12,NNE,15,0.0,4.0,84,0.00,,---,0.00,VWS V14.01,2013-09-27 00:30:00,
2013-09-26 20:31:00,49.5,45.8,30.13,NNE,32,1.0,7.0,87,0.00,,---,0.00,VWS V14.01,2013-09-27 00:31:00,
2013-09-26 20:32:00,49.5,45.8,30.13,ENE,65,1.0,7.0,87,0.00,,---,0.00,VWS V14.01,2013-09-27 00:32:00,
2013-09-26 20:33:00,49.5,45.8,30.13,NE,46,6.0,7.0,87,0.00,,---,0.00,VWS V14.01,2013-09-27 00:33:00,
2013-09-26 20:34:00,49.5,45.8,30.13,NE,34,1.0,7.0,87,0.00,,---,0.00,VWS V14.01,2013-09-27 00:34:00,
2013-09-26 20:35:00,49.9,45.6,30.12,North,1,0.0,4.0,85,0.00,,---,0.00,VWS V14.01,2013-09-27 00:35:00,
2013-09-26 20:36:00,49.4,45.7,30.13,NE,39,3.0,6.0,87,0.00,,---,0.00,VWS V14.01,2013-09-27 00:36:00,
2013-09-26 20:37:00,49.4,45.7,30.13,NE,44,1.0,6.0,87,0.00,,---,0.00,VWS V14.01,2013-09-27 00:37:00,
2013-09-26 20:38:00,49.4,45.7,30.13,North,4,2.0,5.0,87,0.00,,---,0.00,VWS V14.01,2013-09-27 00:38:00,
2013-09-26 20:39:00,49.3,45.6,30.13,NNW,346,3.0,5.0,87,0.00,,---,0.00,VWS V14.01,2013-09-27 00:39:00,
2013-09-26 20:40:00,49.9,45.6,30.12,NE,39,1.0,4.0,85,0.00,,---,0.00,VWS V14.01,2013-09-27 00:40:00,
2013-09-26 20:41:00,49.2,45.5,30.13,NE,39,5.0,6.0,87,0.00,,---,0.00,VWS V14.01,2013-09-27 00:41:00,
2013-09-26 20:42:00,49.2,45.5,30.13,North,11,0.0,6.0,87,0.00,,---,0.00,VWS V14.01,2013-09-27 00:42:00,
2013-09-26 20:43:00,49.2,45.5,30.13,ENE,58,5.0,6.0,87,0.00,,---,0.00,VWS V14.01,2013-09-27 00:43:00,
2013-09-26 20:44:00,49.1,45.4,30.13,NNE,23,2.0,6.0,87,0.00,,---,0.00,VWS V14.01,2013-09-27 00:44:00,
2013-09-26 20:45:00,49.1,45.7,30.13,North,4,2.0,6.0,88,0.00,,---,0.00,VWS V14.01,2013-09-27 00:45:00,
2013-09-26 20:46:00,50.1,45.8,30.12,NE,34,3.0,6.0,85,0.00,,---,0.00,VWS V14.01,2013-09-27 00:46:00,
2013-09-26 20:47:00,49.2,45.8,30.13,NNE,25,3.0,6.0,88,0.00,,---,0.00,VWS V14.01,2013-09-27 00:47:00,
2013-09-26 20:48:00,49.2,45.8,30.13,NNE,15,1.0,6.0,88,0.00,,---,0.00,VWS V14.01,2013-09-27 00:48:00,
2013-09-26 20:49:00,49.2,45.8,30.13,North,6,4.0,9.0,88,0.00,,---,0.00,VWS V14.01,2013-09-27 00:49:00,
2013-09-26 20:50:00,49.2,45.8,30.13,NNE,29,4.0,9.0,88,0.00,,---,0.00,VWS V14.01,2013-09-27 00:50:00,
2013-09-26 20:51:00,50.1,45.8,30.12,NNE,33,1.0,5.0,85,0.00,,---,0.00,VWS V14.01,2013-09-27 00:51:00,
2013-09-26 20:52:00,49.2,45.8,30.13,NNE,22,1.0,9.0,88,0.00,,---,0.00,VWS V14.01,2013-09-27 00:52:00,
2013-09-26 20:53:00,49.2,45.8,30.13,NE,39,4.0,9.0,88,0.00,,---,0.00,VWS V14.01,2013-09-27 00:53:00,
2013-09-26 20:54:00,49.2,45.8,30.13,North,352,1.0,6.0,88,0.00,,---,0.00,VWS V14.01,2013-09-27 00:54:00,
2013-09-26 20:55:00,49.2,45.8,30.14,NE,56,4.0,6.0,88,0.00,,---,0.00,VWS V14.01,2013-09-27 00:55:00,
2013-09-26 20:56:00,50.0,46.0,30.12,NE,44,5.0,8.0,86,0.00,,---,0.00,VWS V14.01,2013-09-27 00:56:00,
2013-09-26 20:57:00,49.2,45.8,30.14,NNE,15,2.0,6.0,88,0.00,,---,0.00,VWS V14.01,2013-09-27 00:57:00,
2013-09-26 20:58:00,49.2,45.8,30.14,North,4,1.0,6.0,88,0.00,,---,0.00,VWS V14.01,2013-09-27 00:58:00,
2013-09-26 20:59:00,49.2,45.8,30.14,NNE,19,3.0,5.0,88,0.00,,---,0.00,VWS V14.01,2013-09-27 00:59:00,
2013-09-26 21:00:00,49.2,45.8,30.14,NE,36,2.0,5.0,88,0.00,,---,0.00,VWS V14.01,2013-09-27 01:00:00,
2013-09-26 21:01:00,49.9,45.9,30.12,NE,49,3.0,6.0,86,0.00,,---,0.00,VWS V14.01,2013-09-27 01:01:00,
2013-09-26 21:02:00,49.1,45.7,30.14,NE,49,4.0,4.0,88,0.00,,---,0.00,VWS V14.01,2013-09-27 01:02:00,
2013-09-26 21:03:00,49.1,45.7,30.14,ENE,63,0.0,4.0,88,0.00,,---,0.00,VWS V14.01,2013-09-27 01:03:00,
2013-09-26 21:04:00,49.1,45.7,30.14,North,4,2.0,4.0,88,0.00,,---,0.00,VWS V14.01,2013-09-27 01:04:00,
2013-09-26 21:05:00,49.0,45.6,30.14,NE,44,2.0,4.0,88,0.00,,---,0.00,VWS V14.01,2013-09-27 01:05:00,
2013-09-26 21:06:00,49.7,45.7,30.12,NE,47,2.0,6.0,86,0.00,,---,0.00,VWS V14.01,2013-09-27 01:06:00,
2013-09-26 21:07:00,48.9,45.5,30.14,NE,47,1.0,4.0,88,0.00,,---,0.00,VWS V14.01,2013-09-27 01:07:00,
2013-09-26 21:08:00,48.9,45.5,30.14,NE,46,2.0,4.0,88,0.00,,---,0.00,VWS V14.01,2013-09-27 01:08:00,
2013-09-26 21:09:00,48.9,45.5,30.14,NNE,26,3.0,4.0,88,0.00,,---,0.00,VWS V14.01,2013-09-27 01:09:00,
2013-09-26 21:10:00,48.8,45.4,30.14,NE,41,2.0,6.0,88,0.00,,---,0.00,VWS V14.01,2013-09-27 01:10:00,
2013-09-26 21:11:00,48.9,45.8,30.14,ENE,73,3.0,6.0,89,0.00,,---,0.00,VWS V14.01,2013-09-27 01:11:00,
2013-09-26 21:12:00,49.5,45.8,30.13,NNE,32,1.0,7.0,87,0.00,,---,0.00,VWS V14.01,2013-09-27 01:12:00,
2013-09-26 21:13:00,48.8,45.7,30.14,ENE,70,1.0,6.0,89,0.00,,---,0.00,VWS V14.01,2013-09-27 01:13:00,
2013-09-26 21:14:00,48.8,45.7,30.14,NNE,25,2.0,6.0,89,0.00,,---,0.00,VWS V14.01,2013-09-27 01:14:00,
2013-09-26 21:15:00,48.8,45.7,30.14,ENE,65,2.0,6.0,89,0.00,,---,0.00,VWS V14.01,2013-09-27 01:15:00,
2013-09-26 21:16:00,48.8,45.7,30.14,NE,39,3.0,6.0,89,0.00,,---,0.00,VWS V14.01,2013-09-27 01:16:00,
2013-09-26 21:17:00,49.4,45.7,30.13,NE,39,3.0,6.0,87,0.00,,---,0.00,VWS V14.01,2013-09-27 01:17:00,
2013-09-26 21:18:00,48.8,45.7,30.14,NE,39,1.0,5.0,89,0.00,,---,0.00,VWS V14.01,2013-09-27 01:18:00,
2013-09-26 21:19:00,48.7,45.3,30.15,NNE,31,2.0,5.0,88,0.00,,---,0.00,VWS V14.01,2013-09-27 01:19:00,
2013-09-26 21:20:00,48.7,45.6,30.14,NNE,29,2.0,5.0,89,0.00,,---,0.00,VWS V14.01,2013-09-27 01:20:00,
2013-09-26 21:21:00,48.7,45.6,30.14,ENE,71,5.0,6.0,89,0.00,,---,0.00,VWS V14.01,2013-09-27 01:21:00,
2013-09-26 21:22:00,49.2,45.5,30.13,NE,39,5.0,6.0,87,0.00,,---,0.00,VWS V14.01,2013-09-27 01:22:00,
2013-09-26 21:23:00,48.7,45.6,30.15,ENE,58,3.0,6.0,89,0.00,,---,0.00,VWS V14.01,2013-09-27 01:23:00,
2013-09-26 21:24:00,48.7,45.6,30.14,NE,36,2.0,6.0,89,0.00,,---,0.00,VWS V14.01,2013-09-27 01:24:00,
2013-09-26 21:25:00,48.7,45.6,30.14,NE,53,7.0,7.0,89,0.00,,---,0.00,VWS V14.01,2013-09-27 01:25:00,
2013-09-26 21:26:00,48.7,45.6,30.14,NE,44,5.0,7.0,89,0.00,,---,0.00,VWS V14.01,2013-09-27 01:26:00,
2013-09-26 21:27:00,49.1,45.7,30.13,NNE,29,5.0,6.0,88,0.00,,---,0.00,VWS V14.01,2013-09-27 01:27:00,
2013-09-26 21:28:00,48.6,45.5,30.14,NNE,33,3.0,7.0,89,0.00,,---,0.00,VWS V14.01,2013-09-27 01:28:00,
2013-09-26 21:29:00,48.6,45.5,30.14,ENE,66,2.0,7.0,89,0.00,,---,0.00,VWS V14.01,2013-09-27 01:29:00,
2013-09-26 21:30:00,48.6,45.5,30.14,NNE,25,4.0,7.0,89,0.00,,---,0.00,VWS V14.01,2013-09-27 01:30:00,
2013-09-26 21:31:00,48.5,45.4,30.14,NNE,29,2.0,6.0,89,0.00,,---,0.00,VWS V14.01,2013-09-27 01:31:00,
2013-09-26 21:32:00,49.2,45.8,30.13,North,354,4.0,9.0,88,0.00,,---,0.00,VWS V14.01,2013-09-27 01:32:00,
2013-09-26 21:33:00,48.5,45.4,30.14,NE,46,1.0,7.0,89,0.00,,---,0.00,VWS V14.01,2013-09-27 01:33:00,
2013-09-26 21:34:00,48.4,45.3,30.15,ENE,61,0.0,7.0,89,0.00,,---,0.00,VWS V14.01,2013-09-27 01:34:00,
2013-09-26 21:35:00,48.4,45.3,30.15,East,82,2.0,7.0,89,0.00,,---,0.00,VWS V14.01,2013-09-27 01:35:00,
2013-09-26 21:36:00,48.4,45.3,30.15,ENE,65,2.0,7.0,89,0.00,,---,0.00,VWS V14.01,2013-09-27 01:36:00,
2013-09-26 21:37:00,49.2,45.8,30.14,NE,56,3.0,6.0,88,0.00,,---,0.00,VWS V14.01,2013-09-27 01:37:00,
2013-09-26 21:38:00,48.4,45.3,30.14,East,91,1.0,4.0,89,0.00,,---,0.00,VWS V14.01,2013-09-27 01:38:00,
2013-09-26 21:39:00,48.3,45.2,30.15,ENE,57,3.0,9.0,89,0.00,,---,0.00,VWS V14.01,2013-09-27 01:39:00,
2013-09-26 21:40:00,48.3,45.2,30.15,NE,38,0.0,9.0,89,0.00,,---,0.00,VWS V14.01,2013-09-27 01:40:00,
2013-09-26 21:41:00,48.3,45.2,30.15,NE,51,1.0,9.0,89,0.00,,---,0.00,VWS V14.01,2013-09-27 01:41:00,
2013-09-26 21:42:00,49.1,45.7,30.14,NNW,347,2.0,5.0,88,0.00,,---,0.00,VWS V14.01,2013-09-27 01:42:00,
2013-09-26 21:43:00,48.3,45.2,30.15,NE,53,4.0,9.0,89,0.00,,---,0.00,VWS V14.01,2013-09-27 01:43:00,
2013-09-26 21:44:00,48.2,45.1,30.15,ENE,62,2.0,4.0,89,0.00,,---,0.00,VWS V14.01,2013-09-27 01:44:00,
2013-09-26 21:45:00,48.2,45.1,30.14,NNE,19,4.0,5.0,89,0.00,,---,0.00,VWS V14.01,2013-09-27 01:45:00,
2013-09-26 21:46:00,48.2,45.1,30.14,NNE,15,3.0,5.0,89,0.00,,---,0.00,VWS V14.01,2013-09-27 01:46:00,
2013-09-26 21:47:00,49.0,45.6,30.14,NNE,26,3.0,4.0,88,0.00,,---,0.00,VWS V14.01,2013-09-27 01:47:00,
2013-09-26 21:48:00,48.2,45.4,30.15,NE,39,4.0,8.0,90,0.00,,---,0.00,VWS V14.01,2013-09-27 01:48:00,
2013-09-26 21:49:00,48.2,45.4,30.14,North,6,4.0,8.0,90,0.00,,---,0.00,VWS V14.01,2013-09-27 01:49:00,
2013-09-26 21:50:00,48.2,45.1,30.14,NNE,20,6.0,8.0,89,0.00,,---,0.00,VWS V14.01,2013-09-27 01:50:00,
2013-09-26 21:51:00,48.2,45.4,30.14,NE,34,3.0,8.0,90,0.00,,---,0.00,VWS V14.01,2013-09-27 01:51:00,
2013-09-26 21:52:00,48.9,45.8,30.14,ENE,73,3.0,6.0,89,0.00,,---,0.00,VWS V14.01,2013-09-27 01:52:00,
2013-09-26 21:53:00,48.2,45.4,30.14,East,82,1.0,8.0,90,0.00,,---,0.00,VWS V14.01,2013-09-27 01:53:00,
2013-09-26 21:54:00,48.2,45.1,30.14,NE,34,1.0,8.0,89,0.00,,---,0.00,VWS V14.01,2013-09-27 01:54:00,
2013-09-26 21:55:00,48.1,45.0,30.14,ENE,63,2.0,8.0,89,0.00,,---,0.00,VWS V14.01,2013-09-27 01:55:00,
2013-09-26 21:56:00,48.1,45.0,30.14,NE,47,1.0,4.0,89,0.00,,---,0.00,VWS V14.01,2013-09-27 01:56:00,
2013-09-26 21:57:00,48.8,45.7,30.14,NE,39,3.0,6.0,89,0.00,,---,0.00,VWS V14.01,2013-09-27 01:57:00,
2013-09-26 21:58:00,48.1,45.3,30.15,ENE,72,1.0,7.0,90,0.00,,---,0.00,VWS V14.01,2013-09-27 01:58:00,
2013-09-26 21:59:00,48.1,45.3,30.15,NNE,30,1.0,7.0,90,0.00,,---,0.00,VWS V14.01,2013-09-27 01:59:00,
2013-09-26 22:00:00,48.1,45.0,30.14,East,96,1.0,7.0,89,0.00,,---,0.00,VWS V14.01,2013-09-27 02:00:00,
2013-09-26 22:01:00,48.0,44.9,30.15,NNE,15,1.0,7.0,89,0.00,,---,0.00,VWS V14.01,2013-09-27 02:01:00,
2013-09-26 22:02:00,48.7,45.6,30.14,ENE,71,5.0,6.0,89,0.00,,---,0.00,VWS V14.01,2013-09-27 02:02:00,
2013-09-26 22:03:00,48.0,45.2,30.15,ENE,59,7.0,7.0,90,0.00,,---,0.00,VWS V14.01,2013-09-27 02:03:00,
2013-09-26 22:04:00,48.0,45.2,30.15,NE,43,0.0,8.0,90,0.00,,---,0.00,VWS V14.01,2013-09-27 02:04:00,
2013-09-26 22:05:00,48.0,45.2,30.15,North,11,3.0,8.0,90,0.00,,---,0.00,VWS V14.01,2013-09-27 02:05:00,
2013-09-26 22:06:00,48.0,45.2,30.15,NE,53,4.0,8.0,90,0.00,,---,0.00,VWS V14.01,2013-09-27 02:06:00,
2013-09-26 22:07:00,48.7,45.6,30.14,NE,44,5.0,7.0,89,0.00,,---,0.00,VWS V14.01,2013-09-27 02:07:00,
2013-09-26 22:08:00,48.0,45.2,30.15,NNE,30,2.0,8.0,90,0.00,,---,0.00,VWS V14.01,2013-09-27 02:08:00,
2013-09-26 22:09:00,48.0,45.2,30.15,NNE,26,3.0,8.0,90,0.00,,---,0.00,VWS V14.01,2013-09-27 02:09:00,
2013-09-26 22:10:00,48.0,45.2,30.15,NNE,20,4.0,8.0,90,0.00,,---,0.00,VWS V14.01,2013-09-27 02:10:00,
2013-09-26 22:11:00,48.0,45.2,30.15,ENE,67,4.0,8.0,90,0.00,,---,0.00,VWS V14.01,2013-09-27 02:11:00,
2013-09-26 22:12:00,48.5,45.4,30.14,NNE,29,2.0,6.0,89,0.00,,---,0.00,VWS V14.01,2013-09-27 02:12:00,
2013-09-26 22:13:00,48.0,45.2,30.15,NNE,29,6.0,9.0,90,0.00,,---,0.00,VWS V14.01,2013-09-27 02:13:00,
2013-09-26 22:14:00,48.0,45.2,30.15,NNW,340,3.0,9.0,90,0.00,,---,0.00,VWS V14.01,2013-09-27 02:14:00,
2013-09-26 22:15:00,48.0,45.2,30.15,NNE,30,5.0,10.0,90,0.00,,---,0.00,VWS V14.01,2013-09-27 02:15:00,
2013-09-26 22:16:00,48.0,45.2,30.15,ENE,73,2.0,10.0,90,0.00,,---,0.00,VWS V14.01,2013-09-27 02:16:00,
2013-09-26 22:17:00,48.4,45.3,30.15,ENE,65,2.0,7.0,89,0.00,,---,0.00,VWS V14.01,2013-09-27 02:17:00,
2013-09-26 22:18:00,48.0,45.2,30.15,North,358,4.0,10.0,90,0.00,,---,0.00,VWS V14.01,2013-09-27 02:18:00,
2013-09-26 22:19:00,48.1,45.3,30.14,NNE,13,5.0,10.0,90,0.00,,---,0.00,VWS V14.01,2013-09-27 02:19:00,
2013-09-26 22:20:00,47.1,44.6,30.15,NNE,32,3.0,7.0,91,0.00,,---,0.00,VWS V14.01,2013-09-27 02:20:00,
2013-09-26 22:21:00,47.1,44.6,30.15,North,11,2.0,7.0,91,0.00,,---,0.00,VWS V14.01,2013-09-27 02:21:00,
2013-09-26 22:22:00,48.3,45.2,30.15,NE,51,1.0,9.0,89,0.00,,---,0.00,VWS V14.01,2013-09-27 02:22:00,
2013-09-26 22:23:00,47.1,44.6,30.15,North,11,8.0,8.0,91,0.00,,---,0.00,VWS V14.01,2013-09-27 02:23:00,
2013-09-26 22:24:00,47.1,44.6,30.15,NNE,23,1.0,8.0,91,0.00,,---,0.00,VWS V14.01,2013-09-27 02:24:00,
2013-09-26 22:25:00,47.1,44.6,30.15,North,354,4.0,8.0,91,0.00,,---,0.00,VWS V14.01,2013-09-27 02:25:00,
2013-09-26 22:26:00,47.1,44.6,30.15,NNE,29,2.0,8.0,91,0.00,,---,0.00,VWS V14.01,2013-09-27 02:26:00,
2013-09-26 22:27:00,48.2,45.1,30.14,NNE,15,3.0,5.0,89,0.00,,---,0.00,VWS V14.01,2013-09-27 02:27:00,
2013-09-26 22:28:00,47.0,44.5,30.15,NNW,340,4.0,7.0,91,0.00,,---,0.00,VWS V14.01,2013-09-27 02:28:00,
2013-09-26 22:29:00,47.0,44.5,30.15,NE,48,6.0,7.0,91,0.00,,---,0.00,VWS V14.01,2013-09-27 02:29:00,
2013-09-26 22:30:00,47.0,44.5,30.15,NNE,15,1.0,7.0,91,0.00,,---,0.00,VWS V14.01,2013-09-27 02:30:00,
2013-09-26 22:31:00,47.0,44.5,30.15,NE,47,5.0,7.0,91,0.00,,---,0.00,VWS V14.01,2013-09-27 02:31:00,
2013-09-26 22:32:00,48.2,45.4,30.14,NE,34,3.0,8.0,90,0.00,,---,0.00,VWS V14.01,2013-09-27 02:32:00,
2013-09-26 22:33:00,47.1,44.6,30.15,NNE,18,3.0,7.0,91,0.00,,---,0.00,VWS V14.01,2013-09-27 02:33:00,
2013-09-26 22:34:00,47.1,44.6,30.15,NNE,31,1.0,6.0,91,0.00,,---,0.00,VWS V14.01,2013-09-27 02:34:00,
2013-09-26 22:35:00,47.1,44.6,30.15,NE,39,1.0,6.0,91,0.00,,---,0.00,VWS V14.01,2013-09-27 02:35:00,
2013-09-26 22:36:00,47.0,44.5,30.15,NE,46,0.0,6.0,91,0.00,,---,0.00,VWS V14.01,2013-09-27 02:36:00,
2013-09-26 22:37:00,48.1,45.0,30.14,NE,47,1.0,4.0,89,0.00,,---,0.00,VWS V14.01,2013-09-27 02:37:00,
2013-09-26 22:38:00,47.0,44.5,30.15,North,11,4.0,6.0,91,0.00,,---,0.00,VWS V14.01,2013-09-27 02:38:00,
2013-09-26 22:39:00,47.0,44.5,30.15,NE,44,3.0,7.0,91,0.00,,---,0.00,VWS V14.01,2013-09-27 02:39:00,
2013-09-26 22:40:00,47.0,44.5,30.15,NNE,18,2.0,7.0,91,0.00,,---,0.00,VWS V14.01,2013-09-27 02:40:00,
2013-09-26 22:41:00,47.0,44.5,30.15,North,6,1.0,7.0,91,0.00,,---,0.00,VWS V14.01,2013-09-27 02:41:00,
2013-09-26 22:42:00,48.0,44.9,30.15,NNE,15,1.0,7.0,89,0.00,,---,0.00,VWS V14.01,2013-09-27 02:42:00,
2013-09-26 22:43:00,47.0,44.5,30.16,NNE,32,4.0,9.0,91,0.00,,---,0.00,VWS V14.01,2013-09-27 02:43:00,
2013-09-26 22:44:00,47.0,44.5,30.16,NNE,26,3.0,9.0,91,0.00,,---,0.00,VWS V14.01,2013-09-27 02:44:00,
2013-09-26 22:45:00,47.0,44.5,30.16,North,360,5.0,9.0,91,0.00,,---,0.00,VWS V14.01,2013-09-27 02:45:00,
2013-09-26 22:46:00,47.0,44.5,30.16,NNE,20,3.0,9.0,91,0.00,,---,0.00,VWS V14.01,2013-09-27 02:46:00,
2013-09-26 22:47:00,48.0,45.2,30.15,NE,53,4.0,8.0,90,0.00,,---,0.00,VWS V14.01,2013-09-27 02:47:00,
2013-09-26 22:48:00,47.0,44.5,30.16,NE,54,3.0,6.0,91,0.00,,---,0.00,VWS V14.01,2013-09-27 02:48:00,
2013-09-26 22:49:00,47.0,44.5,30.16,NNE,25,7.0,7.0,91,0.00,,---,0.00,VWS V14.01,2013-09-27 02:49:00,
2013-09-26 22:50:00,47.0,44.5,30.16,NNE,23,7.0,7.0,91,0.00,,---,0.00,VWS V14.01,2013-09-27 02:50:00,
2013-09-26 22:51:00,47.0,44.5,30.16,NE,34,3.0,7.0,91,0.00,,---,0.00,VWS V14.01,2013-09-27 02:51:00,
2013-09-26 22:52:00,48.0,45.2,30.15,ENE,67,4.0,8.0,90,0.00,,---,0.00,VWS V14.01,2013-09-27 02:52:00,
2013-09-26 22:53:00,47.0,44.5,30.16,NE,47,4.0,8.0,91,0.00,,---,0.00,VWS V14.01,2013-09-27 02:53:00,
2013-09-26 22:54:00,47.0,44.5,30.16,NNE,29,2.0,8.0,91,0.00,,---,0.00,VWS V14.01,2013-09-27 02:54:00,
2013-09-26 22:55:00,47.0,44.5,30.16,NNE,32,3.0,8.0,91,0.00,,---,0.00,VWS V14.01,2013-09-27 02:55:00,
2013-09-26 22:56:00,47.0,44.5,30.16,NNE,25,5.0,8.0,91,0.00,,---,0.00,VWS V14.01,2013-09-27 02:56:00,
2013-09-26 22:57:00,48.0,45.2,30.15,ENE,73,2.0,10.0,90,0.00,,---,0.00,VWS V14.01,2013-09-27 02:57:00,
2013-09-26 22:58:00,47.0,44.5,30.16,NNE,29,8.0,9.0,91,0.00,,---,0.00,VWS V14.01,2013-09-27 02:58:00,
2013-09-26 22:59:00,47.0,44.5,30.16,NNE,22,2.0,9.0,91,0.00,,---,0.00,VWS V14.01,2013-09-27 02:59:00,
2013-09-26 23:00:00,47.0,44.5,30.16,NE,35,4.0,9.0,91,0.00,,---,0.00,VWS V14.01,2013-09-27 03:00:00,
2013-09-26 23:01:00,47.0,44.5,30.16,NNW,338,4.0,9.0,91,0.00,,---,0.00,VWS V14.01,2013-09-27 03:01:00,
2013-09-26 23:02:00,48.1,45.3,30.14,ENE,71,7.0,9.0,90,0.00,,---,0.00,VWS V14.01,2013-09-27 03:02:00,
2013-09-26 23:03:00,47.0,44.5,30.16,NE,50,3.0,9.0,91,0.00,,---,0.00,VWS V14.01,2013-09-27 03:03:00,
2013-09-26 23:04:00,47.0,44.5,30.16,NE,34,5.0,10.0,91,0.00,,---,0.00,VWS V14.01,2013-09-27 03:04:00,
2013-09-26 23:05:00,47.0,44.5,30.16,North,353,6.0,10.0,91,0.00,,---,0.00,VWS V14.01,2013-09-27 03:05:00,
2013-09-26 23:06:00,47.1,44.6,30.16,North,11,4.0,10.0,91,0.00,,---,0.00,VWS V14.01,2013-09-27 03:06:00,
2013-09-26 23:07:00,48.1,45.0,30.15,North,350,2.0,8.0,89,0.00,,---,0.00,VWS V14.01,2013-09-27 03:07:00,
2013-09-26 23:08:00,47.1,44.6,30.16,NNE,33,5.0,10.0,91,0.00,,---,0.00,VWS V14.01,2013-09-27 03:08:00,
2013-09-26 23:09:00,47.1,44.6,30.16,NE,34,8.0,9.0,91,0.00,,---,0.00,VWS V14.01,2013-09-27 03:09:00,
2013-09-26 23:10:00,47.1,44.6,30.16,NE,56,5.0,10.0,91,0.00,,---,0.00,VWS V14.01,2013-09-27 03:10:00,
2013-09-26 23:11:00,47.1,44.6,30.16,NE,56,6.0,10.0,91,0.00,,---,0.00,VWS V14.01,2013-09-27 03:11:00,
2013-09-26 23:12:00,48.0,45.2,30.15,North,356,1.0,10.0,90,0.00,,---,0.00,VWS V14.01,2013-09-27 03:12:00,
2013-09-26 23:13:00,47.1,44.6,30.16,NE,50,3.0,10.0,91,0.00,,---,0.00,VWS V14.01,2013-09-27 03:13:00,
2013-09-26 23:14:00,47.1,44.6,30.16,NNE,19,5.0,10.0,91,0.00,,---,0.00,VWS V14.01,2013-09-27 03:14:00,
2013-09-26 23:15:00,47.1,44.6,30.16,ENE,64,2.0,9.0,91,0.00,,---,0.00,VWS V14.01,2013-09-27 03:15:00,
2013-09-26 23:16:00,47.1,44.6,30.16,NNE,25,4.0,8.0,91,0.00,,---,0.00,VWS V14.01,2013-09-27 03:16:00,
2013-09-26 23:17:00,47.9,45.1,30.15,NNE,19,3.0,9.0,90,0.00,,---,0.00,VWS V14.01,2013-09-27 03:17:00,
2013-09-26 23:18:00,47.0,44.5,30.16,NE,43,3.0,7.0,91,0.00,,---,0.00,VWS V14.01,2013-09-27 03:18:00,
2013-09-26 23:19:00,47.1,44.6,30.15,NNE,30,4.0,7.0,91,0.00,,---,0.00,VWS V14.01,2013-09-27 03:19:00,
2013-09-26 23:20:00,46.9,44.4,30.16,NE,44,4.0,6.0,91,0.00,,---,0.00,VWS V14.01,2013-09-27 03:20:00,
2013-09-26 23:21:00,46.9,44.4,30.16,NNW,339,8.0,8.0,91,0.00,,---,0.00,VWS V14.01,2013-09-27 03:21:00,
2013-09-26 23:22:00,47.9,45.1,30.15,NE,54,5.0,10.0,90,0.00,,---,0.00,VWS V14.01,2013-09-27 03:22:00,
2013-09-26 23:23:00,46.9,44.7,30.16,NE,46,3.0,9.0,92,0.00,,---,0.00,VWS V14.01,2013-09-27 03:23:00,
2013-09-26 23:24:00,46.9,44.7,30.16,NE,46,6.0,9.0,92,0.00,,---,0.00,VWS V14.01,2013-09-27 03:24:00,
2013-09-26 23:25:00,46.9,44.7,30.16,ENE,61,7.0,9.0,92,0.00,,---,0.00,VWS V14.01,2013-09-27 03:25:00,
2013-09-26 23:26:00,47.1,44.6,30.15,NNE,29,2.0,8.0,91,0.00,,---,0.00,VWS V14.01,2013-09-27 03:26:00,
2013-09-26 23:27:00,47.8,45.0,30.15,North,352,2.0,6.0,90,0.00,,---,0.00,VWS V14.01,2013-09-27 03:27:00,
2013-09-26 23:28:00,47.0,44.5,30.15,NNW,340,4.0,7.0,91,0.00,,---,0.00,VWS V14.01,2013-09-27 03:28:00,
2013-09-26 23:29:00,46.9,44.7,30.16,NE,52,3.0,10.0,92,0.00,,---,0.00,VWS V14.01,2013-09-27 03:29:00,
2013-09-26 23:30:00,46.9,44.7,30.16,NE,53,6.0,10.0,92,0.00,,---,0.00,VWS V14.01,2013-09-27 03:30:00,
2013-09-26 23:31:00,46.9,44.7,30.16,North,356,4.0,10.0,92,0.00,,---,0.00,VWS V14.01,2013-09-27 03:31:00,
2013-09-26 23:32:00,47.6,44.8,30.15,NNE,19,4.0,5.0,90,0.00,,---,0.00,VWS V14.01,2013-09-27 03:32:00,
2013-09-26 23:33:00,46.9,44.7,30.16,NE,39,3.0,9.0,92,0.00,,---,0.00,VWS V14.01,2013-09-27 03:33:00,
2013-09-26 23:34:00,46.9,44.7,30.16,North,354,5.0,9.0,92,0.00,,---,0.00,VWS V14.01,2013-09-27 03:34:00,
2013-09-26 23:35:00,46.9,44.7,30.16,NNE,27,3.0,9.0,92,0.00,,---,0.00,VWS V14.01,2013-09-27 03:35:00,
2013-09-26 23:36:00,46.8,44.6,30.16,NW,322,1.0,9.0,92,0.00,,---,0.00,VWS V14.01,2013-09-27 03:36:00,
2013-09-26 23:37:00,47.0,44.5,30.15,NNE,29,5.0,5.0,91,0.00,,---,0.00,VWS V14.01,2013-09-27 03:37:00,
2013-09-26 23:38:00,47.4,44.6,30.15,North,6,1.0,5.0,90,0.00,,---,0.00,VWS V14.01,2013-09-27 03:38:00,
2013-09-26 23:39:00,46.8,44.6,30.16,NE,54,3.0,8.0,92,0.00,,---,0.00,VWS V14.01,2013-09-27 03:39:00,
2013-09-26 23:40:00,47.0,44.5,30.15,NNE,18,2.0,7.0,91,0.00,,---,0.00,VWS V14.01,2013-09-27 03:40:00,
2013-09-26 23:41:00,47.0,44.5,30.15,North,6,1.0,7.0,91,0.00,,---,0.00,VWS V14.01,2013-09-27 03:41:00,
2013-09-26 23:42:00,46.8,44.6,30.16,NNE,27,3.0,8.0,92,0.00,,---,0.00,VWS V14.01,2013-09-27 03:42:00,
2013-09-26 23:43:00,47.3,44.8,30.15,NE,45,4.0,6.0,91,0.00,,---,0.00,VWS V14.01,2013-09-27 03:43:00,
2013-09-26 23:44:00,47.0,44.5,30.16,NNE,26,3.0,9.0,91,0.00,,---,0.00,VWS V14.01,2013-09-27 03:44:00,
2013-09-26 23:45:00,46.7,44.5,30.16,North,356,1.0,8.0,92,0.00,,---,0.00,VWS V14.01,2013-09-27 03:45:00,
2013-09-26 23:46:00,47.0,44.5,30.16,NNE,20,3.0,9.0,91,0.00,,---,0.00,VWS V14.01,2013-09-27 03:46:00,
2013-09-26 23:47:00,46.7,44.5,30.16,NNE,25,2.0,8.0,92,0.00,,---,0.00,VWS V14.01,2013-09-27 03:47:00,
2013-09-26 23:48:00,47.2,44.7,30.15,NNE,13,1.0,7.0,91,0.00,,---,0.00,VWS V14.01,2013-09-27 03:48:00,
2013-09-26 23:49:00,46.7,44.5,30.16,North,356,3.0,9.0,92,0.00,,---,0.00,VWS V14.01,2013-09-27 03:49:00,
2013-09-26 23:50:00,47.0,44.5,30.16,NNE,23,7.0,7.0,91,0.00,,---,0.00,VWS V14.01,2013-09-27 03:50:00,
2013-09-26 23:51:00,46.7,44.5,30.16,ENE,72,6.0,9.0,92,0.00,,---,0.00,VWS V14.01,2013-09-27 03:51:00,
2013-09-26 23:52:00,47.0,44.5,30.16,North,9,6.0,8.0,91,0.00,,---,0.00,VWS V14.01,2013-09-27 03:52:00,
2013-09-26 23:53:00,47.3,44.8,30.15,North,356,1.0,7.0,91,0.00,,---,0.00,VWS V14.01,2013-09-27 03:53:00,
2013-09-26 23:54:00,46.7,44.5,30.16,North,359,5.0,8.0,92,0.00,,---,0.00,VWS V14.01,2013-09-27 03:54:00,
2013-09-26 23:55:00,46.8,44.6,30.16,NE,43,3.0,8.0,92,0.00,,---,0.00,VWS V14.01,2013-09-27 03:55:00,
2013-09-26 23:56:00,46.7,44.5,30.16,North,6,6.0,8.0,92,0.00,,---,0.00,VWS V14.01,2013-09-27 03:56:00,
2013-09-26 23:57:00,47.0,44.5,30.16,NNE,25,3.0,8.0,91,0.00,,---,0.00,VWS V14.01,2013-09-27 03:57:00,
2013-09-26 23:58:00,47.1,44.6,30.15,WNW,292,0.0,4.0,91,0.00,,---,0.00,VWS V14.01,2013-09-27 03:58:00,
2013-09-26 23:59:00,47.0,44.5,30.16,NNE,22,2.0,9.0,91,0.00,,---,0.00,VWS V14.01,2013-09-27 03:59:00,